Date StartTime U_cm/s V_cm/s W_cm/s Ustd_cm/s Vstd_cm/s Wstd_cm/s Uvar_(cm/s)^2 Vvar_(cm/s)^2 Wvar_(cm/s)^2 KE_(m/s)^2 TurbulentKE_(m/s)^2 HorizWindSpeed_cm/s FrictionSpeec_cm/s DragCoef SpeedOfSound_m/s SonicTemperature_C Pressure_mb 
11/25/2014  00:00:00      -84.614      -21.013      -13.163       20.768       26.267       13.155      431.310      689.979      173.064        0.453        0.065       87.184       11.702        0.018      332.537        1.265      873.876
11/25/2014  00:01:00      -91.840      -27.576      -18.324       20.373       17.160       12.747      415.074      294.463      162.492        0.520        0.044       95.891        8.807        0.008      332.503        1.207      873.869
11/25/2014  00:02:00     -100.947      -32.871      -14.535       24.942       18.333       15.449      622.092      336.087      238.678        0.634        0.060      106.163        9.896        0.009      332.422        1.074      873.867
11/25/2014  00:03:00      -88.277      -27.392       -6.242       28.980       20.597       19.737      839.867      424.234      389.544        0.512        0.083       92.429       15.287        0.027      332.445        1.112      873.874
11/25/2014  00:04:00      -64.662      -28.865       -2.892       26.472       21.422       15.636      700.780      458.904      244.475        0.321        0.070       70.812       14.143        0.040      332.478        1.166      873.876
11/25/2014  00:05:00      -69.255      -31.596      -15.280       14.667       18.373        9.794      215.135      337.571       95.924        0.334        0.032       76.122        3.219        0.002      332.469        1.151      873.880
11/25/2014  00:06:00      -79.518      -37.067      -10.463       27.129       20.744       16.891      735.956      430.304      285.290        0.463        0.073       87.733       13.019        0.022      332.483        1.174      873.891
11/25/2014  00:07:00      -75.486      -39.274       -1.698       48.290       33.663       19.579     2331.915     1133.194      383.336        0.555        0.192       85.092       20.558        0.058      332.512        1.222      873.902
11/25/2014  00:08:00      -19.448      -37.498       -6.138       40.006       26.333       17.861     1600.442      693.411      318.999        0.222        0.131       42.241       21.758        0.265      332.557        1.296      873.898
11/25/2014  00:09:00      -15.604      -14.060        6.983       24.493       13.356       13.045      599.891      178.374      170.182        0.072        0.047       21.004       13.839        0.434      332.597        1.363      873.909
11/25/2014  00:10:00      -46.367      -16.745        1.655       55.509       20.324       14.956     3081.227      413.060      223.670        0.307        0.186       49.297       21.918        0.198      332.671        1.486      873.935
11/25/2014  00:11:00      -66.068       -7.801       -1.296       37.153       40.706       21.085     1380.360     1657.001      444.596        0.395        0.174       66.527       18.030        0.073      332.790        1.681      873.950
11/25/2014  00:12:00      -13.760       -8.272       -0.667       40.397       32.256       20.180     1631.921     1040.472      407.217        0.167        0.154       16.055       18.010        1.258      332.950        1.947      873.942
11/25/2014  00:13:00      -46.754       -5.705       -5.543       37.871       33.387       21.509     1434.207     1114.672      462.625        0.263        0.151       47.100       13.757        0.085      333.108        2.208      873.926
11/25/2014  00:14:00      -99.892      -41.399       -6.052       40.296       33.906       16.539     1623.747     1149.639      273.552        0.739        0.152      108.131       14.964        0.019      332.928        1.911      873.911
11/25/2014  00:15:00     -109.614      -37.757      -12.306       22.666       27.497       17.673      513.727      756.081      312.351        0.759        0.079      115.934       11.832        0.010      332.727        1.578      873.910
11/25/2014  00:16:00      -86.166      -21.116       -1.098       38.206       38.176       23.097     1459.695     1457.420      533.471        0.566        0.173       88.716       17.148        0.037      332.661        1.469      873.924
11/25/2014  00:17:00      -67.937      -35.810        2.358       45.229       27.081       19.615     2045.655      733.386      384.767        0.453        0.158       76.797       17.608        0.053      332.711        1.552      873.950
11/25/2014  00:18:00      -18.702      -10.428        3.171       17.684       20.822       10.068      312.725      433.560      101.371        0.066        0.042       21.412        8.051        0.141      332.622        1.405      873.964
11/25/2014  00:19:00      -86.209      -22.019      -14.074       34.525       13.089       11.573     1191.976      171.334      133.936        0.481        0.075       88.977       13.799        0.024      332.653        1.456      873.981
11/25/2014  00:20:00     -121.018      -46.656      -18.903       11.247       14.022        9.055      126.489      196.616       81.985        0.879        0.020      129.701        6.755        0.003      332.731        1.585      873.993
11/25/2014  00:21:00     -119.953      -34.422       -8.689       19.571       19.392       15.889      383.025      376.061      252.473        0.833        0.051      124.794       12.195        0.010      332.677        1.495      874.015
11/25/2014  00:22:00      -85.959      -44.820       -2.395       24.355       23.846       13.712      593.168      568.608      188.019        0.538        0.067       96.942       10.005        0.011      332.668        1.481      874.033
11/25/2014  00:23:00      -62.095      -39.892       -9.532        8.627       21.623        8.153       74.417      467.566       66.470        0.307        0.030       73.805        8.112        0.012      332.874        1.821      874.037
11/25/2014  00:24:00      -47.108      -18.997       -3.530       19.447       10.255        8.278      378.178      105.164       68.520        0.157        0.028       50.794        9.714        0.037      332.840        1.767      874.043
11/25/2014  00:25:00      -31.854      -29.279       -5.323        9.182        8.156        5.315       84.307       66.524       28.247        0.104        0.009       43.265        1.582        0.001      332.894        1.854      874.039
11/25/2014  00:26:00      -64.344      -43.148      -11.570       16.617       12.513        7.216      276.123      156.575       52.077        0.331        0.024       77.472        3.039        0.002      333.028        2.075      874.039
11/25/2014  00:27:00      -81.133      -34.632      -11.477       33.812       21.414       12.528     1143.240      458.565      156.959        0.484        0.088       88.216        8.716        0.010      332.923        1.903      874.048
11/25/2014  00:28:00     -125.489      -14.113       -6.734       30.584       24.243       19.769      935.404      587.744      390.804        0.895        0.096      126.280       19.640        0.024      332.704        1.539      874.057
11/25/2014  00:29:00     -140.643      -33.719      -14.986       28.791       21.962       11.839      828.930      482.339      140.160        1.130        0.073      144.629       10.507        0.005      332.470        1.152      874.058
11/25/2014  00:30:00     -103.729      -37.581      -10.014       35.565       26.738       17.588     1264.880      714.916      309.355        0.728        0.114      110.327       16.724        0.023      332.402        1.041      874.031
11/25/2014  00:31:00      -43.128      -19.521        4.759       27.987       20.745       16.958      783.254      430.349      287.582        0.188        0.075       47.340       13.515        0.082      332.558        1.298      873.998
11/25/2014  00:32:00      -81.797      -30.657       -6.785        9.965        7.915        8.681       99.301       62.648       75.362        0.396        0.012       87.353        3.596        0.002      332.669        1.481      873.978
11/25/2014  00:33:00      -63.793      -44.083      -10.058       27.079       16.455       10.960      733.286      270.777      120.131        0.362        0.056       77.543       11.037        0.020      332.676        1.494      873.963
11/25/2014  00:34:00      -58.408      -39.400       -0.190       27.338       19.481       15.177      747.367      379.525      230.333        0.316        0.068       70.455       14.975        0.045      332.520        1.235      873.957
11/25/2014  00:35:00      -64.789      -37.874       -1.770       29.478       18.217       12.640      868.959      331.856      159.760        0.350        0.068       75.047       12.584        0.028      332.613        1.388      873.966
11/25/2014  00:36:00      -97.408      -41.688       -6.827       16.903       13.893        9.660      285.712      193.014       93.310        0.592        0.029      105.954        6.222        0.003      332.559        1.300      873.971
11/25/2014  00:37:00      -90.781      -43.060       -6.508       17.356       22.156       11.177      301.246      490.878      124.916        0.553        0.046      100.475        7.269        0.005      332.556        1.296      873.961
11/25/2014  00:38:00      -70.276      -47.357       -1.832       29.529       21.292       18.849      871.983      453.341      355.300        0.443        0.084       84.743       20.758        0.060      332.560        1.301      873.941
11/25/2014  00:39:00      -73.227      -44.522      -12.435       30.194       13.387       13.243      911.661      179.217      175.388        0.438        0.063       85.699        6.999        0.007      332.581        1.337      873.926
11/25/2014  00:40:00      -50.701      -33.538       -0.610       24.121       13.994       11.809      581.842      195.836      139.455        0.231        0.046       60.790       12.462        0.042      332.586        1.346      873.912
11/25/2014  00:41:00      -61.840      -25.036       -9.580       18.307       11.734       10.336      335.130      137.694      106.828        0.256        0.029       66.716        6.714        0.010      332.568        1.316      873.903
11/25/2014  00:42:00      -77.482      -23.209      -13.863        7.056        9.445        7.283       49.781       89.199       53.048        0.346        0.010       80.883        3.179        0.002      332.571        1.317      873.896
11/25/2014  00:43:00      -81.682      -34.790      -10.197       10.096       11.616        9.815      101.927      134.939       96.340        0.416        0.017       88.782        7.951        0.008      332.679        1.500      873.904
11/25/2014  00:44:00      -63.687      -39.224       -1.593       13.437       13.715        8.071      180.540      188.098       65.144        0.302        0.022       74.797        4.543        0.004      332.548        1.282      873.921
11/25/2014  00:45:00      -49.642      -26.556       -3.945        9.750        6.306        8.122       95.055       39.769       65.964        0.169        0.010       56.299        5.477        0.009      332.599        1.367      873.915
11/25/2014  00:46:00      -37.866      -26.513       -2.680       12.640       12.024        7.012      159.759      144.565       49.173        0.125        0.018       46.226        6.627        0.021      332.676        1.493      873.909
11/25/2014  00:47:00      -24.927      -16.108       -5.270        9.925        6.594        5.627       98.513       43.475       31.660        0.054        0.009       29.679        3.256        0.012      332.649        1.448      873.899
11/25/2014  00:48:00      -30.680       -5.720       -6.952       15.560        5.370        5.863      242.118       28.838       34.375        0.066        0.015       31.208        3.174        0.010      332.619        1.400      873.904
11/25/2014  00:49:00      -58.356      -23.004        0.097       13.004       12.184       10.042      169.095      148.445      100.843        0.218        0.021       62.726        8.790        0.020      332.602        1.371      873.905
11/25/2014  00:50:00      -54.210      -24.094       -1.620        7.515        5.829        5.486       56.469       33.973       30.096        0.182        0.006       59.324        1.262        0.000      332.548        1.283      873.908
11/25/2014  00:51:00      -26.829      -12.570       -2.144        9.612        9.150        6.085       92.387       83.725       37.021        0.055        0.011       29.628        4.623        0.024      332.514        1.226      873.898
11/25/2014  00:52:00      -36.236       -2.470       -6.997       10.466        3.169        6.207      109.542       10.044       38.525        0.076        0.008       36.320        4.820        0.018      332.519        1.232      873.892
11/25/2014  00:53:00      -46.146      -20.899       -5.004       11.216       13.144        5.909      125.802      172.770       34.917        0.146        0.017       50.657        2.807        0.003      332.584        1.343      873.884
11/25/2014  00:54:00      -57.138      -11.528      -12.347       13.059       11.571        5.334      170.538      133.891       28.452        0.194        0.017       58.289        4.175        0.005      332.497        1.198      873.893
11/25/2014  00:55:00      -67.161       -2.338      -11.407       11.288        6.356        9.860      127.419       40.393       97.226        0.246        0.013       67.202        7.679        0.013      332.507        1.213      873.907
11/25/2014  00:56:00      -77.225       -4.717      -13.428        6.576        7.245        5.786       43.244       52.494       33.479        0.315        0.006       77.369        3.573        0.002      332.615        1.394      873.920
11/25/2014  00:57:00      -62.557      -21.713      -10.512       17.566       11.172        7.384      308.558      124.813       54.526        0.249        0.024       66.218        6.123        0.009      332.615        1.394      873.927
11/25/2014  00:58:00      -45.088      -30.636      -11.798       15.847       14.011       11.860      251.142      196.319      140.667        0.185        0.029       54.511        7.695        0.020      332.341        0.939      873.936
11/25/2014  00:59:00      -41.802      -23.091      -15.757       17.293       13.974       12.297      299.047      195.279      151.220        0.159        0.032       47.756        8.104        0.029      332.253        0.796      873.942
11/25/2014  01:00:00      -40.099      -26.602      -11.671       15.571        8.419       12.657      242.459       70.877      160.206        0.146        0.024       48.120        5.000        0.011      332.287        0.853      873.933
11/25/2014  01:01:00      -54.806      -28.848       -9.744       14.463       11.140        7.737      209.166      124.102       59.867        0.216        0.020       61.935        2.710        0.002      332.268        0.821      873.921
11/25/2014  01:02:00      -75.336      -29.863      -13.524        8.192       10.458        8.051       67.117      109.378       64.821        0.350        0.012       81.038        4.355        0.003      332.165        0.651      873.916
11/25/2014  01:03:00      -81.895      -20.613      -11.158       14.657       14.135        9.906      214.832      199.800       98.129        0.388        0.026       84.450        5.118        0.004      332.120        0.577      873.929
11/25/2014  01:04:00      -83.179      -24.027       -9.461       19.383       18.047       11.704      375.708      325.693      136.977        0.421        0.042       86.579       10.714        0.015      332.211        0.727      873.938
11/25/2014  01:05:00      -71.826      -29.478      -17.684       33.828       20.158       16.759     1144.317      406.363      280.875        0.409        0.092       77.639       16.186        0.043      332.139        0.607      873.943
11/25/2014  01:06:00      -96.278      -25.646      -17.652       14.115       19.507       11.378      199.241      380.539      129.459        0.547        0.035       99.635        9.310        0.009      332.199        0.707      873.937
11/25/2014  01:07:00      -99.230      -38.244      -19.526       17.294       17.785       16.249      299.074      316.313      264.046        0.628        0.044      106.344        7.608        0.005      332.111        0.560      873.929
11/25/2014  01:08:00      -46.916      -28.271        1.997       42.465       23.748       19.131     1803.269      563.985      366.000        0.287        0.137       54.776       22.774        0.173      332.093        0.531      873.915
11/25/2014  01:09:00      -97.837      -46.479      -10.642       18.831       14.115       17.064      354.599      199.225      291.174        0.635        0.042      108.316       10.698        0.010      332.149        0.625      873.900
11/25/2014  01:10:00      -57.370      -28.486        1.559       40.196       22.251       18.649     1615.728      495.090      347.785        0.328        0.123       64.053       18.934        0.087      332.104        0.551      873.882
11/25/2014  01:11:00      -63.049      -52.753        0.191       37.035       29.077       18.558     1371.616      845.469      344.402        0.466        0.128       82.207       20.044        0.059      332.125        0.584      873.858
11/25/2014  01:12:00      -77.987      -48.759       -7.345       50.589       19.815       19.252     2559.296      392.623      370.626        0.592        0.166       91.975       23.958        0.068      332.115        0.569      873.844
11/25/2014  01:13:00     -112.780      -51.025      -10.827       21.274       20.034       16.362      452.594      401.360      267.705        0.828        0.056      123.785       13.978        0.013      332.117        0.571      873.839
11/25/2014  01:14:00     -135.025      -28.310      -10.694       19.482       14.357       13.112      379.541      206.120      171.936        0.995        0.038      137.961       10.772        0.006      332.203        0.715      873.828
11/25/2014  01:15:00     -123.159      -29.484      -13.805       13.184       16.279       12.896      173.812      264.994      166.299        0.842        0.030      126.638        9.126        0.005      332.166        0.651      873.820
11/25/2014  01:16:00      -88.487      -58.800       -8.112       21.861       19.670       12.396      477.891      386.911      153.671        0.619        0.051      106.242        9.293        0.008      332.190        0.690      873.817
11/25/2014  01:17:00      -53.770      -35.296       -4.239       27.221       19.089       18.413      740.963      364.383      339.032        0.280        0.072       64.319       14.832        0.053      332.162        0.646      873.810
11/25/2014  01:18:00      -48.571      -13.931       -3.159       24.599       22.293       13.124      605.120      496.976      172.235        0.192        0.064       50.530        9.614        0.036      332.119        0.575      873.797
11/25/2014  01:19:00      -39.884      -12.893       -9.590       19.931       16.217       14.636      397.236      262.979      214.223        0.136        0.044       41.916        8.548        0.042      332.171        0.661      873.774
11/25/2014  01:20:00      -63.528      -12.958       -9.176       13.162       14.219        8.763      173.240      202.175       76.792        0.237        0.023       64.836        5.411        0.007      332.157        0.636      873.753
11/25/2014  01:21:00      -59.913      -20.565       -8.419       12.528       16.150        8.668      156.942      260.817       75.132        0.229        0.025       63.344        5.516        0.008      332.177        0.670      873.739
11/25/2014  01:22:00      -60.037      -30.821      -11.402       12.395       12.935       10.165      153.637      167.311      103.328        0.255        0.021       67.486        7.008        0.011      332.156        0.636      873.741
11/25/2014  01:23:00      -87.176      -20.127       -9.802       14.256       13.081        8.279      203.222      171.117       68.535        0.427        0.022       89.470        5.523        0.004      332.092        0.531      873.732
11/25/2014  01:24:00      -97.489      -35.723      -16.261       18.279       22.414       12.540      334.117      502.396      157.245        0.602        0.050      103.828       11.240        0.012      332.041        0.445      873.736
11/25/2014  01:25:00     -118.730      -19.522      -10.750       27.303       26.244       17.583      745.435      688.744      309.149        0.817        0.087      120.324       12.695        0.011      331.945        0.287      873.731
11/25/2014  01:26:00      -87.779      -45.996      -14.858       23.910       27.812       19.870      571.688      773.491      394.814        0.589        0.087       99.100       14.713        0.022      331.975        0.336      873.731
11/25/2014  01:27:00      -94.173      -35.765       -6.637       31.749       27.049       23.258     1007.988      731.664      540.929        0.624        0.114      100.736       20.331        0.041      331.994        0.368      873.739
11/25/2014  01:28:00     -102.006      -30.522       -0.475       38.885       29.513       18.614     1512.063      871.001      346.483        0.703        0.136      106.474       10.906        0.010      331.984        0.351      873.743
11/25/2014  01:29:00      -75.526      -19.860        1.125       45.007       27.937       22.999     2025.595      780.503      528.935        0.472        0.167       78.094       24.641        0.100      331.906        0.222      873.739
11/25/2014  01:30:00     -102.602      -60.879       -3.857       26.114       30.831       15.937      681.940      950.546      253.973        0.807        0.094      119.304       16.631        0.019      331.955        0.303      873.724
11/25/2014  01:31:00      -67.205      -47.602       -7.489       32.831       19.767       17.007     1077.873      390.738      289.224        0.430        0.088       82.356       17.088        0.043      331.963        0.316      873.692
11/25/2014  01:32:00      -81.273      -58.735       -3.218       38.474       30.283       23.465     1480.237      917.063      550.625        0.651        0.147      100.275       18.750        0.035      331.995        0.371      873.680
11/25/2014  01:33:00      -82.577      -18.197        1.773       68.888       29.348       19.100     4745.501      861.283      364.807        0.656        0.299       84.558       24.789        0.086      332.034        0.433      873.680
11/25/2014  01:34:00      -45.961      -12.065        3.633       60.632       31.190       17.283     3676.298      972.796      298.707        0.361        0.247       47.519       20.652        0.189      332.076        0.505      873.691
11/25/2014  01:35:00      -13.422        1.107       -0.619       28.686       19.319       18.874      822.869      373.218      356.234        0.087        0.078       13.468       14.361        1.137      332.100        0.542      873.702
11/25/2014  01:36:00      -70.977      -37.324       -7.077       36.988       27.001       16.285     1368.138      729.052      265.202        0.442        0.118       80.192        9.772        0.015      332.090        0.527      873.722
11/25/2014  01:37:00     -105.807      -41.666      -12.668       31.443       36.515       24.188      988.685     1333.346      585.048        0.800        0.145      113.716       12.318        0.012      332.061        0.479      873.737
11/25/2014  01:38:00     -108.369      -45.789      -12.843       40.568       39.057       26.205     1645.766     1525.435      686.692        0.893        0.193      117.646       13.389        0.013      331.939        0.278      873.746
11/25/2014  01:39:00     -118.804       -2.748      -12.362       54.406       33.570       22.740     2960.054     1126.974      517.090        0.944        0.230      118.836       25.646        0.047      331.962        0.314      873.743
11/25/2014  01:40:00      -39.043       -4.444       -5.009       34.820       25.372       12.129     1212.424      643.747      147.110        0.179        0.100       39.295       13.495        0.118      332.012        0.399      873.735
11/25/2014  01:41:00      -30.553      -24.875      -14.338       32.667       20.494       15.394     1067.107      420.017      236.962        0.174        0.086       39.399        8.539        0.047      332.048        0.459      873.740
11/25/2014  01:42:00      -32.442      -16.537        0.986       50.469       20.202       16.445     2547.091      408.127      270.453        0.228        0.161       36.414       22.466        0.381      331.952        0.299      873.738
11/25/2014  01:43:00      -14.365      -30.917       -4.288       39.184       21.053       18.056     1535.368      443.249      326.018        0.174        0.115       34.091       12.543        0.135      331.917        0.242      873.736
11/25/2014  01:44:00      -85.587      -41.289       -7.000       28.267       20.443       16.944      799.028      417.934      287.090        0.529        0.075       95.025       15.103        0.025      331.875        0.172      873.725
11/25/2014  01:45:00      -92.518      -38.129       -6.717       27.349       22.845       15.583      747.961      521.897      242.818        0.579        0.076      100.067       14.517        0.021      331.907        0.224      873.727
11/25/2014  01:46:00      -41.302      -10.099        1.522       38.000       18.004       14.975     1444.021      324.134      224.242        0.190        0.100       42.518       16.521        0.151      331.924        0.252      873.722
11/25/2014  01:47:00      -14.349      -20.224       -6.209       26.536       17.161       10.720      704.144      294.517      114.912        0.088        0.056       24.797        9.420        0.144      332.041        0.447      873.711
11/25/2014  01:48:00      -76.592      -39.462      -14.727       21.246       15.638       10.479      451.411      244.554      109.804        0.422        0.040       86.160        7.360        0.007      332.116        0.570      873.700
11/25/2014  01:49:00     -111.820      -32.373      -17.616       14.944       13.223       12.026      223.335      174.840      144.628        0.720        0.027      116.412        7.622        0.004      332.028        0.424      873.692
11/25/2014  01:50:00      -97.908      -30.402      -18.099       34.221       21.431       14.714     1171.102      459.281      216.488        0.634        0.092      102.520       17.020        0.028      331.944        0.286      873.713
11/25/2014  01:51:00      -86.785      -39.483       -5.934       31.034       20.336       14.806      963.079      413.568      219.232        0.536        0.080       95.345        9.349        0.010      331.939        0.276      873.748
11/25/2014  01:52:00      -78.016      -31.094       -7.103       35.766       19.433       14.896     1279.209      377.628      221.899        0.449        0.094       83.985       15.405        0.034      331.922        0.251      873.789
11/25/2014  01:53:00      -90.991      -37.387      -10.541       46.931       26.196       17.631     2202.510      686.223      310.854        0.649        0.160       98.372       14.578        0.022      331.949        0.294      873.824
11/25/2014  01:54:00      -98.883      -38.522      -13.348       36.755       27.767       24.600     1350.899      771.006      605.178        0.708        0.136      106.122       16.951        0.026      331.961        0.314      873.849
11/25/2014  01:55:00      -92.726      -54.466      -14.860       30.134       21.218       16.974      908.080      450.200      288.120        0.672        0.082      107.540        9.421        0.008      331.897        0.209      873.862
11/25/2014  01:56:00      -97.572      -35.211        2.788       52.048       31.902       23.423     2708.950     1017.727      548.618        0.752        0.214      103.731       29.953        0.083      331.895        0.206      873.860
11/25/2014  01:57:00      -89.008      -47.307        7.447       49.440       32.167       20.886     2444.269     1034.684      436.225        0.706        0.196      100.799       26.088        0.067      331.927        0.258      873.859
11/25/2014  01:58:00     -115.011      -54.749       -2.721       40.720       30.027       18.813     1658.110      901.610      353.926        0.957        0.146      127.377       20.919        0.027      331.939        0.278      873.870
11/25/2014  01:59:00     -124.876      -49.029       -6.750       29.407       25.043       18.262      864.770      627.168      333.511        0.993        0.091      134.156       17.355        0.017      331.900        0.212      873.891
11/25/2014  02:00:00     -108.434      -28.583       -4.228       41.740       34.147       23.084     1742.213     1166.007      532.886        0.802        0.172      112.138       21.512        0.037      331.863        0.153      873.891
11/25/2014  02:01:00     -151.767       -3.899      -14.956       30.467       27.561       22.476      928.244      759.604      505.167        1.273        0.110      151.817       18.473        0.015      331.824        0.089      873.877
11/25/2014  02:02:00     -122.218      -15.825        0.699       41.937       35.270       21.076     1758.708     1243.990      444.197        0.932        0.172      123.238       18.004        0.021      331.800        0.049      873.869
11/25/2014  02:03:00     -132.471      -16.762       -7.759       33.470       29.653       15.887     1120.211      879.320      252.393        1.007        0.113      133.527        9.842        0.005      331.811        0.066      873.854
11/25/2014  02:04:00     -120.624      -24.267       -4.911       43.526       28.327       22.000     1894.555      802.394      484.009        0.917        0.159      123.040       19.661        0.026      331.787        0.026      873.858
11/25/2014  02:05:00     -102.744      -56.050       -2.905       46.229       30.253       22.032     2137.111      915.274      485.401        0.862        0.177      117.039       20.344        0.030      331.852        0.134      873.873
11/25/2014  02:06:00     -107.365      -52.934       -0.147       40.949       39.435       24.535     1676.820     1555.085      601.948        0.908        0.192      119.705       18.811        0.025      331.841        0.117      873.885
11/25/2014  02:07:00     -136.103      -86.388       -5.530       53.219       39.908       25.778     2832.261     1592.621      664.486        1.555        0.254      161.205       25.261        0.025      331.842        0.118      873.890
11/25/2014  02:08:00      -73.889      -36.902       -1.850       35.403       36.021       23.763     1253.340     1297.484      564.663        0.497        0.156       82.591       15.636        0.036      331.844        0.122      873.886
11/25/2014  02:09:00     -115.987      -34.229      -15.291       33.843       31.655       22.688     1145.315     1002.019      514.726        0.876        0.133      120.932       17.212        0.020      331.886        0.190      873.867
11/25/2014  02:10:00     -132.778      -51.954      -14.774       32.950       22.482       18.600     1085.700      505.447      345.955        1.124        0.097      142.581       16.521        0.013      331.866        0.158      873.858
11/25/2014  02:11:00     -127.311      -31.906       -5.638       30.643       47.395       21.230      938.966     2246.314      450.702        1.045        0.182      131.248       14.257        0.012      331.853        0.136      873.851
11/25/2014  02:12:00      -74.270       -6.372       -4.625       26.891       19.070       17.748      723.148      363.658      314.986        0.349        0.070       74.542       13.569        0.033      331.866        0.156      873.828
11/25/2014  02:13:00      -78.449      -26.798      -10.608       29.234       26.453       23.566      854.650      699.775      555.377        0.455        0.105       82.900       13.123        0.025      331.950        0.296      873.823
11/25/2014  02:14:00      -22.074      -36.365        3.913       40.725       32.905       33.155     1658.558     1082.735     1099.239        0.283        0.192       42.540       28.188        0.439      331.875        0.171      873.831
11/25/2014  02:15:00     -142.829      -13.277      -10.504       34.369       27.533       23.645     1181.255      758.044      559.106        1.159        0.125      143.445       19.960        0.019      331.894        0.202      873.841
11/25/2014  02:16:00     -138.262      -47.326       -7.977       39.029       34.890       19.126     1523.243     1217.320      365.805        1.226        0.155      146.138       17.931        0.015      331.857        0.143      873.862
11/25/2014  02:17:00     -155.960      -33.045       -7.835       39.854       33.006       26.392     1588.357     1089.400      696.560        1.442        0.169      159.423       23.100        0.021      331.781        0.018      873.875
11/25/2014  02:18:00     -116.764      -29.028       -4.718       51.563       33.667       27.993     2658.714     1133.499      783.603        0.954        0.229      120.318       27.363        0.052      331.809        0.064      873.883
11/25/2014  02:19:00     -158.170       12.268      -20.406       45.823       27.867       23.927     2099.722      776.556      572.503        1.452        0.172      158.646       21.348        0.018      331.829        0.096      873.895
11/25/2014  02:20:00     -166.004       10.176      -18.260       35.067       36.952       22.130     1229.687     1365.419      489.736        1.554        0.154      166.315       13.445        0.007      331.849        0.130      873.913
11/25/2014  02:21:00     -162.442       27.438      -13.384       25.124       26.449       17.102      631.200      699.543      292.492        1.447        0.081      164.743        8.604        0.003      331.846        0.123      873.925
11/25/2014  02:22:00     -143.598       25.479       -7.172       25.264       21.613       14.627      638.277      467.122      213.950        1.132        0.066      145.841        9.688        0.004      331.966        0.322      873.909
11/25/2014  02:23:00     -150.410       29.782      -11.083       35.129       29.536       16.527     1234.067      872.384      273.143        1.301        0.119      153.330       10.712        0.005      331.977        0.339      873.896
11/25/2014  02:24:00     -152.644       23.625      -16.776       38.554       35.995       19.043     1486.446     1295.660      362.623        1.364        0.157      154.462       17.671        0.013      331.962        0.315      873.903
11/25/2014  02:25:00      -84.459        5.887       -3.831       43.896       31.935       22.580     1926.849     1019.830      509.857        0.532        0.173       84.664       21.973        0.067      331.964        0.319      873.906
11/25/2014  02:26:00      -87.954       -5.719       -2.985       40.722       32.725       20.365     1658.308     1070.911      414.752        0.546        0.157       88.140       19.717        0.050      331.916        0.240      873.912
11/25/2014  02:27:00      -44.268      -12.291      -20.355       37.643       23.557       18.084     1416.962      554.938      327.044        0.241        0.115       45.942       16.337        0.126      331.914        0.238      873.908
11/25/2014  02:28:00      -13.363        6.414        6.590       13.264        7.921        6.431      175.928       62.738       41.364        0.027        0.014       14.823        3.146        0.045      331.949        0.294      873.903
11/25/2014  02:29:00       -5.222       10.402       21.323       14.611       12.520       15.728      213.471      156.745      247.380        0.060        0.031       11.640       12.317        1.120      332.030        0.430      873.909
11/25/2014  02:30:00       34.039       35.653       31.062       31.018       15.102       15.417      962.133      228.079      237.699        0.241        0.071       49.293       12.207        0.061      331.994        0.368      873.926
11/25/2014  02:31:00       54.146       51.590       29.329       19.991       14.556       20.987      399.641      211.884      440.438        0.375        0.053       74.789        9.366        0.016      331.944        0.284      873.952
11/25/2014  02:32:00       62.763       38.309        7.105       16.684       19.158       15.257      278.355      367.036      232.788        0.317        0.044       73.531        7.388        0.010      331.856        0.140      873.981
11/25/2014  02:33:00       66.568       42.818        2.699       14.425       13.767       18.552      208.082      189.538      344.170        0.351        0.037       79.150        8.530        0.012      331.932        0.267      873.994
11/25/2014  02:34:00       92.625       49.610        2.024       16.618       13.973       11.731      276.162      195.257      137.618        0.583        0.030      105.074        5.290        0.003      331.800        0.050      873.986
11/25/2014  02:35:00       74.888       42.512        1.762       16.329       13.728       11.329      266.633      188.460      128.349        0.400        0.029       86.113        5.493        0.004      331.800        0.049      873.981
11/25/2014  02:36:00       43.990       24.144        4.496       16.409       13.700       13.100      269.261      187.676      171.605        0.158        0.031       50.180        8.799        0.031      331.962        0.315      873.993
11/25/2014  02:37:00       47.800       47.008       36.623       22.005       16.435       16.367      484.232      270.112      267.878        0.343        0.051       67.041        7.830        0.014      332.034        0.434      874.019
11/25/2014  02:38:00       48.088       57.513       44.262       30.703       22.837       20.456      942.698      521.540      418.446        0.473        0.094       74.968       15.283        0.042      332.055        0.470      874.037
11/25/2014  02:39:00       77.580       43.261       20.044       17.731       15.947       19.794      314.386      254.305      391.790        0.463        0.048       88.826       12.759        0.021      332.107        0.555      874.032
11/25/2014  02:40:00       59.829       29.000       19.145       24.375       20.030       22.647      594.154      401.185      512.900        0.315        0.075       66.487       16.536        0.062      332.140        0.610      874.001
11/25/2014  02:41:00       44.951       28.317       34.737       14.796       16.452       16.452      218.924      270.660      270.676        0.239        0.038       53.127       12.415        0.055      332.136        0.603      873.976
11/25/2014  02:42:00       26.885       26.079       27.258       18.095       13.802       11.072      327.437      190.497      122.584        0.139        0.032       37.456        9.665        0.067      332.115        0.567      873.970
11/25/2014  02:43:00        6.441       -5.426        4.144       14.892       13.128       10.145      221.770      172.334      102.916        0.029        0.025        8.422        9.763        1.344      332.218        0.738      873.979
11/25/2014  02:44:00        0.669      -13.438       11.908        8.894        9.260        9.182       79.106       85.740       84.305        0.029        0.012       13.455        5.595        0.173      332.295        0.864      873.993
11/25/2014  02:45:00      -21.813      -10.407        3.936       13.300       12.081        6.064      176.888      145.939       36.777        0.048        0.018       24.169        3.415        0.020      332.226        0.749      874.004
11/25/2014  02:46:00       -8.774        8.753        4.959       12.473        5.936        4.515      155.583       35.239       20.386        0.019        0.011       12.393        4.091        0.109      332.100        0.545      874.012
11/25/2014  02:47:00       18.143       17.633        4.817        7.684        5.317        4.669       59.042       28.274       21.797        0.039        0.005       25.300        3.686        0.021      332.211        0.725      874.008
11/25/2014  02:48:00       27.693       26.056        1.056        8.422        7.360        6.339       70.933       54.174       40.183        0.081        0.008       38.024        4.340        0.013      332.231        0.759      873.995
11/25/2014  02:49:00       30.643       35.001       -3.789        9.681       12.782        8.987       93.715      163.380       80.757        0.126        0.017       46.519        6.120        0.017      332.140        0.609      873.979
11/25/2014  02:50:00       60.660       38.565       10.515       18.832       14.844       13.998      354.645      220.335      195.944        0.302        0.039       71.881        9.287        0.017      332.118        0.572      873.964
11/25/2014  02:51:00       67.440       41.363        6.335        9.906       10.136       10.081       98.131      102.745      101.623        0.330        0.015       79.114        5.907        0.006      331.995        0.369      873.951
11/25/2014  02:52:00       66.696       44.846        7.827       13.897       13.105       11.665      193.121      171.742      136.065        0.351        0.025       80.371        7.922        0.010      332.074        0.500      873.944
11/25/2014  02:53:00       62.402       42.374       12.312       11.036       11.076       10.776      121.794      122.684      116.116        0.310        0.018       75.430        3.169        0.002      332.194        0.699      873.946
11/25/2014  02:54:00       70.257       39.148       12.079       16.631       10.666       15.115      276.604      113.755      228.461        0.362        0.031       80.428       10.657        0.018      332.223        0.746      873.929
11/25/2014  02:55:00       63.320       25.731       12.008       13.172       10.888       14.114      173.510      118.555      199.218        0.265        0.025       68.348        4.070        0.004      332.181        0.675      873.916
11/25/2014  02:56:00       26.886       10.731        0.436       14.225        7.768        5.943      202.339       60.335       35.315        0.057        0.015       28.949        5.753        0.039      332.181        0.676      873.912
11/25/2014  02:57:00       13.547       26.440       -2.327       12.210        9.608        6.231      149.092       92.320       38.820        0.058        0.014       29.708        4.088        0.019      332.220        0.743      873.921
11/25/2014  02:58:00       34.450       39.328       -0.046       10.487        7.771        5.911      109.983       60.393       34.942        0.147        0.010       52.283        4.136        0.006      332.261        0.808      873.927
11/25/2014  02:59:00       56.620       37.081        6.780        9.883        8.244        9.141       97.679       67.966       83.555        0.244        0.012       67.682        3.829        0.003      332.267        0.817      873.934
11/25/2014  03:00:00       40.209       34.597       16.590       20.919       16.573       19.321      437.598      274.666      373.299        0.209        0.054       53.044       16.183        0.093      332.110        0.560      873.935
11/25/2014  03:01:00        3.045       30.940       40.634       16.684       19.876       10.287      278.347      395.044      105.822        0.170        0.039       31.089        9.813        0.100      331.885        0.189      873.946
11/25/2014  03:02:00       -9.448       -6.390        5.064       11.965       15.509       14.924      143.160      240.535      222.713        0.038        0.030       11.406       12.492        1.200      331.927        0.259      873.979
11/25/2014  03:03:00      -18.997      -13.274        0.929       20.282       11.014        9.762      411.373      121.306       95.303        0.058        0.031       23.176        6.315        0.074      331.994        0.370      874.006
11/25/2014  03:04:00      -38.346      -13.408       -2.839        7.628        8.728        5.871       58.182       76.172       34.465        0.091        0.008       40.622        4.469        0.012      331.889        0.195      874.011
11/25/2014  03:05:00      -29.260      -10.006       -7.834        4.083        6.263        3.703       16.668       39.226       13.714        0.054        0.003       30.923        2.977        0.009      331.965        0.322      874.006
11/25/2014  03:06:00      -33.231       -3.692       -5.545       10.301        6.167        4.456      106.107       38.035       19.854        0.066        0.008       33.435        3.264        0.010      332.222        0.744      874.013
11/25/2014  03:07:00      -43.964      -25.868       -6.111       12.094        8.999        9.425      146.253       80.981       88.828        0.148        0.016       51.010        7.469        0.021      332.086        0.520      874.014
11/25/2014  03:08:00        4.384      -12.991        2.779        6.293       16.063        7.931       39.604      258.035       62.897        0.028        0.018       13.711        8.817        0.413      332.038        0.443      874.020
11/25/2014  03:09:00        4.293       13.020       -5.671       11.901       11.050        5.470      141.637      122.110       29.920        0.026        0.015       13.710        5.458        0.159      332.074        0.501      874.029
11/25/2014  03:10:00      -29.116      -13.102       -8.045       18.180        8.296        7.115      330.518       68.826       50.618        0.077        0.022       31.928        5.089        0.025      332.113        0.566      874.055
11/25/2014  03:11:00      -10.939       -9.467        1.276       21.569       11.130       10.751      465.211      123.872      115.576        0.046        0.035       14.467        8.521        0.347      331.949        0.294      874.077
11/25/2014  03:12:00      -52.945      -24.380        0.450       30.534       24.469       19.563      932.304      598.730      382.724        0.266        0.096       58.289       11.917        0.042      331.864        0.154      874.092
11/25/2014  03:13:00      -77.156      -69.108        1.299       58.690       51.723       24.978     3444.548     2675.278      623.897        0.874        0.337      103.581       27.837        0.072      332.035        0.436      874.081
11/25/2014  03:14:00      -54.892      -58.175        8.328       52.836       37.090       23.037     2791.688     1375.647      530.695        0.558        0.235       79.984       24.725        0.096      332.046        0.454      874.063
11/25/2014  03:15:00      -23.308      -32.002        9.101       26.399       21.036       16.635      696.923      442.532      276.714        0.153        0.071       39.590       11.973        0.091      332.100        0.543      874.043
11/25/2014  03:16:00      -56.240      -32.115       -1.071       45.247       30.416       22.028     2047.329      925.131      485.245        0.383        0.173       64.764       24.333        0.141      332.085        0.520      874.034
11/25/2014  03:17:00      -51.134      -27.012        4.787       47.535       30.873       25.272     2259.612      953.129      638.673        0.361        0.193       57.830       26.688        0.213      332.086        0.521      874.035
11/25/2014  03:18:00      -42.754      -15.474        3.780       33.315       25.328       21.503     1109.880      641.491      462.398        0.215        0.111       45.468       21.012        0.214      332.042        0.448      874.045
11/25/2014  03:19:00      -74.306      -24.447        2.763       27.291       19.637       17.163      744.785      385.617      294.572        0.378        0.071       78.224       12.721        0.026      331.999        0.375      874.063
11/25/2014  03:20:00      -75.857      -12.249       -7.067       24.688       12.604        9.137      609.487      158.872       83.490        0.340        0.043       76.840        9.104        0.014      331.891        0.198      874.069
11/25/2014  03:21:00      -79.084      -32.203       -3.814       16.651       20.246       11.749      277.251      409.897      138.040        0.407        0.041       85.389        8.028        0.009      331.809        0.063      874.064
11/25/2014  03:22:00      -90.808      -31.366       -5.894       30.864       22.300       12.246      952.579      497.269      149.962        0.543        0.080       96.072       11.765        0.015      331.693       -0.126      874.069
11/25/2014  03:23:00     -102.395      -27.314        0.796       46.385       25.951       20.075     2151.552      673.443      403.010        0.723        0.161      105.975       22.134        0.044      331.619       -0.249      874.075
11/25/2014  03:24:00      -90.973      -30.049        4.012       32.168       27.726       15.980     1034.764      768.721      255.369        0.563        0.103       95.807       17.765        0.034      331.645       -0.206      874.074
11/25/2014  03:25:00      -51.121      -26.151        3.194       33.849       28.032       17.546     1145.749      785.769      307.871        0.277        0.112       57.422       18.797        0.107      331.703       -0.110      874.060
11/25/2014  03:26:00      -82.306       -0.946       -2.197       34.521       26.177       16.860     1191.699      685.221      284.253        0.447        0.108       82.311       17.416        0.045      331.676       -0.154      874.039
11/25/2014  03:27:00      -70.990        0.026       -6.380       42.526       24.477       20.166     1808.477      599.120      406.684        0.395        0.141       70.990       22.581        0.101      331.679       -0.150      874.022
11/25/2014  03:28:00     -122.286      -15.508      -10.330       35.912       29.295       17.977     1289.645      858.221      323.157        0.889        0.124      123.265       14.917        0.015      331.798        0.046      874.019
11/25/2014  03:29:00     -140.589      -44.644       -9.469       27.045       32.021       20.696      731.407     1025.314      428.317        1.202        0.109      147.507       14.852        0.010      331.765       -0.008      874.018
11/25/2014  03:30:00      -91.925      -31.780        1.119       34.924       21.639       17.058     1219.715      468.237      290.965        0.572        0.099       97.263       17.226        0.031      331.757       -0.021      874.005
11/25/2014  03:31:00      -70.251      -28.896       -4.542       35.404       24.973       19.136     1253.440      623.632      366.201        0.402        0.112       75.961       19.703        0.067      331.754       -0.026      873.994
11/25/2014  03:32:00     -135.216        4.361      -10.654       48.438       24.195       17.469     2346.244      585.389      305.183        1.083        0.162      135.286       17.276        0.016      331.872        0.166      874.004
11/25/2014  03:33:00     -141.141      -24.198      -13.223       22.125       22.305       14.379      489.524      497.519      206.746        1.094        0.060      143.200        9.081        0.004      331.819        0.080      874.024
11/25/2014  03:34:00     -103.574      -45.160       -2.330       32.148       39.156       16.969     1033.509     1533.219      287.958        0.781        0.143      112.991       16.195        0.021      331.754       -0.027      874.039
11/25/2014  03:35:00      -76.334      -30.331       -3.133       41.208       23.744       17.486     1698.127      563.793      305.751        0.466        0.128       82.139       18.138        0.049      331.681       -0.147      874.039
11/25/2014  03:36:00      -86.939      -21.927        0.596       31.213       29.722       18.728      974.248      883.381      350.753        0.512        0.110       89.662       17.628        0.039      331.636       -0.221      874.045
11/25/2014  03:37:00      -84.528      -16.682       -2.843       30.405       23.586       14.725      924.493      556.314      216.832        0.456        0.085       86.158       14.984        0.030      331.648       -0.201      874.041
11/25/2014  03:38:00      -97.096      -19.397       -7.767       19.473       14.081       11.965      379.197      198.285      143.159        0.529        0.036       99.015       11.429        0.013      331.807        0.061      874.020
11/25/2014  03:39:00     -105.469      -31.782       -7.921       31.852       18.747       13.856     1014.559      351.434      191.976        0.688        0.078      110.154       14.179        0.017      331.808        0.062      873.998
11/25/2014  03:40:00     -157.023      -42.349      -14.606       15.110       13.634       14.235      228.308      185.891      202.637        1.364        0.031      162.634        9.209        0.003      331.631       -0.230      874.000
11/25/2014  03:41:00     -110.584      -24.689      -10.575       23.487       21.980       17.290      551.619      483.132      298.942        0.714        0.067      113.307       13.138        0.013      331.528       -0.398      874.007
11/25/2014  03:42:00      -87.618      -12.556       -2.977       30.112       19.550       12.945      906.750      382.186      167.577        0.465        0.073       88.513       10.076        0.013      331.647       -0.202      873.989
11/25/2014  03:43:00      -54.715        4.272       -1.893       19.019       14.301       12.487      361.704      204.521      155.934        0.187        0.036       54.882        9.614        0.031      331.772        0.003      873.964
11/25/2014  03:44:00      -22.108      -11.512       -5.320       14.659        9.499        7.455      214.895       90.228       55.570        0.051        0.018       24.926        5.224        0.044      331.953        0.300      873.948
11/25/2014  03:45:00      -41.521      -12.040       -3.854       26.168       19.382       13.266      684.785      375.649      175.983        0.156        0.062       43.231       13.088        0.092      332.184        0.681      873.948
11/25/2014  03:46:00      -24.163      -18.760       -4.348       33.356       14.201       18.643     1112.655      201.671      347.553        0.131        0.083       30.590       16.666        0.297      331.827        0.094      873.967
11/25/2014  03:47:00       -2.223      -27.544        9.440       20.272       19.620       14.689      410.969      384.928      215.768        0.093        0.051       27.633        9.302        0.113      331.783        0.019      873.971
11/25/2014  03:48:00        0.546       -2.340        5.040       12.327       10.495       10.847      151.950      110.135      117.649        0.021        0.019        2.403        9.770       16.529      331.758       -0.019      873.969
11/25/2014  03:49:00      -39.665       20.736       -7.058       13.504       11.834        8.961      182.350      140.038       80.293        0.123        0.020       44.758        6.118        0.019      331.997        0.375      873.985
11/25/2014  03:50:00      -59.204       29.691       -9.813       19.567       16.401       13.212      382.877      268.992      174.546        0.265        0.041       66.232        7.987        0.015      332.080        0.511      874.026
11/25/2014  03:51:00      -64.362       22.047       -9.206       16.191       14.847        8.045      262.156      220.419       64.724        0.263        0.027       68.034        6.571        0.009      332.211        0.726      874.058
11/25/2014  03:52:00      -60.261       -2.642       -1.360       14.081       14.451        9.897      198.263      208.825       97.955        0.207        0.025       60.319        8.152        0.018      331.981        0.347      874.067
11/25/2014  03:53:00      -86.903       -7.468      -18.268       15.483       17.663       11.485      239.715      311.998      131.895        0.431        0.034       87.224        6.635        0.006      332.004        0.386      874.046
11/25/2014  03:54:00      -90.141      -24.834      -18.960       28.812       19.749       13.267      830.114      390.017      176.011        0.525        0.070       93.500       11.994        0.016      331.814        0.073      874.014
11/25/2014  03:55:00     -104.414      -18.420      -11.321       22.396       19.974       18.735      501.565      398.969      350.987        0.631        0.063      106.027       13.479        0.016      331.529       -0.396      874.003
11/25/2014  03:56:00     -106.995      -34.794      -11.448       37.227       20.960       13.440     1385.833      439.305      180.643        0.740        0.100      112.511        9.862        0.008      331.430       -0.561      874.001
11/25/2014  03:57:00      -56.132      -37.993       -4.520       25.456       21.041       13.520      648.008      442.730      182.783        0.294        0.064       67.781       11.703        0.030      331.452       -0.525      873.987
11/25/2014  03:58:00      -68.276      -45.896       -9.007       16.294       20.503       13.564      265.494      420.357      183.973        0.386        0.043       82.268        4.565        0.003      331.509       -0.430      873.977
11/25/2014  03:59:00      -60.894      -35.190       -5.611       20.617       17.350       16.698      425.067      301.030      278.819        0.299        0.050       70.330       10.616        0.023      331.525       -0.404      873.959
11/25/2014  04:00:00      -91.264      -19.908       -9.558       27.616       19.703       14.441      762.653      388.193      208.529        0.509        0.068       93.411       14.542        0.024      331.527       -0.400      873.951
11/25/2014  04:01:00     -121.487      -30.548      -12.499       27.595       24.201       16.750      761.507      585.696      280.576        0.874        0.081      125.268       12.760        0.010      331.540       -0.380      873.969
11/25/2014  04:02:00     -128.261      -20.303      -11.301       31.952       20.154       17.141     1020.919      406.196      293.821        0.936        0.086      129.858       15.803        0.015      331.480       -0.478      873.995
11/25/2014  04:03:00     -102.286      -18.917       -8.060       33.564       23.510       17.597     1126.539      552.710      309.661        0.644        0.099      104.020       16.348        0.025      331.461       -0.509      874.004
11/25/2014  04:04:00      -49.047      -15.002        1.234       38.580       18.841       18.093     1488.397      354.984      327.373        0.240        0.109       51.290       18.611        0.132      331.683       -0.144      874.009
11/25/2014  04:05:00      -82.683      -34.374       -1.474       22.377       13.563       10.719      500.709      183.967      114.903        0.441        0.040       89.544       11.940        0.018      331.741       -0.049      874.019
11/25/2014  04:06:00      -81.257      -31.442       -9.676       25.545       18.342       14.450      652.556      336.438      208.794        0.444        0.060       87.128       15.422        0.031      331.774        0.004      874.036
11/25/2014  04:07:00      -47.255      -31.395       -4.981       14.336        8.452        7.742      205.533       71.434       59.939        0.179        0.017       56.734        2.756        0.002      331.849        0.128      874.030
11/25/2014  04:08:00      -42.245      -38.075       -3.408       11.357        8.402        7.478      128.977       70.585       55.925        0.175        0.013       56.871        5.011        0.008      331.994        0.370      874.021
11/25/2014  04:09:00      -55.628      -29.406        2.869       24.683       15.311       16.523      609.249      234.417      272.997        0.254        0.056       62.922       14.827        0.056      331.928        0.258      874.023
11/25/2014  04:10:00      -89.535      -28.201       -6.401       15.272       20.180       10.512      233.220      407.225      110.510        0.480        0.038       93.872        7.627        0.007      331.834        0.105      874.011
11/25/2014  04:11:00      -53.811      -24.601       -3.906       21.558       14.173        7.859      464.743      200.878       61.770        0.212        0.036       59.168        3.484        0.003      331.803        0.053      873.988
11/25/2014  04:12:00      -64.833      -25.454       -4.133       23.594       14.528       11.087      556.684      211.057      122.927        0.288        0.045       69.651        4.155        0.004      331.778        0.012      873.975
11/25/2014  04:13:00     -132.923      -51.956       -1.343       45.538       28.843       16.955     2073.716      831.911      287.471        1.178        0.160      142.716       12.794        0.008      331.696       -0.123      873.994
11/25/2014  04:14:00      -95.105      -93.685        6.406       62.718       47.781       29.014     3933.503     2283.027      841.808        1.246        0.353      133.499       31.212        0.055      331.717       -0.087      873.988
11/25/2014  04:15:00     -104.509      -49.447       -0.449       30.278       38.119       17.817      916.774     1453.090      317.430        0.803        0.134      115.616       14.132        0.015      331.757       -0.021      873.968
11/25/2014  04:16:00     -112.434      -52.872       -5.096       38.960       24.330       14.154     1517.881      591.932      200.340        0.889        0.116      124.245       13.354        0.012      331.792        0.036      873.960
11/25/2014  04:17:00      -50.159      -48.161        7.497       43.815       26.359       24.981     1919.755      694.784      624.028        0.406        0.162       69.538       21.416        0.095      331.766       -0.008      873.963
11/25/2014  04:18:00      -89.486      -57.044       -2.097       41.515       28.778       19.940     1723.524      828.152      397.594        0.711        0.147      106.122       18.854        0.032      331.707       -0.104      873.958
11/25/2014  04:19:00      -98.263      -36.499       -4.982       31.358       22.971       20.105      983.340      527.672      404.224        0.646        0.096      104.823       18.031        0.030      331.731       -0.065      873.937
11/25/2014  04:20:00      -75.847      -25.574       -3.280       26.597       21.065       16.235      707.408      443.727      263.591        0.392        0.071       80.043       15.042        0.035      331.656       -0.187      873.934
11/25/2014  04:21:00      -77.823      -41.068        5.044       34.538       25.414       20.633     1192.842      645.890      425.713        0.502        0.113       87.994       18.105        0.042      331.665       -0.173      873.951
11/25/2014  04:22:00      -74.892      -54.840        2.818       33.263       23.046       18.499     1106.432      531.120      342.220        0.530        0.099       92.824       17.721        0.036      331.595       -0.288      873.968
11/25/2014  04:23:00      -96.719      -25.553        1.494       35.482       24.742       15.321     1258.982      612.186      234.729        0.606        0.105      100.038       17.117        0.029      331.527       -0.401      873.981
11/25/2014  04:24:00     -132.775      -37.120        3.000       44.914       25.925       20.411     2017.291      672.112      416.593        1.106        0.155      137.867       22.267        0.026      331.513       -0.424      873.989
11/25/2014  04:25:00     -106.669      -49.994        1.328       41.427       32.412       19.414     1716.229     1050.533      376.892        0.851        0.157      117.803       13.503        0.013      331.603       -0.275      873.986
11/25/2014  04:26:00      -85.485      -35.969        1.681       33.695       25.702       15.533     1135.385      660.582      241.285        0.532        0.102       92.744       11.387        0.015      331.705       -0.107      873.965
11/25/2014  04:27:00      -59.801      -46.719       -0.462       31.323       23.497       18.032      981.140      552.100      325.167        0.381        0.093       75.886       12.740        0.028      331.694       -0.124      873.962
11/25/2014  04:28:00     -128.287      -65.996       -2.722       25.399       25.728       16.154      645.102      661.915      260.964        1.119        0.078      144.267        3.454        0.001      331.598       -0.284      873.982
11/25/2014  04:29:00     -122.091      -64.494        3.072       47.642       34.624       27.618     2269.781     1198.841      762.735        1.165        0.212      138.079       28.544        0.043      331.543       -0.375      873.973
11/25/2014  04:30:00      -80.599      -62.169        6.569       39.607       33.702       21.573     1568.697     1135.851      465.381        0.679        0.158      101.790       21.816        0.046      331.772        0.004      873.949
11/25/2014  04:31:00      -44.440      -29.003        1.441       27.098       18.272       16.117      734.284      333.859      259.766        0.207        0.066       53.067       17.522        0.109      331.766       -0.008      873.916
11/25/2014  04:32:00      -67.432      -26.135       -4.994       24.228       16.865       12.775      587.000      284.432      163.211        0.314        0.052       72.320       10.829        0.022      331.718       -0.088      873.900
11/25/2014  04:33:00      -85.874      -32.404       -3.283       22.286       19.890       10.038      496.662      395.606      100.766        0.471        0.050       91.784        8.795        0.009      331.667       -0.169      873.884
11/25/2014  04:34:00     -125.734      -21.136       -8.986       20.970       18.264       14.945      439.756      333.573      223.346        0.867        0.050      127.498        9.513        0.006      331.510       -0.428      873.883
11/25/2014  04:35:00      -99.337      -51.456        3.911       47.537       30.004       21.748     2259.778      900.230      472.979        0.808        0.182      111.873       23.778        0.045      331.583       -0.309      873.897
11/25/2014  04:36:00     -117.198      -45.468        5.928       54.054       36.305       23.707     2921.818     1318.069      562.003        1.032        0.240      125.709       22.782        0.033      331.691       -0.129      873.909
11/25/2014  04:37:00      -73.523      -31.569        0.463       29.531       23.901       13.748      872.101      571.270      189.020        0.402        0.082       80.014       14.815        0.034      331.769       -0.002      873.921
11/25/2014  04:38:00      -59.891      -14.210       -2.390       26.560       14.510       11.486      705.424      210.552      131.937        0.242        0.052       61.554       13.445        0.048      331.721       -0.082      873.947
11/25/2014  04:39:00     -100.578      -41.282        0.184       26.760       27.509       13.263      716.087      756.748      175.917        0.673        0.082      108.720       11.979        0.012      331.814        0.073      873.999
11/25/2014  04:40:00      -67.390      -16.212        4.039       25.972       22.292       14.026      674.525      496.943      196.715        0.309        0.068       69.313       12.757        0.034      331.789        0.030      874.031
11/25/2014  04:41:00      -55.879      -16.597       -0.301       26.613       14.189       12.402      708.245      201.336      153.817        0.223        0.053       58.292       12.516        0.046      331.772        0.003      874.050
11/25/2014  04:42:00      -79.771      -31.537       -5.082       24.708       24.118       11.435      610.490      581.698      130.769        0.435        0.066       85.778        6.387        0.006      331.714       -0.091      874.076
11/25/2014  04:43:00      -76.117      -36.082       -2.931       33.230       20.888       13.968     1104.254      436.300      195.108        0.442        0.087       84.236       14.692        0.030      331.680       -0.150      874.097
11/25/2014  04:44:00      -54.499      -34.424       -3.402       18.737       20.742       13.576      351.064      430.237      184.308        0.257        0.048       64.460       11.401        0.031      331.619       -0.248      874.097
11/25/2014  04:45:00      -33.582      -32.925       -4.440       21.887       12.730       13.501      479.047      162.046      182.288        0.153        0.041       47.030       11.002        0.055      331.598       -0.282      874.101
11/25/2014  04:46:00      -62.551      -39.948      -10.492       16.288       18.286       15.006      265.293      334.366      225.173        0.322        0.041       74.219        8.391        0.013      331.564       -0.340      874.110
11/25/2014  04:47:00      -96.302      -30.038      -13.243       28.674       28.228       13.816      822.211      796.796      190.876        0.608        0.090      100.878        6.539        0.004      331.470       -0.496      874.128
11/25/2014  04:48:00      -88.433      -22.405       -7.365       24.193       21.882       15.433      585.307      478.818      238.174        0.484        0.065       91.227        7.193        0.006      331.373       -0.653      874.150
11/25/2014  04:49:00      -31.029       -5.004        1.944       20.607       32.905       15.043      424.647     1082.754      226.281        0.136        0.087       31.430        6.438        0.042      331.391       -0.625      874.160
11/25/2014  04:50:00      -74.997       19.334       -7.583       41.345       28.837       21.793     1709.438      831.590      474.936        0.454        0.151       77.449       15.425        0.040      331.675       -0.157      874.168
11/25/2014  04:51:00      -70.192        7.510       -3.346       46.232       26.415       16.931     2137.374      697.726      286.670        0.406        0.156       70.592       23.832        0.114      331.706       -0.105      874.164
11/25/2014  04:52:00      -49.595        9.172       -2.760       24.680       17.564       14.893      609.125      308.489      221.796        0.185        0.057       50.436       11.178        0.049      331.607       -0.269      874.163
11/25/2014  04:53:00      -86.273       23.148       -4.075       46.430       37.711       18.398     2155.749     1422.123      338.478        0.596        0.196       89.325        8.029        0.008      331.714       -0.093      874.155
11/25/2014  04:54:00     -127.191       49.627      -18.272       45.584       44.105       20.739     2077.938     1945.239      430.107        1.171        0.223      136.530       24.625        0.033      331.835        0.107      874.149
11/25/2014  04:55:00      -97.716       31.684       -9.733       34.874       28.226       21.444     1216.218      796.731      459.852        0.656        0.124      102.724       18.009        0.031      331.720       -0.082      874.154
11/25/2014  04:56:00     -108.572       32.314      -12.893       26.707       17.473       13.880      713.269      305.315      192.642        0.710        0.061      113.279       14.176        0.016      331.831        0.100      874.164
11/25/2014  04:57:00      -70.138       26.038      -14.969       18.219       18.931       13.390      331.922      358.400      179.304        0.335        0.043       74.815       10.634        0.020      331.838        0.111      874.166
11/25/2014  04:58:00      -43.532       27.348       -5.831       19.186       18.425       13.779      368.090      339.469      189.870        0.179        0.045       51.410        9.713        0.036      331.824        0.087      874.162
11/25/2014  04:59:00      -18.584       32.951       -8.405       19.011       21.820       12.330      361.403      476.133      152.027        0.125        0.049       37.830        9.478        0.063      331.996        0.371      874.153
11/25/2014  05:00:00      -15.200      -16.429       -5.803        7.193       17.349        8.067       51.742      300.975       65.076        0.048        0.021       22.382        4.095        0.033      331.834        0.105      874.155
11/25/2014  05:01:00      -21.174      -19.743       -6.152       11.763        8.999        8.607      138.366       80.988       74.079        0.058        0.015       28.950        3.800        0.017      331.737       -0.055      874.158
11/25/2014  05:02:00      -22.371      -16.225       -8.474       15.601        7.669        8.353      243.385       58.811       69.773        0.060        0.019       27.636        5.205        0.035      331.709       -0.099      874.158
11/25/2014  05:03:00      -47.380      -10.074       -5.199       12.127        7.776        6.016      147.065       60.462       36.189        0.131        0.012       48.439        3.261        0.005      331.577       -0.319      874.174
11/25/2014  05:04:00       13.898       16.557       -2.259       26.626       11.685        7.364      708.919      136.547       54.234        0.069        0.045       21.617       11.569        0.286      331.953        0.303      874.163
11/25/2014  05:05:00       32.957       21.487        7.153        9.323       14.852        8.129       86.916      220.574       66.081        0.099        0.019       39.343        2.748        0.005      332.005        0.385      874.160
11/25/2014  05:06:00       30.568       30.204       -4.953       12.332       19.118        9.934      152.073      365.493       98.690        0.124        0.031       42.973        7.898        0.034      331.988        0.360      874.186
11/25/2014  05:07:00       35.962       22.498        8.762       25.927       17.079       17.568      672.214      291.696      308.624        0.157        0.064       42.420       12.986        0.094      331.949        0.293      874.214
11/25/2014  05:08:00       89.594       24.333        7.842       17.830       14.968       17.312      317.892      224.035      299.710        0.476        0.042       92.840       11.541        0.015      331.886        0.190      874.233
11/25/2014  05:09:00       57.289       30.604       24.662       32.615       23.495       24.461     1063.723      552.037      598.359        0.352        0.111       64.951       19.634        0.091      331.715       -0.091      874.263
11/25/2014  05:10:00       83.894       58.080        1.111       25.200       22.704       18.128      635.063      515.450      328.630        0.595        0.074      102.037       10.848        0.011      331.452       -0.524      874.290
11/25/2014  05:11:00       98.944       80.923       24.924       23.193       20.853       28.994      537.925      434.852      840.652        0.939        0.091      127.822       14.096        0.012      331.286       -0.798      874.309
11/25/2014  05:12:00       87.206       71.151       32.589       31.164       23.807       33.618      971.194      566.772     1130.162        0.820        0.133      112.549       20.369        0.033      331.190       -0.955      874.298
11/25/2014  05:13:00      105.785       57.354       17.147       25.001       21.898       22.348      625.043      479.525      499.436        0.819        0.080      120.333       17.340        0.021      331.188       -0.957      874.288
11/25/2014  05:14:00       64.180       35.307        4.184       31.310       14.861       13.975      980.298      220.835      195.290        0.339        0.070       73.251       10.775        0.022      331.229       -0.890      874.300
11/25/2014  05:15:00       17.453       13.086        4.308       12.595       10.711        7.711      158.642      114.717       59.466        0.041        0.017       21.814        6.182        0.080      331.351       -0.690      874.304
11/25/2014  05:16:00       11.414        5.399       -3.855        5.291        4.089        3.551       27.990       16.721       12.609        0.012        0.003       12.626        0.935        0.005      331.423       -0.570      874.295
11/25/2014  05:17:00       14.970        8.786       -2.870       13.106       11.795       10.568      171.768      139.115      111.672        0.037        0.021       17.358        8.389        0.234      331.487       -0.467      874.285
11/25/2014  05:18:00       -7.145      -13.538        2.111       10.361        9.723        8.292      107.343       94.533       68.756        0.025        0.014       15.308        4.914        0.103      331.547       -0.367      874.279
11/25/2014  05:19:00        1.026        2.241        7.932        4.163        6.615        4.073       17.329       43.764       16.587        0.007        0.004        2.465        4.376        3.153      331.440       -0.545      874.272
11/25/2014  05:20:00       11.591       19.004        5.893        7.218        5.058        7.427       52.106       25.582       55.162        0.033        0.007       22.260        4.486        0.041      331.574       -0.324      874.266
11/25/2014  05:21:00       17.957       24.236        2.421        6.360        6.813        7.863       40.450       46.412       61.830        0.053        0.007       30.163        4.985        0.027      331.598       -0.286      874.267
11/25/2014  05:22:00        3.562       13.256        0.475        5.796        6.066        4.259       33.598       36.801       18.142        0.014        0.004       13.726        1.590        0.013      331.603       -0.276      874.273
11/25/2014  05:23:00       19.331       25.430       -1.722        5.984        5.289        4.156       35.807       27.971       17.270        0.055        0.004       31.943        3.092        0.009      331.619       -0.249      874.266
11/25/2014  05:24:00       18.943       30.679        3.158        8.023        8.220        8.961       64.364       67.567       80.293        0.076        0.011       36.056        4.878        0.018      331.599       -0.285      874.236
11/25/2014  05:25:00       20.510       21.413       20.904       12.729       13.026        6.319      162.034      169.685       39.925        0.084        0.019       29.651        4.492        0.023      331.595       -0.288      874.205
11/25/2014  05:26:00        1.851       13.058        7.966        7.080        7.908        9.548       50.131       62.538       91.165        0.022        0.010       13.188        5.462        0.172      331.687       -0.135      874.201
11/25/2014  05:27:00       -0.782        3.526       -6.756        5.918       13.469        6.117       35.017      181.408       37.414        0.016        0.013        3.611        3.446        0.910      331.718       -0.087      874.220
11/25/2014  05:28:00       15.033       26.292       -1.414        8.772        5.595        8.347       76.940       31.303       69.668        0.055        0.009       30.286        6.670        0.049      331.787        0.027      874.245
11/25/2014  05:29:00       19.271       27.759       -0.428       10.140        8.535        8.263      102.827       72.853       68.274        0.069        0.012       33.793        5.729        0.029      331.727       -0.068      874.285
11/25/2014  05:30:00        6.775       34.660       -8.402        5.668        6.562        3.725       32.129       43.064       13.877        0.070        0.004       35.316        0.987        0.001      331.754       -0.028      874.346
11/25/2014  05:31:00        3.509       44.213       -5.393        6.399       10.126        4.474       40.947      102.533       20.016        0.108        0.008       44.352        3.815        0.007      331.810        0.064      874.378
11/25/2014  05:32:00        6.821       68.202      -10.493        5.664        9.633        6.556       32.080       92.786       42.978        0.249        0.008       68.542        3.219        0.002      331.791        0.034      874.394
11/25/2014  05:33:00        6.128       75.243      -14.875       12.525       16.990        7.162      156.865      288.652       51.299        0.321        0.025       75.492        4.204        0.003      331.849        0.129      874.394
11/25/2014  05:34:00       12.658       56.196      -11.366       14.030       17.590       10.019      196.844      309.397      100.381        0.203        0.030       57.604        9.526        0.027      331.954        0.302      874.397
11/25/2014  05:35:00       -9.363       24.528       -4.034       17.328       23.239       10.836      300.256      540.049      117.413        0.083        0.048       26.254        6.392        0.059      331.808        0.062      874.383
11/25/2014  05:36:00        0.488        8.071        3.746        8.742       11.987        5.780       76.429      143.688       33.411        0.017        0.013        8.086        5.848        0.523      331.756       -0.023      874.354
11/25/2014  05:37:00       -2.073       -4.806       -2.652        8.027        5.047        5.844       64.430       25.472       34.147        0.008        0.006        5.233        5.065        0.937      331.822        0.083      874.329
11/25/2014  05:38:00      -49.908      -17.552       -7.130       20.372       16.418        9.627      415.000      269.550       92.673        0.181        0.039       52.905       11.903        0.051      331.564       -0.342      874.317
11/25/2014  05:39:00      -61.475      -25.942       -6.612       13.508       16.390        9.636      182.463      268.648       92.846        0.252        0.027       66.724        7.873        0.014      331.416       -0.582      874.323
11/25/2014  05:40:00      -45.922      -11.068      -10.258       10.038        8.618        8.051      100.763       74.263       64.818        0.129        0.012       47.237        6.446        0.019      331.450       -0.528      874.322
11/25/2014  05:41:00      -34.088      -10.929       -4.413        8.490        5.924        3.776       72.078       35.092       14.262        0.071        0.006       35.797        2.907        0.007      331.612       -0.259      874.303
11/25/2014  05:42:00      -23.936        2.203       -5.898        4.151        3.653        4.839       17.227       13.343       23.419        0.033        0.003       24.037        4.115        0.029      331.685       -0.139      874.291
11/25/2014  05:43:00       -0.774        6.060        5.673       16.737       12.651       11.248      280.117      160.036      126.527        0.032        0.028        6.110       13.259        4.710      331.715       -0.091      874.285
11/25/2014  05:44:00       28.987       19.307        9.699       16.020       10.021        8.776      256.654      100.419       77.024        0.087        0.022       34.828        4.608        0.018      331.661       -0.178      874.298
11/25/2014  05:45:00       -8.616      -14.706        8.402       12.577       16.457       10.273      158.187      270.825      105.524        0.045        0.027       17.044        6.773        0.158      331.617       -0.253      874.325
11/25/2014  05:46:00      -24.750       -6.154       -1.580        9.810       10.940        6.747       96.240      119.676       45.528        0.046        0.013       25.503        5.955        0.055      331.504       -0.438      874.335
11/25/2014  05:47:00        7.065       22.459       10.528       23.324       16.030       14.899      544.011      256.966      221.968        0.084        0.051       23.544       17.891        0.577      331.493       -0.456      874.306
11/25/2014  05:48:00       30.515       23.098       -1.695       32.061       24.743       12.413     1027.904      612.234      154.094        0.163        0.090       38.271        8.009        0.044      331.507       -0.433      874.295
11/25/2014  05:49:00      -42.714        9.259       -6.189       34.214        9.245        7.125     1170.600       85.475       50.763        0.163        0.065       43.706        8.142        0.035      331.608       -0.266      874.331
11/25/2014  05:50:00      -60.470       -4.500       -6.675       25.719       12.330        7.886      661.464      152.019       62.187        0.230        0.044       60.637        9.901        0.027      331.323       -0.736      874.349
11/25/2014  05:51:00       -2.827       -2.402       -0.003        5.569        5.036        6.050       31.012       25.364       36.606        0.005        0.005        3.710        3.549        0.915      331.332       -0.721      874.318
11/25/2014  05:52:00      -36.730       -3.541       -5.497       17.366        6.115        8.834      301.578       37.388       78.033        0.090        0.021       36.901       10.359        0.079      331.596       -0.287      874.319
11/25/2014  05:53:00      -83.293       -9.194       -8.980       16.846       15.927        9.550      283.794      253.658       91.207        0.387        0.031       83.798        9.923        0.014      331.414       -0.588      874.351
11/25/2014  05:54:00      -22.814      -16.686       -0.132       26.298       14.172       11.371      691.600      200.834      129.304        0.091        0.051       28.265       13.128        0.216      331.170       -0.987      874.366
11/25/2014  05:55:00       -1.223       -6.674        0.899        9.756       10.111        9.826       95.170      102.235       96.549        0.017        0.015        6.786        8.405        1.534      331.349       -0.691      874.347
11/25/2014  05:56:00      -29.084        2.422        4.505       18.715        8.572        9.344      350.244       73.478       87.311        0.069        0.026       29.185        9.679        0.110      331.433       -0.556      874.336
11/25/2014  05:57:00      -63.197       -8.584       -9.396       24.399       19.959       15.143      595.332      398.351      229.318        0.269        0.061       63.778       15.344        0.058      331.398       -0.611      874.364
11/25/2014  05:58:00     -111.363      -20.590       -8.483       25.572       40.361       17.945      653.907     1629.039      322.013        0.775        0.130      113.251       12.929        0.013      331.056       -1.175      874.382
11/25/2014  05:59:00      -36.627       -0.636       -0.408       35.750       22.391       16.566     1278.069      501.340      274.420        0.170        0.103       36.632       17.259        0.222      331.037       -1.207      874.385
11/25/2014  06:00:00      -51.154       17.628       -6.710       29.329       10.057       12.102      860.187      101.152      146.455        0.204        0.055       54.106       16.194        0.090      331.212       -0.920      874.417
11/25/2014  06:01:00      -86.378        0.355      -10.223       13.897       15.216        9.938      193.123      231.535       98.772        0.404        0.026       86.378        5.742        0.004      331.246       -0.863      874.480
11/25/2014  06:02:00      -79.952       -7.440      -13.825       33.172       27.878       17.124     1100.378      777.168      293.223        0.440        0.109       80.298       14.168        0.031      331.121       -1.070      874.523
11/25/2014  06:03:00      -66.323       12.935      -10.620       36.853       26.909       20.753     1358.158      724.069      430.687        0.360        0.126       67.573       19.328        0.082      331.191       -0.954      874.549
11/25/2014  06:04:00     -111.707       -8.678      -19.339       30.590       23.849       13.368      935.741      568.774      178.714        0.731        0.084      112.044        9.520        0.007      331.104       -1.096      874.566
11/25/2014  06:05:00      -66.729       -3.075      -13.864       26.079       18.378       16.173      680.098      337.742      261.567        0.297        0.064       66.800       14.317        0.046      331.119       -1.071      874.580
11/25/2014  06:06:00      -43.617      -12.040      -10.296       14.361       15.139       10.079      206.243      229.182      101.594        0.135        0.027       45.249        7.663        0.029      331.326       -0.731      874.583
11/25/2014  06:07:00      -47.295      -21.518      -17.410       20.187       14.311       13.276      407.520      204.809      176.251        0.190        0.039       51.960        8.054        0.024      331.353       -0.685      874.584
11/25/2014  06:08:00      -81.205      -33.423      -18.149       19.623       15.617       11.528      385.073      243.897      132.893        0.440        0.038       87.814        8.629        0.010      331.188       -0.958      874.593
11/25/2014  06:09:00      -76.248      -23.389       -2.073       35.475       34.154       17.674     1258.505     1166.510      312.383        0.455        0.137       79.755       12.232        0.024      331.104       -1.095      874.593
11/25/2014  06:10:00      -41.574        5.770       -0.405       30.421       29.369       17.783      925.453      862.527      316.237        0.193        0.105       41.973       18.454        0.193      331.112       -1.084      874.580
11/25/2014  06:11:00      -66.202      -16.761       -4.895       20.879       22.876       13.396      435.932      523.297      179.443        0.291        0.057       68.290       12.434        0.033      331.184       -0.964      874.587
11/25/2014  06:12:00      -70.773      -35.096       -6.320       17.562       16.042        8.845      308.409      257.335       78.226        0.346        0.032       78.997        5.515        0.005      331.225       -0.897      874.616
11/25/2014  06:13:00      -82.816      -36.348      -11.900       26.510       17.930       12.223      702.757      321.501      149.396        0.475        0.059       90.442        5.431        0.004      331.272       -0.818      874.635
11/25/2014  06:14:00      -37.055      -37.984       -4.420       18.138       16.502       13.632      328.993      272.331      185.831        0.181        0.039       53.065        4.772        0.008      331.320       -0.739      874.639
11/25/2014  06:15:00      -47.826       -7.644       -7.562       15.684       10.834        8.967      245.998      117.385       80.411        0.142        0.022       48.433        6.426        0.018      331.360       -0.675      874.637
11/25/2014  06:16:00      -69.522      -10.835      -15.950       12.464        9.622        8.765      155.344       92.590       76.832        0.276        0.016       70.362        5.786        0.007      331.393       -0.619      874.651
11/25/2014  06:17:00      -73.394       -6.778      -12.906       16.793       14.504       13.523      281.988      210.372      182.862        0.314        0.034       73.707       10.178        0.019      331.369       -0.660      874.675
11/25/2014  06:18:00      -74.786        5.711      -10.627       12.288       12.712        8.236      150.993      161.584       67.828        0.306        0.019       75.004        3.474        0.002      331.523       -0.407      874.688
11/25/2014  06:19:00      -51.592       20.487       -9.155        8.956        6.988        5.902       80.213       48.832       34.828        0.166        0.008       55.511        4.088        0.005      331.801        0.050      874.693
11/25/2014  06:20:00      -52.157       14.610       -2.271       10.803       10.733        6.794      116.696      115.196       46.153        0.161        0.014       54.164        3.951        0.005      331.727       -0.071      874.702
11/25/2014  06:21:00      -31.384       -9.570       -3.706       15.407       11.409        5.971      237.374      130.159       35.648        0.075        0.020       32.811        3.899        0.014      331.701       -0.114      874.724
11/25/2014  06:22:00      -37.585      -19.554       -3.606       10.157        7.713        7.603      103.171       59.487       57.810        0.101        0.011       42.367        4.173        0.010      331.534       -0.391      874.757
11/25/2014  06:23:00      -31.738      -15.061       -0.275        7.157        7.199        7.045       51.227       51.821       49.638        0.069        0.008       35.131        4.955        0.020      331.453       -0.523      874.788
11/25/2014  06:24:00      -50.510       -8.794      -11.503       12.212        7.587        6.900      149.124       57.557       47.613        0.151        0.013       51.270        4.271        0.007      331.425       -0.570      874.823
11/25/2014  06:25:00      -74.469      -22.149      -13.399       12.405       12.759        8.782      153.889      162.796       77.132        0.330        0.020       77.693        2.921        0.001      331.348       -0.694      874.869
11/25/2014  06:26:00      -90.514      -26.041      -12.270       15.951       15.180       12.564      254.450      230.431      157.859        0.483        0.032       94.185        7.201        0.006      331.251       -0.852      874.910
11/25/2014  06:27:00     -120.599      -11.279      -17.827       22.119       17.560       13.875      489.264      308.348      192.509        0.799        0.050      121.125       12.626        0.011      331.161       -1.002      874.959
11/25/2014  06:28:00     -102.261      -24.007      -10.527       29.459       22.847       19.623      867.838      521.990      385.056        0.646        0.089      105.041       14.745        0.020      331.172       -0.984      874.986
11/25/2014  06:29:00     -109.005        2.896       -8.639       22.931       17.914       18.071      525.818      320.924      326.560        0.657        0.059      109.044       12.001        0.012      331.168       -0.991      874.997
11/25/2014  06:30:00      -58.384       -4.796       -3.839       14.707       18.264       12.599      216.302      333.577      158.726        0.208        0.035       58.580        8.264        0.020      331.134       -1.048      875.015
11/25/2014  06:31:00      -60.204      -16.727       -7.069        8.731       11.020        7.736       76.224      121.437       59.846        0.211        0.013       62.485        5.559        0.008      331.184       -0.965      875.035
11/25/2014  06:32:00      -47.992       -8.081      -16.008       10.563        9.606        8.599      111.583       92.281       73.946        0.145        0.014       48.668        4.059        0.007      331.318       -0.744      875.058
11/25/2014  06:33:00      -52.409      -17.071      -16.491       12.670       12.423        7.060      160.519      154.331       49.839        0.184        0.018       55.119        3.510        0.004      331.471       -0.491      875.078
11/25/2014  06:34:00      -89.343      -20.624      -14.093       15.362       14.053       11.221      235.999      197.488      125.917        0.458        0.028       91.693        6.278        0.005      331.285       -0.797      875.096
11/25/2014  06:35:00      -97.379      -22.139      -14.918       21.149       14.816        9.727      447.268      219.505       94.620        0.548        0.038       99.864        9.776        0.010      331.228       -0.892      875.109
11/25/2014  06:36:00      -73.870      -28.023      -12.182       16.036       12.125       11.232      257.156      147.014      126.148        0.346        0.027       79.007        6.208        0.006      331.309       -0.758      875.089
11/25/2014  06:37:00      -90.444      -24.248      -13.891       12.149       11.420        5.841      147.605      130.410       34.123        0.464        0.016       93.638        3.604        0.001      331.410       -0.593      875.064
11/25/2014  06:38:00      -74.036      -21.927       -8.109       14.160       11.520        7.751      200.512      132.701       60.076        0.321        0.020       77.215        3.882        0.003      331.495       -0.452      875.038
11/25/2014  06:39:00      -51.608       -5.666       -9.975       12.139        8.598        8.766      147.346       73.933       76.851        0.155        0.015       51.918        4.584        0.008      331.450       -0.529      875.021
11/25/2014  06:40:00      -47.897       -7.124      -10.454        7.962        8.170        6.715       63.393       66.751       45.089        0.131        0.009       48.424        2.697        0.003      331.459       -0.515      875.019
11/25/2014  06:41:00      -56.252       -4.984      -10.020        7.613        6.845        5.619       57.959       46.850       31.576        0.171        0.007       56.473        3.576        0.004      331.447       -0.534      875.038
11/25/2014  06:42:00      -68.705      -36.772      -17.077       14.811       17.940        7.927      219.354      321.837       62.835        0.348        0.030       77.926        3.262        0.002      331.464       -0.505      875.061
11/25/2014  06:43:00     -113.178      -41.872      -18.247       24.125       23.313       12.928      582.022      543.502      167.122        0.809        0.065      120.675        5.818        0.002      331.180       -0.970      875.103
11/25/2014  06:44:00     -150.264      -31.509      -12.786       32.571       33.091       19.205     1060.845     1095.016      368.825        1.313        0.126      153.532       14.402        0.009      331.108       -1.090      875.135
11/25/2014  06:45:00      -96.562      -28.144       -8.378       28.025       27.120       16.265      785.420      735.522      264.561        0.599        0.089      100.580       12.106        0.014      331.100       -1.103      875.163
11/25/2014  06:46:00     -104.107       -8.618       -2.993       55.649       34.009       26.592     3096.810     1156.582      707.133        0.794        0.248      104.463       28.111        0.072      331.057       -1.174      875.188
11/25/2014  06:47:00      -88.299       14.056      -12.898       42.552       32.985       22.951     1810.678     1088.033      526.729        0.579        0.171       89.411       15.362        0.030      331.114       -1.080      875.223
11/25/2014  06:48:00      -18.879        6.389      -15.492       29.239       32.551       15.141      854.909     1059.577      229.257        0.139        0.107       19.931        6.001        0.091      331.339       -0.711      875.248
11/25/2014  06:49:00      -41.175       17.365       -7.594       30.703       24.101       14.772      942.691      580.856      218.210        0.190        0.087       44.687       13.235        0.088      331.585       -0.306      875.260
11/25/2014  06:50:00      -60.248      -12.531       -4.976       18.881       28.990        9.981      356.497      840.413       99.612        0.255        0.065       61.537        8.223        0.018      331.500       -0.446      875.272
11/25/2014  06:51:00      -95.991      -20.454        4.494       44.921       48.484       26.940     2017.878     2350.697      725.752        0.737        0.255       98.146       26.482        0.073      331.403       -0.604      875.276
11/25/2014  06:52:00     -110.575       26.940      -11.504       55.708       30.909       22.787     3103.410      955.355      519.247        0.883        0.229      113.809       21.379        0.035      331.524       -0.405      875.275
11/25/2014  06:53:00      -38.663       -3.593        0.893       32.191       26.137       17.202     1036.253      683.133      295.925        0.176        0.101       38.829       14.484        0.139      331.337       -0.712      875.264
11/25/2014  06:54:00      -24.562      -24.239       -5.636       20.935       14.591       12.845      438.278      212.884      165.005        0.102        0.041       34.508        8.647        0.063      331.387       -0.631      875.256
11/25/2014  06:55:00      -50.426      -41.948       -6.375       23.754       15.355       10.775      564.269      235.784      116.095        0.263        0.046       65.592        7.505        0.013      331.394       -0.620      875.241
11/25/2014  06:56:00      -64.362      -58.773       -2.366       32.164       20.437       18.910     1034.544      417.663      357.601        0.471        0.090       87.159       16.426        0.036      331.397       -0.615      875.243
11/25/2014  06:57:00      -91.775      -38.154       -6.850       15.290       18.158       13.424      233.792      329.725      180.208        0.533        0.037       99.391        9.013        0.008      331.387       -0.630      875.238
11/25/2014  06:58:00      -71.000      -17.396      -10.893       18.826       11.234        7.919      354.418      126.213       62.716        0.300        0.027       73.101        5.923        0.007      331.469       -0.496      875.216
11/25/2014  06:59:00      -34.806      -16.453       -3.746       10.121        8.594        6.575      102.429       73.853       43.236        0.086        0.011       38.499        3.317        0.007      331.525       -0.402      875.202
11/25/2014  07:00:00      -28.455       -6.704       -6.649        9.568        5.831        4.360       91.541       34.002       19.012        0.052        0.007       29.234        4.545        0.024      331.642       -0.209      875.204
11/25/2014  07:01:00      -44.284      -16.892      -12.185        5.147        6.066        4.624       26.495       36.793       21.377        0.124        0.004       47.397        1.504        0.001      331.707       -0.103      875.205
11/25/2014  07:02:00      -52.687       -4.523       -7.476        6.153        6.543        4.564       37.863       42.810       20.835        0.148        0.005       52.880        0.992        0.000      331.703       -0.109      875.220
11/25/2014  07:03:00      -44.934        4.791      -10.049        9.672        4.954        4.725       93.540       24.538       22.324        0.114        0.007       45.189        3.279        0.005      331.808        0.062      875.245
11/25/2014  07:04:00      -14.169        0.073       -2.405       11.233        4.551        4.368      126.179       20.710       19.077        0.019        0.008       14.169        6.550        0.214      331.885        0.189      875.274
11/25/2014  07:05:00        8.311        4.707        9.595        7.587        7.188        5.932       57.569       51.671       35.183        0.016        0.007        9.551        4.280        0.201      331.879        0.177      875.308
11/25/2014  07:06:00       13.471       -0.073        0.713        6.449        6.538        7.035       41.589       42.744       49.484        0.016        0.007       13.472        3.757        0.078      331.761       -0.016      875.338
11/25/2014  07:07:00       13.047       -2.748       -9.786       15.588       12.330        7.654      242.974      152.020       58.577        0.036        0.023       13.333        4.965        0.139      331.844        0.122      875.355
11/25/2014  07:08:00      -22.346      -19.451        5.561        7.525        9.843        8.193       56.622       96.882       67.123        0.056        0.011       29.626        3.881        0.017      331.716       -0.089      875.342
11/25/2014  07:09:00      -22.698      -30.760       -6.227       10.630       13.082        8.288      112.987      171.133       68.696        0.093        0.018       38.228        6.788        0.032      331.527       -0.401      875.312
11/25/2014  07:10:00      -30.544      -25.671       -5.772        6.864        7.440        5.979       47.117       55.356       35.750        0.088        0.007       39.899        3.345        0.007      331.614       -0.258      875.272
11/25/2014  07:11:00      -34.046      -16.996       -6.359        5.075        7.891        4.099       25.757       62.269       16.799        0.080        0.005       38.052        2.299        0.004      331.685       -0.139      875.236
11/25/2014  07:12:00      -34.936       -8.732       -4.611        4.542        7.171        3.761       20.625       51.418       14.148        0.070        0.004       36.011        1.806        0.003      331.925        0.255      875.207
11/25/2014  07:13:00      -47.342       -5.141       -5.080        7.409        5.561        5.015       54.894       30.924       25.147        0.120        0.006       47.620        3.038        0.004      331.998        0.374      875.171
11/25/2014  07:14:00      -50.804      -16.720       -6.035        8.866        8.711        4.693       78.613       75.876       22.028        0.154        0.009       53.484        3.622        0.005      331.689       -0.134      875.149
11/25/2014  07:15:00      -51.910      -15.517       -6.573        5.116        8.092        5.605       26.178       65.486       31.420        0.155        0.006       54.179        3.066        0.003      331.573       -0.324      875.121
11/25/2014  07:16:00      -54.262      -27.534       -7.699        9.029       10.823        6.296       81.529      117.127       39.635        0.200        0.012       60.849        2.612        0.002      331.615       -0.255      875.109
11/25/2014  07:17:00      -51.747      -30.887        1.641       23.876       11.028       11.754      570.077      121.626      138.159        0.223        0.041       60.265       12.585        0.044      331.506       -0.436      875.097
11/25/2014  07:18:00      -65.531      -35.802       -1.972       16.212       11.215        9.993      262.837      125.779       99.853        0.303        0.024       74.673        9.457        0.016      331.539       -0.380      875.068
11/25/2014  07:19:00      -33.888      -12.421       -0.985       21.356       17.459       12.610      456.070      304.807      159.022        0.111        0.046       36.093       10.945        0.092      331.512       -0.425      875.041
11/25/2014  07:20:00      -24.444       -2.670        1.042       21.736       14.481        9.659      472.469      209.686       93.287        0.069        0.039       24.590        7.671        0.097      331.582       -0.311      875.013
11/25/2014  07:21:00      -75.856      -51.590       -1.844       32.857       34.170       15.470     1079.554     1167.599      239.311        0.545        0.124       91.737       13.731        0.022      331.533       -0.390      874.998
11/25/2014  07:22:00      -43.584      -40.419        9.947       41.962       35.034       21.830     1760.772     1227.416      476.532        0.355        0.173       59.441       26.703        0.202      331.708       -0.103      875.007
11/25/2014  07:23:00      -12.536      -16.720        7.318       24.686       35.062       15.399      609.401     1229.361      237.128        0.128        0.104       20.898       13.076        0.392      331.768       -0.004      875.005
11/25/2014  07:24:00      -26.765        1.468        1.116       27.323       12.345       18.631      746.550      152.400      347.120        0.098        0.062       26.805        8.145        0.092      331.884        0.186      875.027
11/25/2014  07:25:00      -19.549       -1.612        4.749       19.852       18.911       16.780      394.086      357.611      281.563        0.072        0.052       19.615       10.300        0.276      331.832        0.103      875.051
11/25/2014  07:26:00      -27.422      -17.269        4.322       33.791       21.306       16.631     1141.856      453.956      276.574        0.147        0.094       32.407        8.919        0.076      331.894        0.204      875.076
11/25/2014  07:27:00       12.856       17.271        4.424       17.906       10.242       10.691      320.632      104.907      114.294        0.051        0.027       21.530        5.345        0.062      331.878        0.177      875.085
11/25/2014  07:28:00      -26.540       -2.668        1.472       18.409       21.934       15.603      338.895      481.097      243.442        0.089        0.053       26.673       12.245        0.211      331.865        0.155      875.074
11/25/2014  07:29:00      -42.894      -41.297       -0.703       26.044       26.428       16.760      678.295      698.420      280.896        0.260        0.083       59.542       16.304        0.075      331.826        0.090      875.048
11/25/2014  07:30:00      -10.199      -22.459        3.811       25.022       16.450       17.184      626.087      270.619      295.305        0.091        0.060       24.666       13.611        0.304      331.903        0.218      875.013
11/25/2014  07:31:00      -39.162      -25.559        5.380       32.634       32.335       23.755     1064.955     1045.569      564.299        0.244        0.134       46.765       19.460        0.173      331.846        0.124      874.978
11/25/2014  07:32:00      -35.014      -32.479        0.643       32.576       30.727       17.844     1061.207      944.177      318.410        0.230        0.116       47.758       16.692        0.122      331.872        0.168      874.953
11/25/2014  07:33:00      -12.384       17.498        3.000       17.742       18.303       15.695      314.781      334.990      246.347        0.068        0.045       21.437        9.794        0.209      331.930        0.263      874.947
11/25/2014  07:34:00       14.782       11.320        1.646       34.664       13.089       20.544     1201.616      171.314      422.071        0.107        0.090       18.619       17.896        0.924      331.996        0.372      874.952
11/25/2014  07:35:00      -16.174        4.164       -5.578       21.200       12.276        9.007      449.456      150.706       81.118        0.050        0.034       16.702       10.784        0.417      332.023        0.415      874.950
11/25/2014  07:36:00       -6.191       10.354       23.974       10.178       13.283       11.124      103.599      176.430      123.754        0.056        0.020       12.064        8.158        0.457      332.335        0.930      874.932
11/25/2014  07:37:00       -7.011       19.186       42.665        7.575       17.764       13.693       57.378      315.542      187.503        0.140        0.028       20.427       12.109        0.351      332.378        1.002      874.924
11/25/2014  07:38:00        5.360       31.437       36.923       17.170       15.123       17.494      294.808      228.701      306.024        0.160        0.041       31.890       14.681        0.212      332.194        0.698      874.938
11/25/2014  07:39:00       18.298       33.517       29.774       34.717       22.689       28.692     1205.282      514.787      823.228        0.244        0.127       38.187       26.927        0.497      332.208        0.722      874.959
11/25/2014  07:40:00       42.941       20.673       10.090       28.464       27.691       21.921      810.195      766.802      480.538        0.221        0.103       47.658        8.160        0.029      332.167        0.653      874.993
11/25/2014  07:41:00       47.282       23.748        9.165       29.625       33.344       17.203      877.663     1111.798      295.940        0.258        0.114       52.911       16.221        0.094      332.152        0.630      875.022
11/25/2014  07:42:00       85.062       59.655        0.910       16.651       14.940       16.881      277.269      223.194      284.965        0.579        0.039      103.895        8.663        0.007      332.031        0.430      875.026
11/25/2014  07:43:00      110.835       71.143        0.431       17.438       23.870       20.369      304.084      569.781      414.882        0.932        0.064      131.703       10.309        0.006      331.973        0.332      875.016
11/25/2014  07:44:00      105.216       65.333       -1.977       27.083       24.754       21.739      733.466      612.765      472.601        0.858        0.091      123.850       13.487        0.012      332.025        0.420      875.003
11/25/2014  07:45:00      100.047       74.118        0.007       28.444       23.449       22.733      809.062      549.849      516.778        0.869        0.094      124.511       14.406        0.013      332.017        0.406      874.997
11/25/2014  07:46:00       96.842       67.993       18.975       21.427       22.404       23.139      459.125      501.946      535.410        0.793        0.075      118.327       11.474        0.009      332.021        0.413      874.997
11/25/2014  07:47:00       87.127       73.535        5.682       35.353       26.412       25.747     1249.816      697.603      662.888        0.782        0.131      114.011       14.896        0.017      331.968        0.325      875.009
11/25/2014  07:48:00       76.886       61.589        6.402       29.029       28.191       26.953      842.683      794.750      726.465        0.605        0.118       98.512       11.863        0.015      332.032        0.430      875.005
11/25/2014  07:49:00       95.772       64.530       13.377       30.584       26.064       26.592      935.357      679.337      707.146        0.792        0.116      115.483       18.605        0.026      332.003        0.384      874.996
11/25/2014  07:50:00       78.963       50.523       -2.321       28.607       27.360       20.781      818.352      748.569      431.851        0.540        0.100       93.743       13.816        0.022      331.994        0.369      875.003
11/25/2014  07:51:00       64.910       57.305       24.440       26.875       27.745       24.161      722.265      769.763      583.776        0.508        0.104       86.586       17.747        0.042      332.131        0.595      875.017
11/25/2014  07:52:00       62.175       78.434       56.524       38.437       26.357       27.337     1477.422      694.680      747.296        0.807        0.146      100.088       11.576        0.013      332.207        0.720      875.006
11/25/2014  07:53:00       40.320       61.304       50.683       44.643       27.527       31.983     1993.028      757.723     1022.887        0.586        0.189       73.375       30.435        0.172      332.295        0.865      874.985
11/25/2014  07:54:00       55.765       34.554       -8.208       38.502       33.209       22.331     1482.389     1102.867      498.687        0.373        0.154       65.603       17.932        0.075      332.238        0.771      874.998
11/25/2014  07:55:00       68.984       46.008       16.362       25.622       26.646       25.787      656.482      710.028      664.949        0.459        0.102       82.919       18.325        0.049      332.242        0.778      875.019
11/25/2014  07:56:00       35.067       41.360       23.493       41.182       25.518       26.516     1695.950      651.186      703.076        0.327        0.153       54.226       23.382        0.186      332.408        1.051      875.037
11/25/2014  07:57:00       46.711       44.095        1.719       27.454       21.918       19.106      753.742      480.399      365.047        0.286        0.080       64.236        7.433        0.013      332.366        0.983      875.039
11/25/2014  07:58:00       38.444       34.747        7.153       24.165       15.771       22.226      583.956      248.737      493.980        0.203        0.066       51.820       15.434        0.089      332.357        0.968      875.035
11/25/2014  07:59:00       17.976       17.397       -5.036       17.534        9.577       12.031      307.454       91.721      144.745        0.060        0.027       25.016        8.325        0.111      332.314        0.895      875.017
11/25/2014  08:00:00      -37.760       22.961        3.572       20.872       16.778       14.330      435.620      281.510      205.359        0.144        0.046       44.193        8.322        0.035      332.395        1.029      874.994
11/25/2014  08:01:00      -22.104       20.437       18.010       17.791       17.987       18.768      316.510      323.550      352.224        0.111        0.050       30.104        9.472        0.099      332.532        1.257      874.984
11/25/2014  08:02:00      -40.250       11.235        1.974       15.528       12.842       16.870      241.109      164.926      284.586        0.122        0.035       41.789        9.123        0.048      332.339        0.938      874.965
11/25/2014  08:03:00      -46.218       18.620       -7.478        9.266        7.890        7.219       85.863       62.253       52.119        0.137        0.010       49.828        4.293        0.007      332.247        0.787      874.936
11/25/2014  08:04:00      -55.903        7.903       -7.924       12.038        8.959        7.608      144.921       80.257       57.876        0.177        0.014       56.459        5.746        0.010      332.304        0.878      874.894
11/25/2014  08:05:00      -98.791       15.735       -6.060       34.316       16.767       10.452     1177.611      281.135      109.244        0.581        0.078      100.036       12.620        0.016      332.314        0.896      874.867
11/25/2014  08:06:00     -131.184       17.408      -15.465       19.550       25.182       12.187      382.219      634.119      148.532        0.946        0.058      132.334        9.388        0.005      332.334        0.928      874.857
11/25/2014  08:07:00     -153.566       33.378      -17.553       36.708       24.929       24.917     1347.493      621.476      620.861        1.380        0.129      157.151       20.546        0.017      332.365        0.982      874.855
11/25/2014  08:08:00     -149.095        0.779      -18.993       41.424       34.984       26.379     1715.951     1223.863      695.834        1.311        0.182      149.097       21.880        0.022      332.361        0.973      874.865
11/25/2014  08:09:00     -104.983       15.174      -21.726       41.024       43.350       16.183     1682.981     1879.210      261.899        0.777        0.191      106.074        9.594        0.008      332.406        1.049      874.867
11/25/2014  08:10:00      -67.342      -18.880       -0.289       42.869       40.595       29.710     1837.719     1647.952      882.681        0.463        0.218       69.938       31.930        0.208      332.555        1.295      874.855
11/25/2014  08:11:00      -72.504       -2.043       -5.864       34.654       35.536       22.749     1200.885     1262.796      517.526        0.414        0.149       72.533       15.149        0.044      332.553        1.290      874.863
11/25/2014  08:12:00     -106.050      -14.210      -10.784       46.947       26.944       14.896     2203.984      725.966      221.898        0.736        0.158      106.998       13.637        0.016      332.553        1.291      874.866
11/25/2014  08:13:00      -97.364      -54.656      -10.975       48.287       32.845       22.625     2331.674     1078.781      511.881        0.825        0.196      111.656        8.078        0.005      332.605        1.376      874.852
11/25/2014  08:14:00      -16.439       -4.967        1.229       33.816       40.367       23.169     1143.553     1629.476      536.809        0.180        0.165       17.173       19.053        1.231      332.769        1.647      874.858
11/25/2014  08:15:00      -61.621       31.319      -22.350       32.191       37.757       18.808     1036.249     1425.587      353.753        0.405        0.141       69.123       14.246        0.042      332.683        1.506      874.864
11/25/2014  08:16:00      -94.977      -24.228      -19.733       61.694       35.000       20.093     3806.116     1225.004      403.712        0.771        0.272       98.018       19.223        0.038      332.710        1.549      874.873
11/25/2014  08:17:00     -112.472      -39.603      -20.957       52.775       25.784       20.391     2785.156      664.819      415.791        0.926        0.193      119.241       23.436        0.039      332.680        1.500      874.874
11/25/2014  08:18:00     -134.460      -40.542      -14.240       61.448       53.358       32.187     3775.796     2847.036     1036.025        1.379        0.383      140.439       31.179        0.049      332.706        1.543      874.850
11/25/2014  08:19:00      -67.723      -10.816        0.988       51.403       40.257       23.431     2642.312     1620.596      549.015        0.476        0.241       68.581       25.061        0.134      332.836        1.758      874.840
11/25/2014  08:20:00     -142.156       -9.923      -15.854       49.782       35.845       23.478     2478.216     1284.889      551.218        1.244        0.216      142.502       25.196        0.031      332.770        1.648      874.840
11/25/2014  08:21:00      -83.620       -2.278       -4.761       41.085       28.293       18.607     1687.995      800.514      346.215        0.493        0.142       83.651        9.121        0.012      332.881        1.832      874.842
11/25/2014  08:22:00      -71.923       -3.885      -12.386       34.309       35.125       26.434     1177.091     1233.762      698.755        0.422        0.155       72.028       19.705        0.075      332.900        1.864      874.855
11/25/2014  08:23:00      -55.814       -2.954      -12.140       24.751       23.912       12.302      612.601      571.784      151.327        0.230        0.067       55.892        8.273        0.022      333.071        2.145      874.856
11/25/2014  08:24:00      -66.650        4.389       -0.845       26.603       31.322       23.693      707.700      981.059      561.342        0.336        0.113       66.794       16.757        0.063      333.050        2.111      874.855
11/25/2014  08:25:00      -56.525       54.135        0.715       34.106       52.032       27.808     1163.199     2707.307      773.264        0.538        0.232       78.266       21.419        0.075      333.200        2.358      874.847
11/25/2014  08:26:00      -25.403       27.322       -3.726       35.667       37.665       21.261     1272.150     1418.625      452.026        0.227        0.157       37.307       10.635        0.081      333.274        2.481      874.833
11/25/2014  08:27:00      -23.237       23.252        9.635       28.874       24.078       20.488      833.691      579.734      419.754        0.150        0.092       32.873       16.302        0.246      333.588        3.001      874.816
11/25/2014  08:28:00       -9.526       42.682        5.993       30.713       30.295       21.868      943.295      917.781      478.200        0.214        0.117       43.733       17.442        0.159      333.756        3.280      874.804
11/25/2014  08:29:00      -20.741       66.899       -3.225       35.667       35.824       28.030     1272.153     1283.349      785.679        0.413        0.167       70.040       24.367        0.121      333.679        3.152      874.796
11/25/2014  08:30:00      -24.082       43.432       -5.702       26.913       49.513       22.809      724.333     2451.538      520.249        0.310        0.185       49.662       25.024        0.254      333.610        3.037      874.793
11/25/2014  08:31:00      -62.219      -16.282       -9.341       37.995       37.503       16.613     1443.610     1406.461      276.007        0.367        0.156       64.314       13.205        0.042      333.429        2.738      874.794
11/25/2014  08:32:00      -32.156        3.319        3.550       28.794       11.940       15.227      829.117      142.575      231.867        0.113        0.060       32.327       15.185        0.221      333.543        2.927      874.777
11/25/2014  08:33:00       -4.932        0.888       14.514        9.675       10.120       12.684       93.609      102.413      160.883        0.030        0.018        5.011        7.708        2.366      334.247        4.094      874.774
11/25/2014  08:34:00       -9.811       39.747       -3.618       26.531       36.788       18.257      703.887     1353.368      333.310        0.204        0.120       40.940       21.231        0.269      333.888        3.498      874.779
11/25/2014  08:35:00      -39.830       24.192      -16.073       19.614       44.534       19.737      384.728     1983.298      389.556        0.259        0.138       46.601       21.843        0.220      333.569        2.968      874.789
11/25/2014  08:36:00      -19.651       14.004       -4.754       25.409       22.594       20.289      645.615      510.493      411.635        0.109        0.078       24.130       16.592        0.473      333.904        3.524      874.794
11/25/2014  08:37:00        7.757       50.509        5.997       24.141       25.916       27.247      582.796      671.652      742.395        0.232        0.100       51.101       22.741        0.198      333.994        3.676      874.802
11/25/2014  08:38:00       13.168       22.106        4.201       28.212       23.484       16.612      795.913      551.501      275.960        0.115        0.081       25.731       12.088        0.221      333.969        3.633      874.799
11/25/2014  08:39:00       29.681       33.377       -6.240       29.346       27.252       15.736      861.184      742.698      247.632        0.194        0.093       44.666       14.533        0.106      333.989        3.666      874.811
11/25/2014  08:40:00      -25.793       -8.742       12.455       19.410       15.337       13.538      376.764      235.209      183.273        0.085        0.040       27.234        7.445        0.075      333.958        3.615      874.809
11/25/2014  08:41:00      -61.492      -19.432       -8.520       22.728       15.922       11.731      516.542      253.521      137.621        0.257        0.045       64.489       13.151        0.042      333.837        3.414      874.808
11/25/2014  08:42:00      -17.924      -16.794        0.122       21.423       30.672       13.398      458.962      940.770      179.505        0.109        0.079       24.562       11.457        0.218      334.026        3.729      874.808
11/25/2014  08:43:00      -10.297      -15.996      -10.605        8.286       10.132        8.104       68.655      102.653       65.667        0.036        0.012       19.024        1.757        0.009      334.124        3.891      874.805
11/25/2014  08:44:00       18.434       27.820        0.232       21.386       23.437       14.190      457.353      549.314      201.360        0.116        0.060       33.373       10.259        0.094      334.320        4.216      874.815
11/25/2014  08:45:00       -9.615       79.965      -11.078       16.747       22.571       17.581      280.452      509.466      309.105        0.385        0.055       80.541       14.927        0.034      334.120        3.881      874.841
11/25/2014  08:46:00      -10.206        5.359       -9.493        7.993       19.894        7.857       63.882      395.753       61.734        0.037        0.026       11.528        6.630        0.331      334.319        4.214      874.876
11/25/2014  08:47:00      -33.839       -8.249       -2.968       12.922        7.126        6.240      166.972       50.776       38.936        0.074        0.013       34.830        5.401        0.024      334.132        3.904      874.909
11/25/2014  08:48:00      -35.443       -8.154       -6.113       15.439       12.638        7.944      238.374      159.712       63.113        0.091        0.023       36.369        3.440        0.009      334.133        3.904      874.907
11/25/2014  08:49:00      -17.517       -3.825        4.671       26.388       10.500       14.051      696.345      110.251      197.436        0.067        0.050       17.930       16.887        0.887      334.504        4.522      874.900
11/25/2014  08:50:00       17.625       13.988       14.378       16.901       14.319       13.445      285.644      205.041      180.777        0.069        0.034       22.501        8.005        0.127      334.743        4.917      874.907
11/25/2014  08:51:00       20.132       62.460       -1.786       29.225       27.844       28.707      854.113      775.284      824.100        0.338        0.123       65.624       21.761        0.110      334.527        4.559      874.906
11/25/2014  08:52:00       32.710       57.598        6.491       26.139       29.288       27.228      683.259      857.805      741.363        0.336        0.114       66.238       21.158        0.102      334.548        4.593      874.902
11/25/2014  08:53:00       23.832       21.932       10.417       19.946       16.465       14.522      397.853      271.103      210.887        0.102        0.044       32.388        8.156        0.063      334.628        4.725      874.920
11/25/2014  08:54:00       34.460       42.593       -5.683       17.738       26.336       19.339      314.629      693.569      373.995        0.221        0.069       54.788       16.024        0.086      334.414        4.371      874.916
11/25/2014  08:55:00       22.895       27.948       22.459       18.695       22.389       19.573      349.509      501.254      383.099        0.152        0.062       36.129       11.985        0.110      334.788        4.991      874.899
11/25/2014  08:56:00       17.763       25.259       34.369       23.717       22.611       20.053      562.492      511.268      402.110        0.181        0.074       30.880       10.119        0.107      334.748        4.924      874.902
11/25/2014  08:57:00      -10.424       -2.201       25.495       16.798       22.312       14.889      282.158      497.844      221.692        0.088        0.050       10.654       13.117        1.516      334.980        5.312      874.921
11/25/2014  08:58:00       18.602       33.655       40.108       31.007       31.359       22.544      961.456      983.368      508.221        0.277        0.123       38.454       18.334        0.227      334.895        5.170      874.931
11/25/2014  08:59:00       36.598       29.262       29.506       44.941       27.387       31.801     2019.730      750.029     1011.317        0.342        0.189       46.858       22.118        0.223      334.913        5.201      874.932
11/25/2014  09:00:00       58.529       49.140        5.222       28.701       30.197       27.995      823.738      911.882      783.736        0.419        0.126       76.422       18.288        0.057      334.780        4.977      874.928
11/25/2014  09:01:00       29.104       60.369        6.562       25.042       34.242       27.545      627.088     1172.544      758.715        0.355        0.128       67.019       21.137        0.099      334.955        5.270      874.913
11/25/2014  09:02:00       23.964       63.390       -4.642       28.375       23.270       21.963      805.140      541.480      482.363        0.322        0.091       67.769       17.277        0.065      334.894        5.168      874.904
11/25/2014  09:03:00      -14.883       11.570       -3.055       24.995       28.175       15.646      624.732      793.809      244.809        0.101        0.083       18.851        9.933        0.278      335.031        5.396      874.905
11/25/2014  09:04:00      -28.910       -3.019        4.323       24.040       14.537       16.449      577.936      211.324      270.577        0.096        0.053       29.067       16.763        0.333      335.039        5.410      874.913
11/25/2014  09:05:00       -9.724       -5.580        7.759       16.387       19.150       13.809      268.523      366.740      190.702        0.051        0.041       11.211        1.757        0.025      335.123        5.549      874.924
11/25/2014  09:06:00        3.628       13.823       17.492       13.180       19.261       14.509      173.706      370.970      210.505        0.063        0.038       14.292       14.352        1.008      335.737        6.570      874.929
11/25/2014  09:07:00       48.579       37.040       25.794       29.831       21.722       23.540      889.868      471.856      554.149        0.316        0.096       61.089       17.510        0.082      335.263        5.782      874.951
11/25/2014  09:08:00       23.174       33.513       19.745       22.659       23.460       27.973      513.431      550.360      782.473        0.195        0.092       40.745       14.641        0.129      335.376        5.968      874.965
11/25/2014  09:09:00       64.174       36.593       14.624       23.835       31.740       29.032      568.088     1007.451      842.849        0.404        0.121       73.874       16.215        0.048      335.119        5.540      874.970
11/25/2014  09:10:00       21.229        7.706      -11.414       22.899       22.453       25.766      524.374      504.124      663.901        0.117        0.085       22.584       15.772        0.488      335.261        5.777      874.963
11/25/2014  09:11:00      -24.280        8.074       -5.109       28.318       29.062       16.620      801.930      844.619      276.222        0.130        0.096       25.587       10.630        0.173      335.227        5.721      874.964
11/25/2014  09:12:00      -65.315      -27.043       -7.739       32.633       26.364       14.819     1064.922      695.041      219.588        0.352        0.099       70.692       10.587        0.022      335.004        5.352      874.962
11/25/2014  09:13:00      -31.320      -38.437        8.329       29.736       17.998       19.386      884.238      323.934      375.824        0.206        0.079       49.582       15.622        0.099      335.135        5.569      874.974
11/25/2014  09:14:00      -15.708      -50.131        7.485       34.836       23.311       16.670     1213.535      543.424      277.886        0.242        0.102       52.535       11.801        0.050      335.144        5.583      874.990
11/25/2014  09:15:00      -21.624      -57.781       -1.335       44.586       24.142       25.076     1987.891      582.820      628.790        0.350        0.160       61.695       20.836        0.114      335.214        5.698      874.999
11/25/2014  09:16:00      -50.308      -45.086       -4.379       28.460       19.622       19.304      809.986      385.030      372.649        0.307        0.078       67.555       16.307        0.058      335.253        5.763      874.990
11/25/2014  09:17:00      -51.760      -21.537      -11.839       20.961       19.328       10.592      439.350      373.570      112.195        0.210        0.046       56.062       10.768        0.037      335.210        5.692      874.978
11/25/2014  09:18:00      -20.532      -17.313       -0.482       19.660       16.402        9.266      386.512      269.029       85.857        0.073        0.037       26.857        6.414        0.057      335.341        5.911      874.972
11/25/2014  09:19:00      -21.593      -30.191       -9.692       12.460       11.930       11.047      155.244      142.317      122.027        0.095        0.021       37.118        5.536        0.022      335.238        5.738      874.981
11/25/2014  09:20:00       -2.876      -24.151       -2.675       11.457       20.355       15.469      131.254      414.343      239.279        0.069        0.039       24.322        7.222        0.088      335.461        6.109      874.987
11/25/2014  09:21:00       -5.653      -65.873       -8.358       16.663       13.405       12.878      277.669      179.705      165.848        0.253        0.031       66.115       10.137        0.024      335.249        5.755      874.976
11/25/2014  09:22:00      -10.256      -45.678       -7.601       13.945       25.117       14.169      194.475      630.888      200.752        0.164        0.051       46.815        9.414        0.040      335.410        6.024      874.987
11/25/2014  09:23:00      -17.880      -48.676        1.002       14.815       16.077       12.349      219.485      258.475      152.499        0.166        0.032       51.856        9.558        0.034      335.354        5.930      875.002
11/25/2014  09:24:00      -37.023      -48.154      -14.431       15.252       16.862       14.334      232.616      284.343      205.458        0.231        0.036       60.742        8.956        0.022      335.348        5.920      875.013
11/25/2014  09:25:00      -54.481      -80.195       -8.284       22.359       15.943       14.435      499.903      254.166      208.370        0.522        0.048       96.951       10.808        0.012      335.337        5.900      875.011
11/25/2014  09:26:00      -16.449      -23.373      -10.445       11.779       20.533       16.525      138.746      421.591      273.080        0.088        0.042       28.581       11.054        0.150      335.579        6.307      875.001
11/25/2014  09:27:00      -56.218      -65.447       -2.812       20.651       18.608       15.317      426.460      346.251      234.606        0.423        0.050       86.278       11.913        0.019      335.418        6.039      875.002
11/25/2014  09:28:00      -52.130      -47.284       -1.771       20.545       16.052       18.271      422.090      257.678      333.812        0.298        0.051       70.380       14.533        0.043      335.455        6.100      875.015
11/25/2014  09:29:00      -52.052      -65.443       -4.801       15.781       17.325       11.237      249.029      300.173      126.260        0.385        0.034       83.619       10.112        0.015      335.403        6.014      875.022
11/25/2014  09:30:00      -42.678      -70.510       -1.576       13.931       21.315       10.307      194.074      454.335      106.232        0.377        0.038       82.420        5.030        0.004      335.433        6.063      875.015
11/25/2014  09:31:00      -28.611      -11.684       -5.751        9.318       18.932        6.978       86.824      358.414       48.693        0.074        0.025       30.905        6.028        0.038      335.599        6.342      874.999
11/25/2014  09:32:00      -54.943       -9.616       -1.859       22.105       26.509       14.558      488.622      702.717      211.937        0.226        0.070       55.779        7.056        0.016      335.849        6.757      874.998
11/25/2014  09:33:00      -56.112      -62.507       -0.075       35.414       45.401       19.044     1254.143     2061.208      362.680        0.537        0.184       83.998       14.006        0.028      335.690        6.492      875.015
11/25/2014  09:34:00      -91.029      -51.321       -6.787       39.430       37.558       23.343     1554.698     1410.599      544.887        0.724        0.176      104.499       24.757        0.056      335.652        6.429      875.030
11/25/2014  09:35:00      -64.820      -77.953       -9.113       25.858       34.139       15.271      668.615     1165.451      233.213        0.621        0.103      101.382       16.198        0.026      335.591        6.326      875.042
11/25/2014  09:36:00      -74.428      -50.240       -5.371       36.106       19.031       17.560     1303.618      362.176      308.357        0.503        0.099       89.797       15.776        0.031      335.703        6.513      875.041
11/25/2014  09:37:00      -34.937      -60.931       -2.420       21.722       22.635       21.991      471.825      512.340      483.597        0.320        0.073       70.236       14.528        0.043      335.750        6.593      875.038
11/25/2014  09:38:00      -38.996      -34.093       -6.917       32.048       23.859       13.047     1027.090      569.251      170.237        0.225        0.088       51.798       14.858        0.082      335.837        6.736      875.039
11/25/2014  09:39:00      -66.367      -29.891        1.366       27.922       20.995       14.782      779.632      440.797      218.498        0.337        0.072       72.788       10.987        0.023      335.604        6.348      875.033
11/25/2014  09:40:00      -44.118      -23.117        7.926       31.933       24.563       16.088     1019.723      603.361      258.830        0.221        0.094       49.807       15.932        0.102      335.819        6.707      875.035
11/25/2014  09:41:00      -56.835      -24.066        1.319       36.402       23.158       15.483     1325.079      536.280      239.734        0.296        0.105       61.720       13.881        0.051      335.825        6.716      875.044
11/25/2014  09:42:00      -85.208      -57.559       -3.260       52.037       39.515       21.662     2707.861     1561.443      469.250        0.766        0.237      102.828       29.412        0.082      335.908        6.857      875.050
11/25/2014  09:43:00      -18.887      -46.683        2.635       32.485       37.697       29.456     1055.276     1421.044      867.672        0.294        0.167       50.360       26.912        0.286      336.086        7.151      875.052
11/25/2014  09:44:00      -36.467       13.583        1.934       47.188       33.914       30.853     2226.668     1150.190      951.917        0.292        0.216       38.914       21.689        0.311      335.982        6.978      875.047
11/25/2014  09:45:00       -8.712      -36.597       10.387       46.942       57.890       33.353     2203.575     3351.254     1112.426        0.409        0.333       37.620       35.561        0.894      336.155        7.266      875.043
11/25/2014  09:46:00       23.581      -32.842       19.101       35.084       76.031       36.959     1230.908     5780.739     1365.994        0.519        0.419       40.431       38.487        0.906      336.180        7.309      875.038
11/25/2014  09:47:00       10.801       24.053       56.752       26.876       34.393       30.197      722.303     1182.878      911.873        0.337        0.141       26.367       23.443        0.790      336.400        7.677      875.071
11/25/2014  09:48:00       10.035        4.957       47.762       29.405       50.579       35.716      864.633     2558.210     1275.659        0.355        0.235       11.193       34.918        9.732      336.437        7.738      875.103
11/25/2014  09:49:00       46.895        8.428       31.929       49.915       61.948       39.105     2491.482     3837.586     1529.220        0.557        0.393       47.646       37.565        0.622      336.189        7.322      875.098
11/25/2014  09:50:00       26.820      -16.064       57.576       47.067       83.145       55.217     2215.263     6913.108     3048.885        0.823        0.609       31.263       58.230        3.469      336.458        7.774      875.082
11/25/2014  09:51:00       56.710      -24.932       32.706       59.819       77.714       48.133     3578.305     6039.522     2316.740        0.842        0.597       61.948       55.548        0.804      336.354        7.600      875.095
11/25/2014  09:52:00       39.512       94.062       94.785       55.596       49.997       32.601     3090.967     2499.687     1062.811        1.302        0.333      102.024       26.717        0.069      336.265        7.451      875.106
11/25/2014  09:53:00       13.532       70.452       99.656       38.342       48.794       37.418     1470.089     2380.857     1400.070        1.016        0.263       71.740       25.115        0.123      336.236        7.401      875.099
11/25/2014  09:54:00       41.075       76.995       97.893       58.089       53.831       34.918     3374.348     2897.794     1219.272        1.234        0.375       87.266       31.403        0.129      336.073        7.131      875.102
11/25/2014  09:55:00       22.480       32.182       70.695       40.819       54.383       41.521     1666.202     2957.467     1723.998        0.644        0.317       39.256       39.804        1.028      336.206        7.351      875.099
11/25/2014  09:56:00       53.334      -83.749        4.674       67.768       78.528       46.297     4592.563     6166.697     2143.404        1.139        0.645       99.289       42.357        0.182      336.223        7.381      875.103
11/25/2014  09:57:00      100.493      -60.830       21.936       56.450       96.134       60.186     3186.549     9241.774     3622.324        1.516        0.803      117.470       72.202        0.378      335.878        6.805      875.109
11/25/2014  09:58:00       48.192       55.035       63.210       47.111       43.482       36.142     2219.491     1890.711     1306.268        0.738        0.271       73.153       33.836        0.214      335.991        6.993      875.123
11/25/2014  09:59:00       59.851       17.249       52.876       50.888       65.687       49.825     2589.610     4314.809     2482.504        0.803        0.469       62.287       49.420        0.630      336.167        7.286      875.144
11/25/2014  10:00:00       84.709      -29.844       16.738       50.684       75.230       36.400     2568.864     5659.609     1324.944        0.895        0.478       89.812       44.469        0.245      335.996        7.000      875.173
11/25/2014  10:01:00       17.915      -16.365       35.986       36.059       44.705       32.128     1300.233     1998.515     1032.216        0.311        0.217       24.264       33.738        1.933      336.337        7.572      875.202
11/25/2014  10:02:00       35.282       -5.929       33.526       37.365       62.278       40.744     1396.116     3878.494     1660.103        0.467        0.347       35.777       41.545        1.348      336.247        7.420      875.210
11/25/2014  10:03:00       19.291       35.521       53.182       27.403       30.973       26.240      750.926      959.328      688.531        0.343        0.120       40.422       22.416        0.308      336.234        7.398      875.209
11/25/2014  10:04:00       11.796      -22.184       20.021       26.721       41.169       18.916      714.015     1694.868      357.831        0.190        0.138       25.125       25.689        1.045      336.455        7.768      875.199
11/25/2014  10:05:00       23.193       76.438       71.801       52.273       37.194       45.078     2732.452     1383.386     2031.996        0.884        0.307       79.879       28.218        0.125      336.514        7.868      875.196
11/25/2014  10:06:00       32.276       78.317       62.046       70.084       38.325       53.915     4911.755     1468.772     2906.806        1.015        0.464       84.707       35.601        0.177      336.123        7.214      875.196
11/25/2014  10:07:00       69.211       61.451       51.052       29.947       20.551       20.450      896.836      422.342      418.218        0.645        0.087       92.555        6.312        0.005      336.153        7.263      875.201
11/25/2014  10:08:00       44.803      -59.254       27.768       64.519       86.773       43.000     4162.744     7529.617     1849.015        0.991        0.677       74.285       43.839        0.348      336.293        7.497      875.201
11/25/2014  10:09:00       57.560       64.721       69.598       69.981       64.922       42.360     4897.340     4214.885     1794.365        1.162        0.545       86.613       33.356        0.148      336.397        7.671      875.210
11/25/2014  10:10:00      114.985      101.949       71.858       66.696       40.718       41.497     4448.323     1657.927     1721.974        1.830        0.391      153.672       35.010        0.052      336.150        7.257      875.195
11/25/2014  10:11:00       76.299       80.474      108.525       88.164       82.699       63.110     7772.883     6839.157     3982.908        2.133        0.930      110.895       66.875        0.364      336.130        7.223      875.191
11/25/2014  10:12:00       51.384       80.766       88.289       69.773       55.810       54.451     4868.338     3114.812     2964.887        1.395        0.547       95.726       46.229        0.233      336.203        7.348      875.196
11/25/2014  10:13:00      186.838      120.187       43.264       54.295       45.638       50.877     2947.933     2082.846     2588.443        2.942        0.381      222.156       26.022        0.014      335.927        6.883      875.211
11/25/2014  10:14:00      109.058       85.790       56.353       69.592       47.849       51.861     4843.073     2289.482     2689.555        1.612        0.491      138.757       45.385        0.107      336.244        7.414      875.226
11/25/2014  10:15:00       31.623       74.621       93.198       55.964       57.362       40.709     3131.927     3290.382     1657.206        1.167        0.404       81.046       39.628        0.239      336.545        7.917      875.234
11/25/2014  10:16:00       90.800      115.941       99.060       68.981       51.017       49.145     4758.347     2602.735     2415.196        2.064        0.489      147.265       47.037        0.102      336.084        7.147      875.240
11/25/2014  10:17:00       65.845       84.720       78.101       60.501       54.776       40.258     3660.362     3000.391     1620.674        1.295        0.414      107.298       29.833        0.077      336.119        7.207      875.238
11/25/2014  10:18:00      100.194      105.237       57.414       84.163       42.524       63.806     7083.437     1808.271     4071.163        1.868        0.648      145.305       58.628        0.163      336.053        7.096      875.244
11/25/2014  10:19:00       55.754       41.324       52.737       49.384       51.566       43.500     2438.748     2659.009     1892.259        0.729        0.350       69.399       34.076        0.241      336.280        7.475      875.257
11/25/2014  10:20:00       29.568       25.236       63.833       59.532       90.816       53.812     3544.052     8247.635     2895.741        1.013        0.734       38.873       58.236        2.244      336.310        7.527      875.276
11/25/2014  10:21:00       52.961       -1.673       38.286       56.992       89.620       69.963     3248.067     8031.828     4894.812        1.022        0.809       52.988       75.442        2.027      336.314        7.533      875.279
11/25/2014  10:22:00       73.846      102.788      103.075       75.759       82.591       56.388     5739.363     6821.267     3179.654        2.119        0.787      126.564       56.597        0.200      336.150        7.257      875.250
11/25/2014  10:23:00       44.307       94.903       94.021       67.174       58.689       41.095     4512.387     3444.370     1688.796        1.473        0.482      104.737       27.458        0.069      336.515        7.867      875.250
11/25/2014  10:24:00       26.341       58.250       92.954       65.422       54.550       50.415     4279.999     2975.660     2541.708        1.126        0.490       63.929       46.809        0.536      336.429        7.725      875.247
11/25/2014  10:25:00      119.944       86.931       42.359       63.836       46.219       45.107     4075.033     2136.204     2034.597        1.599        0.412      148.133       25.754        0.030      336.184        7.315      875.243
11/25/2014  10:26:00      113.677       56.515       -2.744       55.084       42.767       37.594     3034.220     1828.985     1413.280        1.120        0.314      126.950       17.401        0.019      336.160        7.275      875.243
11/25/2014  10:27:00       79.443       78.329       37.763       48.661       44.621       47.683     2367.896     1991.058     2273.644        1.025        0.332      111.564       29.644        0.071      336.385        7.650      875.218
11/25/2014  10:28:00       23.351       14.397       69.373       43.044       87.580       45.142     1852.820     7670.261     2037.816        0.856        0.578       27.433       44.718        2.657      336.742        8.247      875.196
11/25/2014  10:29:00       95.283      -64.228       21.625       65.665       80.708       56.641     4311.943     6513.856     3208.243        1.385        0.702      114.909       55.695        0.235      336.278        7.471      875.209
11/25/2014  10:30:00       58.667       76.478       98.014       47.223       50.451       31.921     2229.992     2545.339     1018.938        1.234        0.290       96.388       20.693        0.046      336.333        7.564      875.209
11/25/2014  10:31:00       99.379       78.167       50.926       52.687       37.820       35.326     2775.905     1430.379     1247.918        1.202        0.273      126.437       24.084        0.036      336.181        7.310      875.207
11/25/2014  10:32:00       -3.231       37.116       72.258       28.206       53.278       33.045      795.597     2838.532     1091.967        0.567        0.236       37.256       30.374        0.665      336.609        8.025      875.206
11/25/2014  10:33:00       -3.050       27.463       66.223       28.299       35.409       20.996      800.813     1253.769      440.841        0.382        0.125       27.632       20.312        0.540      336.812        8.365      875.192
11/25/2014  10:34:00      -41.528        7.459       17.144       42.262       41.101       30.592     1786.106     1689.256      935.863        0.324        0.221       42.192       25.708        0.371      336.456        7.771      875.196
11/25/2014  10:35:00        9.702       38.818       35.563       37.175       39.209       29.280     1381.967     1537.339      857.344        0.332        0.189       40.012       16.456        0.169      337.030        8.731      875.190
11/25/2014  10:36:00       60.101       49.869       65.911       64.005       46.440       35.007     4096.658     2156.681     1225.496        0.896        0.374       78.096       26.085        0.112      336.608        8.024      875.168
11/25/2014  10:37:00      -16.431        9.460       48.488       28.133       46.155       32.265      791.486     2130.248     1041.003        0.334        0.198       18.960       28.069        2.192      336.758        8.275      875.168
11/25/2014  10:38:00        9.180      -11.635       31.964       29.338       40.108       29.274      860.718     1608.662      856.945        0.228        0.166       14.821       14.080        0.903      336.868        8.460      875.159
11/25/2014  10:39:00       16.869      -12.573       10.741       37.904       34.303       31.295     1436.731     1176.672      979.372        0.207        0.180       21.039       17.562        0.697      336.814        8.368      875.136
11/25/2014  10:40:00      -20.449        7.158       41.810       22.994       48.283       29.010      528.737     2331.227      841.606        0.296        0.185       21.666       14.145        0.426      336.986        8.656      875.127
11/25/2014  10:41:00       34.476       39.579       51.711       54.977       43.663       42.563     3022.514     1906.440     1811.582        0.608        0.337       52.489       33.969        0.419      336.688        8.159      875.120
11/25/2014  10:42:00       31.634       21.863       43.781       46.332       45.732       26.501     2146.672     2091.442      702.305        0.417        0.247       38.454       26.445        0.473      336.916        8.539      875.108
11/25/2014  10:43:00       12.743        4.205       16.406       37.544       44.395       23.668     1409.522     1970.934      560.193        0.219        0.197       13.419       13.328        0.986      336.821        8.380      875.085
11/25/2014  10:44:00       28.357       25.624       49.536       34.275       52.518       28.479     1174.790     2758.097      811.048        0.433        0.237       38.219       29.366        0.590      336.885        8.487      875.070
11/25/2014  10:45:00       30.926      -13.049       17.283       36.932       56.282       36.290     1364.005     3167.700     1316.957        0.364        0.292       33.566       39.707        1.399      336.744        8.251      875.059
11/25/2014  10:46:00       22.441      -31.570       13.115       27.092       34.619       17.198      733.985     1198.478      295.786        0.195        0.111       38.733       16.886        0.190      336.813        8.368      875.076
11/25/2014  10:47:00       -6.644        2.511       35.119        9.640       14.833       12.147       92.933      220.024      147.541        0.087        0.023        7.103       10.290        2.099      337.168        8.961      875.084
11/25/2014  10:48:00      -41.857      -43.580        2.243       49.468       60.160       21.687     2447.057     3619.195      470.331        0.510        0.327       60.425       23.781        0.155      336.707        8.190      875.067
11/25/2014  10:49:00      -87.962     -111.914       -3.193       37.312       43.521       23.884     1392.202     1894.066      570.455        1.206        0.193      142.345       15.986        0.013      336.318        7.540      875.067
11/25/2014  10:50:00      -59.274      -91.119       -4.608       46.451       38.331       22.842     2157.714     1469.254      521.767        0.799        0.207      108.702       24.936        0.053      336.537        7.905      875.058
11/25/2014  10:51:00      -52.786      -62.300        4.950       39.052       42.371       24.492     1525.058     1795.261      599.834        0.531        0.196       81.655       23.354        0.082      336.566        7.954      875.045
11/25/2014  10:52:00      -56.627      -45.135       -5.668       28.551       36.953       22.004      815.172     1365.491      484.181        0.397        0.133       72.414       17.553        0.059      336.513        7.865      875.040
11/25/2014  10:53:00      -64.496      -69.404       -1.404       34.605       50.301       19.240     1197.482     2530.224      370.183        0.654        0.205       94.745       13.064        0.019      336.608        8.025      875.020
11/25/2014  10:54:00      -75.320      -66.999        4.136       40.620       33.113       25.301     1649.967     1096.480      640.158        0.678        0.169      100.807       23.541        0.055      336.586        7.988      875.009
11/25/2014  10:55:00     -101.417      -56.966       -6.805       49.142       32.654       24.373     2414.900     1066.284      594.032        0.883        0.204      116.321       26.951        0.054      336.672        8.132      874.999
11/25/2014  10:56:00      -83.344      -69.686       -1.751       72.865       35.118       27.400     5309.378     1233.267      750.771        0.955        0.365      108.639       29.931        0.076      336.840        8.412      874.966
11/25/2014  10:57:00      -31.432     -102.629       -1.882       31.993       29.908       18.943     1023.562      894.509      358.819        0.690        0.114      107.335       11.453        0.011      336.585        7.986      874.968
11/25/2014  10:58:00      -67.711      -75.851       -5.562       23.498       14.527       12.489      552.171      211.022      155.967        0.564        0.046      101.677        9.275        0.008      336.650        8.093      874.960
11/25/2014  10:59:00      -43.023      -48.115       -6.158       25.136       14.763       16.508      631.820      217.947      272.515        0.266        0.056       64.545       10.892        0.028      336.723        8.218      874.952
11/25/2014  11:00:00      -68.852      -82.061       -6.341       26.720       25.060       20.393      713.943      628.008      415.887        0.664        0.088      107.120       19.221        0.032      336.776        8.306      874.923
11/25/2014  11:01:00      -64.800      -16.453       -7.078       27.536       26.549       14.065      758.258      704.872      197.837        0.309        0.083       66.856       14.213        0.045      336.827        8.391      874.894
11/25/2014  11:02:00      -63.136      -38.273       -0.708       38.154       28.305       19.635     1455.708      801.190      385.543        0.405        0.132       73.830        9.740        0.017      336.978        8.641      874.868
11/25/2014  11:03:00      -93.322      -60.374        0.163       73.688       39.626       31.259     5429.889     1570.252      977.129        1.016        0.399      111.149       39.148        0.124      336.979        8.645      874.858
11/25/2014  11:04:00      -78.468      -74.960       -0.252       59.194       39.820       26.039     3503.925     1585.610      678.046        0.877        0.288      108.518       19.314        0.032      336.881        8.480      874.843
11/25/2014  11:05:00     -104.795      -88.465       -2.544       31.887       45.479       26.327     1016.770     2068.316      693.086        1.130        0.189      137.142       18.807        0.019      336.927        8.556      874.794
11/25/2014  11:06:00     -109.794      -94.044       -2.148       52.836       53.136       29.758     2791.692     2823.399      885.518        1.370        0.325      144.565       27.773        0.037      337.001        8.679      874.766
11/25/2014  11:07:00      -56.318      -60.807       -7.543       49.982       34.598       24.896     2498.167     1197.052      619.834        0.562        0.216       82.880       17.426        0.044      337.164        8.954      874.757
11/25/2014  11:08:00      -54.571      -53.477      -13.746       32.540       33.772       14.781     1058.847     1140.522      218.471        0.422        0.121       76.405       10.414        0.019      337.126        8.889      874.739
11/25/2014  11:09:00      -14.912      -43.764        5.623       34.641       42.949       33.281     1199.975     1844.634     1107.614        0.316        0.208       46.234       17.121        0.137      337.749        9.934      874.721
11/25/2014  11:10:00      -12.170        6.459       24.550       34.382       29.478       27.412     1182.091      868.979      751.424        0.180        0.140       13.778       21.590        2.455      337.792       10.007      874.712
11/25/2014  11:11:00      -49.695      -31.508       -1.302       38.946       30.784       21.180     1516.786      947.685      448.607        0.319        0.146       58.842       19.767        0.113      337.383        9.320      874.699
11/25/2014  11:12:00      -63.366      -54.333       -6.882       28.342       27.108       24.422      803.241      734.835      596.442        0.457        0.107       83.470        8.052        0.009      337.171        8.965      874.671
11/25/2014  11:13:00      -46.324      -74.618      -17.323       41.662       34.014       24.625     1735.713     1156.943      606.375        0.576        0.175       87.828       20.579        0.055      337.284        9.155      874.637
11/25/2014  11:14:00      -47.162       19.585      -17.538       45.751       32.310       22.819     2093.132     1043.932      520.684        0.329        0.183       51.066       13.274        0.068      337.223        9.053      874.585
11/25/2014  11:15:00       -8.061       -2.386        1.878       22.271       25.631       24.540      496.015      656.937      602.194        0.091        0.088        8.406       21.846        6.754      337.732        9.905      874.543
11/25/2014  11:16:00      -53.511        3.918       10.837       36.967       32.672       17.898     1366.532     1067.467      320.327        0.287        0.138       53.654       18.150        0.114      337.762        9.956      874.524
11/25/2014  11:17:00      -50.201      -45.780        4.822       48.468       38.020       22.036     2349.153     1445.489      485.566        0.446        0.214       67.941       16.359        0.058      337.618        9.713      874.517
11/25/2014  11:18:00      -29.291      -45.620       -8.808       29.330       19.352       23.934      860.245      374.506      572.816        0.241        0.090       54.214       17.702        0.107      337.356        9.276      874.496
11/25/2014  11:19:00      -23.345      -65.200      -12.133       27.855       17.397       16.830      775.887      302.645      283.260        0.315        0.068       69.253        8.623        0.016      337.381        9.315      874.466
11/25/2014  11:20:00      -49.337      -66.731      -13.397       22.646       18.731       14.796      512.844      350.846      218.933        0.407        0.054       82.989        7.023        0.007      337.388        9.327      874.423
11/25/2014  11:21:00      -77.618      -81.252       -5.718       31.090       42.175       18.311      966.616     1778.697      335.275        0.787        0.154      112.367       18.941        0.028      337.452        9.435      874.370
11/25/2014  11:22:00      -45.563      -62.905        3.464       36.551       41.356       21.348     1335.959     1710.314      455.729        0.477        0.175       77.672       20.999        0.073      337.617        9.712      874.327
11/25/2014  11:23:00      -42.617      -54.825       22.795       77.261       50.736       34.634     5969.229     2574.141     1199.520        0.754        0.487       69.440       34.624        0.249      337.837       10.081      874.288
11/25/2014  11:24:00     -120.459      -73.613       -8.490       37.950       31.158       24.406     1440.192      970.797      595.651        1.150        0.150      141.171       13.995        0.010      337.511        9.533      874.277
11/25/2014  11:25:00      -38.263      -31.644        0.192       21.128       31.290       16.110      446.401      979.047      259.544        0.207        0.084       49.652       14.816        0.089      337.669        9.799      874.254
11/25/2014  11:26:00      -24.329      -15.078      -10.160       20.672       18.336       15.759      427.311      336.215      248.345        0.097        0.051       28.623       14.733        0.265      337.783        9.993      874.236
11/25/2014  11:27:00        0.090      -15.260        8.525       12.031       17.779       16.885      144.753      316.103      285.099        0.053        0.037       15.260       13.152        0.743      338.087       10.500      874.214
11/25/2014  11:28:00      -72.008      -18.793        2.367       42.466       31.880       25.331     1803.380     1016.313      641.663        0.450        0.173       74.419       22.183        0.089      337.969       10.303      874.192
11/25/2014  11:29:00      -28.433      -42.306        1.017       37.980       41.087       17.656     1442.482     1688.142      311.742        0.302        0.172       50.973       13.260        0.068      337.926       10.231      874.174
11/25/2014  11:30:00      -52.580      -17.346        6.896       36.930       31.765       22.281     1363.856     1009.015      496.459        0.299        0.143       55.367       18.986        0.118      338.213       10.712      874.147
11/25/2014  11:31:00      -63.211     -102.898       -5.575       29.206       30.076       20.093      853.007      904.589      403.710        0.839        0.108      120.763       13.855        0.013      337.760        9.952      874.134
11/25/2014  11:32:00      -56.501      -71.603       -5.623       19.406       40.580       18.537      376.585     1646.753      343.635        0.536        0.118       91.210        9.579        0.011      337.815       10.044      874.118
11/25/2014  11:33:00      -73.188      -94.620       -5.138       30.136       52.216       23.427      908.154     2726.460      548.822        0.926        0.209      119.622       24.377        0.042      337.897       10.181      874.096
11/25/2014  11:34:00      -67.229      -52.959       -1.643       28.290       36.290       21.571      800.297     1316.994      465.301        0.495        0.129       85.583       21.831        0.065      338.055       10.446      874.072
11/25/2014  11:35:00      -72.149      -30.147       -9.055       30.843       31.171       20.671      951.271      971.636      427.292        0.427        0.118       78.194       21.248        0.074      338.044       10.428      874.055
11/25/2014  11:36:00      -48.078       -2.343       -6.173       23.954       20.878       18.808      573.811      435.909      353.735        0.186        0.068       48.135       15.542        0.104      338.263       10.795      874.029
11/25/2014  11:37:00       10.898       13.443       47.589       34.248       42.377       32.543     1172.909     1795.776     1059.027        0.330        0.201       17.306       33.684        3.789      338.722       11.567      874.016
11/25/2014  11:38:00       23.174       50.440       44.042       25.240       25.806       16.332      637.043      665.944      266.724        0.330        0.078       55.509        7.473        0.018      338.551       11.282      874.008
11/25/2014  11:39:00      -55.354       -9.604        3.182       38.843       31.690       19.282     1508.772     1004.257      371.797        0.303        0.144       56.181       15.222        0.073      338.622       11.398      874.015
11/25/2014  11:40:00        3.009        0.098       21.040       16.030       12.086        9.849      256.966      146.062       97.001        0.048        0.025        3.010        6.842        5.166      339.237       12.432      873.984
11/25/2014  11:41:00      -48.887       -8.657       -5.229       23.786       16.858       15.294      565.795      284.191      233.920        0.179        0.054       49.648       13.815        0.077      338.534       11.250      873.947
11/25/2014  11:42:00       13.034      -38.336       19.861       58.655       52.165       34.508     3440.415     2721.149     1190.809        0.469        0.368       40.492       31.906        0.621      338.759       11.630      873.899
11/25/2014  11:43:00      -15.715      -30.542       11.562       37.618       33.050       29.605     1415.117     1092.273      876.476        0.235        0.169       34.348       17.604        0.263      338.811       11.716      873.897
11/25/2014  11:44:00      -45.986      -39.302       -3.336       14.710       21.711       21.887      216.394      471.373      479.051        0.242        0.058       60.492        5.215        0.007      338.559       11.293      873.907
11/25/2014  11:45:00      -53.353       -2.617        5.892       37.896       24.919       25.583     1436.107      620.951      654.486        0.280        0.136       53.417       24.922        0.218      338.702       11.535      873.889
11/25/2014  11:46:00       26.648       52.063       46.691       24.491       32.017       25.293      599.798     1025.092      639.711        0.393        0.113       58.487       18.301        0.098      338.752       11.618      873.859
11/25/2014  11:47:00       17.166       36.756       11.738       37.339       19.064       23.574     1394.208      363.418      555.716        0.205        0.116       40.567       21.496        0.281      338.715       11.556      873.847
11/25/2014  11:48:00      -49.380      -29.072      -13.588       20.222       26.538       10.908      408.917      704.249      118.988        0.235        0.062       57.302        2.529        0.002      338.501       11.197      873.839
11/25/2014  11:49:00      -82.297      -17.486       -1.625       25.930       24.567       21.404      672.363      603.537      458.153        0.441        0.087       84.134        9.914        0.014      338.516       11.221      873.818
11/25/2014  11:50:00      -25.200      -23.843      -10.729       21.231       29.037       19.132      450.769      843.148      366.032        0.149        0.083       34.692       14.956        0.186      338.762       11.634      873.789
11/25/2014  11:51:00      -25.095        1.552       20.382       44.718       33.472       38.481     1999.713     1120.399     1480.778        0.282        0.230       25.143       34.603        1.894      339.375       12.667      873.740
11/25/2014  11:52:00       28.106        3.006       37.488       31.333       25.260       51.009      981.736      638.056     2601.870        0.321        0.211       28.266       33.536        1.408      338.972       11.988      873.718
11/25/2014  11:53:00       -7.299      -25.460       -4.353       27.997       26.817       24.959      783.840      719.135      622.930        0.142        0.106       26.485       22.370        0.713      339.028       12.081      873.715
11/25/2014  11:54:00       91.936     -108.764       -9.840       62.482       50.474       36.109     3903.938     2547.612     1303.865        1.407        0.388      142.414       32.357        0.052      338.860       11.798      873.707
11/25/2014  11:55:00       86.791       26.449       54.173       63.149       70.041       59.014     3987.819     4905.726     3482.676        1.177        0.619       90.732       59.988        0.437      338.963       11.971      873.680
11/25/2014  11:56:00       48.308       19.122       56.257       67.171       68.420       56.867     4511.913     4681.345     3233.899        0.914        0.621       51.954       54.600        1.104      339.132       12.255      873.650
11/25/2014  11:57:00       89.236       81.984       73.943       64.958       68.888       59.125     4219.604     4745.507     3495.730        1.630        0.623      121.180       47.653        0.155      338.911       11.884      873.619
11/25/2014  11:58:00      123.455       80.549       47.942       77.371       63.545       47.536     5986.330     4037.963     2259.677        1.815        0.614      147.409       34.263        0.054      338.833       11.752      873.593
11/25/2014  11:59:00       30.285       86.477      108.698       64.042       59.087       32.872     4101.366     3491.329     1080.556        1.444        0.434       91.627       28.623        0.098      339.101       12.204      873.584
11/25/2014  12:00:00       37.571       88.497      111.816       52.452       41.284       22.990     2751.169     1704.346      528.548        1.336        0.249       96.142       21.254        0.049      338.953       11.955      873.571
11/25/2014  12:01:00       59.117       84.285       87.330       54.956       56.884       48.018     3020.132     3235.846     2305.688        1.339        0.428      102.951       35.084        0.116      338.955       11.958      873.554
11/25/2014  12:02:00       47.373       84.066       92.995       60.373       51.780       43.666     3644.868     2681.179     1906.724        1.309        0.412       96.495       35.838        0.138      338.894       11.855      873.526
11/25/2014  12:03:00       64.622       54.358       54.975       55.660       34.340       44.553     3098.045     1179.206     1984.978        0.821        0.313       84.444       38.258        0.205      338.892       11.853      873.504
11/25/2014  12:04:00       40.708        7.285        6.114       29.206       28.151       26.398      852.963      792.486      696.869        0.204        0.117       41.355       16.756        0.164      339.002       12.038      873.493
11/25/2014  12:05:00       22.114       23.873       26.457       23.749       26.970       22.400      564.003      727.385      501.757        0.178        0.090       32.542       12.710        0.153      339.263       12.478      873.478
11/25/2014  12:06:00       12.616       62.636       94.718       36.599       47.963       37.888     1339.472     2300.412     1435.472        0.906        0.254       63.894       29.360        0.211      339.288       12.518      873.453
11/25/2014  12:07:00       12.020       68.055       96.183       43.822       75.290       54.208     1920.347     5668.528     2938.512        1.228        0.526       69.108       58.503        0.717      339.086       12.179      873.416
11/25/2014  12:08:00       52.755       49.883       37.897       52.549       56.555       36.510     2761.386     3198.448     1332.990        0.700        0.365       72.604       24.731        0.116      339.226       12.413      873.385
11/25/2014  12:09:00       19.077       37.730       58.143       42.977       45.629       34.898     1847.043     2082.009     1217.897        0.516        0.257       42.279       27.690        0.429      339.492       12.863      873.380
11/25/2014  12:10:00       28.488       76.210       75.882       48.132       46.136       46.499     2316.645     2128.539     2162.186        0.949        0.330       81.361       34.706        0.182      339.339       12.603      873.375
11/25/2014  12:11:00       93.855       96.603       90.094       70.003       52.338       39.059     4900.409     2739.235     1525.622        1.771        0.458      134.688       34.276        0.065      339.286       12.515      873.364
11/25/2014  12:12:00       11.868       50.211       73.127       62.025       43.434       28.521     3847.105     1886.542      813.473        0.728        0.327       51.594       21.556        0.175      339.705       13.222      873.334
11/25/2014  12:13:00       14.738       32.593       63.460       39.958       48.671       29.926     1596.609     2368.849      895.538        0.508        0.243       35.771       25.030        0.490      339.754       13.305      873.321
11/25/2014  12:14:00       87.387       79.953       97.658       83.783       65.602       63.613     7019.605     4303.657     4046.675        1.946        0.768      118.444       62.273        0.276      339.127       12.245      873.323
11/25/2014  12:15:00      136.354       89.522       52.819       71.765       54.782       58.870     5150.159     3001.071     3465.660        2.050        0.581      163.116       43.763        0.072      339.195       12.363      873.329
11/25/2014  12:16:00      147.237      125.830       24.929       85.011       61.096       51.723     7226.827     3732.721     2675.286        2.588        0.682      193.680       33.197        0.029      339.010       12.047      873.323
11/25/2014  12:17:00      141.817       78.585       50.078       88.004       56.347       53.931     7744.688     3174.948     2908.543        2.131        0.691      162.135       43.468        0.072      339.181       12.338      873.299
11/25/2014  12:18:00      143.710       71.613       45.188       69.005       62.332       48.013     4761.625     3885.315     2305.278        1.939        0.548      160.564       39.484        0.060      339.259       12.468      873.269
11/25/2014  12:19:00      123.126       79.568       23.776       64.244       53.338       45.428     4127.336     2844.903     2063.741        1.554        0.452      146.598       34.112        0.054      339.248       12.450      873.246
11/25/2014  12:20:00       90.677       64.820       12.583       64.453       47.687       36.279     4154.211     2274.062     1316.153        1.016        0.387      111.463       28.590        0.066      338.945       11.940      873.247
11/25/2014  12:21:00       50.419       44.187       20.474       77.745       51.191       45.337     6044.306     2620.474     2055.404        0.781        0.536       67.041       35.346        0.278      339.229       12.419      873.252
11/25/2014  12:22:00       23.105       89.623      106.732       47.196       63.560       52.950     2227.503     4039.831     2803.696        1.451        0.454       92.553       49.186        0.282      339.262       12.475      873.251
11/25/2014  12:23:00       49.239      128.044      130.119       56.908       43.720       34.255     3238.575     1911.426     1173.383        2.104        0.316      137.185       32.970        0.058      339.027       12.080      873.240
11/25/2014  12:24:00       58.217       89.134       76.303       62.405       49.003       56.695     3894.356     2401.297     3214.310        1.333        0.475      106.462       42.789        0.162      339.124       12.242      873.240
11/25/2014  12:25:00      107.203       85.108       44.142       66.115       63.256       58.239     4371.229     4001.281     3391.829        1.622        0.588      136.879       45.680        0.111      339.072       12.155      873.238
11/25/2014  12:26:00       28.410       48.207       10.551       42.116       44.036       32.333     1773.779     1939.197     1045.397        0.400        0.238       55.956       19.105        0.117      339.284       12.513      873.224
11/25/2014  12:27:00        6.271       72.176       82.553       35.265       51.863       51.186     1243.604     2689.817     2620.033        0.931        0.328       72.448       43.274        0.357      339.399       12.706      873.205
11/25/2014  12:28:00       89.920       76.231       27.452       57.012       41.751       38.405     3250.327     1743.109     1474.958        1.056        0.323      117.885       27.656        0.055      339.315       12.562      873.198
11/25/2014  12:29:00       56.888       48.257       51.007       61.827       62.465       48.244     3822.588     3901.841     2327.445        0.911        0.503       74.599       38.311        0.264      339.542       12.947      873.207
11/25/2014  12:30:00      125.926       91.711       26.782       28.062       21.988       23.472      787.474      483.465      550.915        1.340        0.091      155.783       11.381        0.005      339.117       12.231      873.200
11/25/2014  12:31:00       44.831       63.128       30.185       45.679       30.724       43.162     2086.571      943.940     1862.993        0.590        0.245       77.427       36.159        0.218      339.334       12.596      873.197
11/25/2014  12:32:00       68.381       64.745       35.096       65.363       41.193       46.428     4272.331     1696.897     2155.560        0.911        0.406       94.169       45.165        0.230      339.510       12.893      873.180
11/25/2014  12:33:00       23.405      105.050       94.774       49.793       60.215       52.439     2479.339     3625.804     2749.832        1.471        0.443      107.626       40.245        0.140      339.624       13.084      873.156
11/25/2014  12:34:00       54.717      104.174      101.157       57.367       49.958       37.498     3290.916     2495.829     1406.063        1.563        0.360      117.669       34.223        0.085      339.582       13.014      873.144
11/25/2014  12:35:00       86.921       51.733       64.631       78.439       62.445       45.911     6152.674     3899.392     2107.825        1.328        0.608      101.151       27.680        0.075      339.307       12.550      873.135
11/25/2014  12:36:00       83.581       89.482       11.427       47.820       23.920       36.896     2286.768      572.170     1361.314        0.967        0.211      122.445       28.592        0.055      339.194       12.361      873.121
11/25/2014  12:37:00       38.933       22.260       24.858       27.805       34.697       29.238      773.101     1203.901      854.890        0.273        0.142       44.848       15.126        0.114      339.597       13.040      873.120
11/25/2014  12:38:00       76.667       59.868       23.288       50.764       40.101       36.145     2576.943     1608.062     1306.464        0.775        0.275       97.273       16.087        0.027      339.513       12.898      873.118
11/25/2014  12:39:00       14.694       72.256       85.085       32.486       36.051       25.490     1055.321     1299.639      649.763        0.784        0.150       73.735       21.258        0.083      339.622       13.080      873.095
11/25/2014  12:40:00       69.283       86.709       53.738       31.441       22.693       30.100      988.516      514.990      906.006        0.881        0.120      110.989       18.136        0.027      339.489       12.857      873.064
11/25/2014  12:41:00       34.427       80.699       78.709       31.118       26.964       17.025      968.331      727.051      289.860        0.794        0.099       87.736       14.501        0.027      339.533       12.932      873.032
11/25/2014  12:42:00       66.276       80.442       77.067       42.965       47.066       41.258     1846.008     2215.239     1702.201        1.128        0.288      104.228       31.590        0.092      339.596       13.038      873.021
11/25/2014  12:43:00       58.145       76.890       97.472       47.697       38.914       30.686     2275.036     1514.273      941.660        1.176        0.237       96.400       30.946        0.103      339.531       12.926      873.009
11/25/2014  12:44:00       94.664       69.021       49.040       30.866       27.604       32.841      952.732      761.980     1078.532        0.946        0.140      117.154       21.593        0.034      339.441       12.775      872.988
11/25/2014  12:45:00       81.750        7.876       31.645       61.649       53.889       41.622     3800.646     2904.041     1732.415        0.809        0.422       82.129       46.863        0.326      339.422       12.745      872.959
11/25/2014  12:46:00       64.938       80.357       50.556       64.688       39.712       45.513     4184.506     1577.014     2071.393        1.053        0.392      103.316       43.417        0.177      339.594       13.034      872.929
11/25/2014  12:47:00       92.956       82.141       34.981       54.087       36.806       41.243     2925.444     1354.673     1701.007        1.130        0.299      124.048       17.680        0.020      339.596       13.036      872.913
11/25/2014  12:48:00       82.053       34.894       22.015       61.376       51.877       33.667     3766.962     2691.247     1133.496        0.801        0.380       89.164       26.562        0.089      339.530       12.927      872.902
11/25/2014  12:49:00       44.974       65.395        8.198       45.825       43.422       38.930     2099.891     1885.508     1515.537        0.593        0.275       79.368       26.242        0.109      339.705       13.221      872.911
11/25/2014  12:50:00       41.273       85.390      -12.067       35.795       34.196       29.200     1281.293     1169.395      852.622        0.622        0.165       94.842       23.588        0.062      339.574       13.002      872.918
11/25/2014  12:51:00       54.963       73.692       -3.284       55.568       55.659       34.859     3087.780     3097.908     1215.160        0.793        0.370       91.932       28.595        0.097      339.776       13.341      872.897
11/25/2014  12:52:00       38.744      155.329       -4.015       37.849       54.850       40.058     1432.584     3008.499     1604.606        1.584        0.302      160.088       35.380        0.049      339.598       13.039      872.869
11/25/2014  12:53:00       50.713       70.871      -13.945       55.730       37.617       23.860     3105.805     1415.070      569.292        0.644        0.255       87.147       16.720        0.037      339.713       13.235      872.851
11/25/2014  12:54:00       30.104       39.255       42.478       38.334       50.271       41.103     1469.528     2527.188     1689.421        0.497        0.284       49.469       34.355        0.482      339.916       13.577      872.846
11/25/2014  12:55:00       38.162        2.266       29.995       46.361       55.107       36.927     2149.299     3036.809     1363.580        0.445        0.327       38.229       32.378        0.717      339.851       13.467      872.840
11/25/2014  12:56:00       81.940       17.954       -3.198       44.646       41.412       38.912     1993.263     1714.977     1514.139        0.613        0.261       83.884       26.992        0.104      339.539       12.941      872.838
11/25/2014  12:57:00       11.690       45.040      -21.288       24.185       16.808       16.189      584.923      282.505      262.068        0.187        0.056       46.533       11.861        0.065      339.606       13.055      872.824
11/25/2014  12:58:00       18.401       45.336      -17.862       19.820       25.560       11.610      392.832      653.338      134.802        0.195        0.059       48.928        4.250        0.008      339.615       13.070      872.803
11/25/2014  12:59:00       47.032       24.978       -3.793        9.583       14.814       11.884       91.840      219.446      141.231        0.165        0.023       53.253        7.926        0.022      339.501       12.876      872.764
11/25/2014  13:00:00       40.415       40.629       31.438       24.107       15.943       18.519      581.168      254.181      342.938        0.273        0.059       57.306        7.276        0.016      339.707       13.225      872.720
11/25/2014  13:01:00       -8.751       38.213       -7.427       17.477       13.754       10.066      305.434      189.163      101.332        0.109        0.030       39.202        5.121        0.017      339.712       13.234      872.697
11/25/2014  13:02:00       25.026        7.211       22.933       34.779       33.685       37.234     1209.594     1134.673     1386.378        0.247        0.187       26.044       24.389        0.877      340.040       13.786      872.706
11/25/2014  13:03:00       54.434        7.597       18.020       33.290       27.348       31.614     1108.230      747.939      999.450        0.310        0.143       54.962       20.943        0.145      339.846       13.459      872.752
11/25/2014  13:04:00       21.852       25.390       27.719       24.649       27.271       17.068      607.559      743.683      291.327        0.177        0.082       33.499       15.412        0.212      340.036       13.780      872.785
11/25/2014  13:05:00       -2.914       15.551       31.424       30.429       26.456       29.577      925.943      699.926      874.780        0.187        0.125       15.822       24.680        2.433      340.177       14.017      872.782
11/25/2014  13:06:00       33.152       15.210       63.103       34.915       59.560       36.401     1219.028     3547.403     1325.052        0.570        0.305       36.474       40.539        1.235      340.126       13.932      872.756
11/25/2014  13:07:00       38.634       79.259       86.328       32.547       29.528       17.095     1059.282      871.921      292.238        0.872        0.111       88.173       12.823        0.021      339.972       13.672      872.732
11/25/2014  13:08:00       35.060       44.400       47.791       54.077       43.526       30.854     2924.283     1894.480      951.987        0.563        0.289       56.574       27.360        0.234      339.972       13.673      872.730
11/25/2014  13:09:00       65.887       44.173       31.443       40.621       25.874       34.861     1650.049      669.461     1215.307        0.541        0.177       79.324       22.096        0.078      339.929       13.598      872.721
11/25/2014  13:10:00       47.852        0.418       12.844       19.953       19.830       13.922      398.136      393.236      193.828        0.172        0.049       47.854       11.039        0.053      339.790       13.364      872.708
11/25/2014  13:11:00       31.693      -13.892       -5.191       13.673       23.445       15.237      186.951      549.665      232.154        0.110        0.048       34.604        6.584        0.036      339.836       13.444      872.689
11/25/2014  13:12:00       45.551      -22.137       12.850       12.479       19.386       18.304      155.718      375.829      335.042        0.180        0.043       50.645        8.861        0.031      339.944       13.625      872.665
11/25/2014  13:13:00      -14.297       11.516       12.575       28.872       18.327       17.308      833.616      335.862      299.557        0.098        0.073       18.358       17.168        0.875      340.176       14.016      872.647
11/25/2014  13:14:00      -55.366      -26.390       -0.533       33.364       25.303       19.619     1113.140      640.250      384.887        0.295        0.107       61.333       12.505        0.042      339.998       13.715      872.640
11/25/2014  13:15:00      -18.010      -24.346       -4.278       20.616       24.407       19.339      425.034      595.710      373.987        0.116        0.070       30.283       17.831        0.347      340.421       14.431      872.622
11/25/2014  13:16:00       20.598       26.212       13.904       27.718       36.791       31.476      768.261     1353.579      990.749        0.221        0.156       33.337       17.567        0.278      340.340       14.293      872.601
11/25/2014  13:17:00        0.269       40.227       -9.046       21.610       14.868       11.455      467.004      221.057      131.214        0.126        0.041       40.228        5.941        0.022      339.929       13.600      872.587
11/25/2014  13:18:00      -34.694        6.378       -2.218       20.722       34.476       21.372      429.393     1188.618      456.766        0.166        0.104       35.275       16.527        0.220      340.069       13.835      872.600
11/25/2014  13:19:00      -23.593       25.746      -14.994       32.754       21.582       14.757     1072.848      465.800      217.779        0.160        0.088       34.921       18.566        0.283      340.185       14.032      872.610
11/25/2014  13:20:00      -16.990      -10.037        4.154       32.520       22.935       18.325     1057.539      526.002      335.819        0.116        0.096       19.734       15.923        0.651      340.765       15.012      872.597
11/25/2014  13:21:00      -24.053      -21.073        4.246       44.803       24.815       23.839     2007.318      615.798      568.284        0.212        0.160       31.978       21.112        0.436      340.519       14.596      872.575
11/25/2014  13:22:00      -38.692      -21.881       -6.459       22.886       17.804       17.411      523.790      317.000      303.143        0.158        0.057       44.451        2.419        0.003      340.361       14.328      872.551
11/25/2014  13:23:00      -24.383      -19.757      -13.678       27.894       13.896       10.669      778.095      193.104      113.836        0.113        0.054       31.383        5.992        0.036      340.429       14.443      872.518
11/25/2014  13:24:00       -6.181      -10.050       18.462       13.899       26.384       16.808      193.177      696.097      282.505        0.083        0.059       11.799        7.869        0.445      340.906       15.249      872.471
11/25/2014  13:25:00       -0.161      -41.061       16.340       22.767       36.879       23.518      518.357     1360.083      553.089        0.219        0.122       41.061       18.487        0.203      340.761       15.005      872.438
11/25/2014  13:26:00       -8.598       27.329        8.075       22.354       23.398       17.707      499.716      547.469      313.529        0.112        0.068       28.650       12.252        0.183      340.569       14.680      872.425
11/25/2014  13:27:00        8.286      -36.063       10.450       38.157       54.198       29.046     1455.927     2937.423      843.696        0.336        0.262       37.002       26.244        0.503      340.565       14.674      872.411
11/25/2014  13:28:00       25.519       -2.955       -8.889       20.830       29.726       17.348      433.877      883.655      300.963        0.118        0.081       25.690        9.289        0.131      340.317       14.254      872.395
11/25/2014  13:29:00      -36.884       29.387      -26.471       28.543       30.031       21.745      814.703      901.835      472.847        0.256        0.109       47.160       21.225        0.203      340.297       14.221      872.378
11/25/2014  13:30:00        2.705       70.217      -18.229       25.797       12.436       16.603      665.495      154.666      275.662        0.318        0.055       70.270       11.999        0.029      340.189       14.038      872.364
11/25/2014  13:31:00       -5.763       61.064      -15.574       27.714       24.615       12.049      768.046      605.918      145.172        0.276        0.076       61.335       12.379        0.041      340.273       14.180      872.350
11/25/2014  13:32:00       39.287        9.894        4.415       22.352       23.488       19.876      499.611      551.675      395.047        0.155        0.072       40.514       15.325        0.143      340.339       14.290      872.343
11/25/2014  13:33:00       13.736       36.898       60.705       33.608       44.447       30.441     1129.478     1975.504      926.648        0.463        0.202       39.371       27.770        0.498      340.640       14.801      872.308
11/25/2014  13:34:00       20.225       17.899       40.688       32.465       54.470       51.948     1054.005     2966.948     2698.552        0.455        0.336       27.008       47.515        3.095      340.593       14.721      872.284
11/25/2014  13:35:00       33.964      -55.913        1.369       29.541       34.470       25.202      872.698     1188.152      635.136        0.349        0.135       65.420       20.092        0.094      340.512       14.583      872.271
11/25/2014  13:36:00       -9.849        6.225       20.071       18.497       25.650       14.279      342.123      657.936      203.899        0.087        0.060       11.651       16.012        1.889      340.945       15.317      872.259
11/25/2014  13:37:00       -1.412      -33.704       12.485       41.833       30.310       24.446     1749.997      918.686      597.596        0.228        0.163       33.733       23.338        0.479      340.874       15.196      872.272
11/25/2014  13:38:00       -7.320      -47.262       11.947       46.810       35.557       26.233     2191.214     1264.327      688.147        0.329        0.207       47.826       25.080        0.275      340.835       15.130      872.288
11/25/2014  13:39:00      -47.598      -39.903        8.207       46.649       34.520       20.028     2176.163     1191.662      401.103        0.385        0.188       62.111       13.999        0.051      340.575       14.690      872.279
11/25/2014  13:40:00      -43.995      -15.494       -2.391       29.190       16.670       14.364      852.032      277.884      206.338        0.176        0.067       46.643        8.235        0.031      340.707       14.913      872.268
11/25/2014  13:41:00      -30.698      -17.380       21.956       23.699       19.846       14.584      561.650      393.865      212.687        0.145        0.058       35.277        7.557        0.046      341.018       15.439      872.264
11/25/2014  13:42:00      -32.494      -12.224       17.367       25.894       30.380       21.767      670.517      922.954      473.801        0.179        0.103       34.717       21.489        0.383      340.922       15.278      872.248
11/25/2014  13:43:00      -27.369      -27.278        9.481       44.963       28.980       17.662     2021.699      839.866      311.936        0.238        0.159       38.641       18.455        0.228      340.921       15.276      872.252
11/25/2014  13:44:00      -44.483       -9.414        7.688       58.348       27.756       22.261     3404.473      770.398      495.543        0.340        0.234       45.468       27.148        0.357      340.854       15.163      872.233
11/25/2014  13:45:00        6.008       19.607       29.974       37.457       35.264       28.359     1403.035     1243.526      804.222        0.238        0.173       20.507       18.767        0.837      341.154       15.669      872.201
11/25/2014  13:46:00       28.471      -97.446       -3.344       38.495       44.259       24.792     1481.848     1958.837      614.632        0.719        0.203      101.520       24.876        0.060      340.765       15.013      872.188
11/25/2014  13:47:00       88.587      -69.557      -18.866       27.125       24.671       18.469      735.782      608.659      341.100        0.736        0.084      112.632        8.868        0.006      340.519       14.595      872.204
11/25/2014  13:48:00       23.004      -11.827       23.420       22.880       36.026       23.390      523.480     1297.878      547.083        0.179        0.118       25.866       21.500        0.691      340.811       15.090      872.195
11/25/2014  13:49:00       -3.002       26.647       26.356        6.764       12.461       21.347       45.750      155.276      455.705        0.104        0.033       26.815       13.127        0.240      340.880       15.205      872.185
11/25/2014  13:50:00       23.097       24.584        9.059       22.748       15.147       11.451      517.473      229.434      131.129        0.105        0.044       33.732        6.349        0.035      340.706       14.912      872.167
11/25/2014  13:51:00       27.193        4.385       10.724       35.396       18.903       13.810     1252.863      357.308      190.715        0.134        0.090       27.544       16.045        0.339      340.906       15.251      872.173
11/25/2014  13:52:00       82.443       21.917        0.044       30.775       36.212       21.744      947.122     1311.330      472.807        0.500        0.137       85.307       14.046        0.027      340.735       14.961      872.171
11/25/2014  13:53:00       56.152       23.537       17.403       38.408       40.285       24.141     1475.175     1622.844      582.779        0.384        0.184       60.886       18.238        0.090      340.945       15.316      872.180
11/25/2014  13:54:00       75.509       22.593       36.240       45.488       39.629       40.567     2069.134     1570.430     1645.646        0.640        0.264       78.816       34.959        0.197      340.728       14.948      872.190
11/25/2014  13:55:00       80.687       60.128       37.320       46.850       29.378       41.740     2194.930      863.072     1742.249        0.816        0.240      100.627       29.865        0.088      340.763       15.008      872.183
11/25/2014  13:56:00       88.879       44.323       19.053       37.837       30.089       25.808     1431.673      905.352      666.039        0.661        0.150       99.317        7.997        0.006      340.831       15.124      872.164
11/25/2014  13:57:00       60.787       59.387       56.275       26.943       25.278       26.801      725.941      638.966      718.297        0.624        0.104       84.982        7.520        0.008      340.839       15.135      872.140
11/25/2014  13:58:00       37.161       30.228       28.613       31.231       16.485       22.901      975.377      271.761      524.473        0.244        0.089       47.903       16.060        0.112      340.864       15.180      872.127
11/25/2014  13:59:00       14.993      -23.607       10.453       49.021       39.636       21.898     2403.044     1570.978      479.540        0.267        0.223       27.966       24.360        0.759      341.137       15.642      872.123
11/25/2014  14:00:00       60.538      -66.367        4.518       46.043       43.826       28.105     2119.948     1920.752      789.895        0.646        0.242       89.830       28.234        0.099      340.989       15.391      872.127
11/25/2014  14:01:00       81.171      -89.855      -11.474       34.139       42.008       23.388     1165.442     1764.634      546.992        0.913        0.174      121.089       18.407        0.023      340.863       15.177      872.113
11/25/2014  14:02:00       47.178      -84.152      -13.040       25.056       23.467       20.815      627.788      550.716      433.253        0.554        0.081       96.475       14.023        0.021      340.761       15.005      872.107
11/25/2014  14:03:00       11.877      -45.123        0.988       25.292       31.227       23.826      639.684      975.136      567.669        0.218        0.109       46.660       16.887        0.131      341.151       15.666      872.099
11/25/2014  14:04:00       72.695      -81.664       -4.587       52.669       42.749       24.007     2774.043     1827.518      576.326        0.858        0.259      109.332       23.076        0.045      340.986       15.386      872.073
11/25/2014  14:05:00       80.980      -96.891       -4.478       42.249       47.072       35.077     1785.019     2215.795     1230.385        1.060        0.262      126.276       32.881        0.068      340.915       15.265      872.051
11/25/2014  14:06:00       84.540     -131.633      -21.405       30.946       30.505       21.154      957.683      930.528      447.499        1.363        0.117      156.443       17.873        0.013      340.732       14.956      872.053
11/25/2014  14:07:00       80.634     -105.498      -16.342       38.011       40.888       24.628     1444.807     1671.843      606.550        1.081        0.186      132.784       14.765        0.012      340.867       15.185      872.064
11/25/2014  14:08:00       11.401      -44.648        9.093       18.686       32.862       16.664      349.183     1079.899      277.673        0.196        0.085       46.080       14.862        0.104      340.972       15.363      872.088
11/25/2014  14:09:00       12.560       16.120       20.281       13.123       27.318       21.565      172.206      746.287      465.046        0.111        0.069       20.436       21.018        1.058      341.155       15.671      872.093
11/25/2014  14:10:00       16.339      -29.397       -0.739       32.645       22.353       17.142     1065.682      499.655      293.859        0.150        0.093       33.633       15.795        0.221      341.198       15.745      872.109
11/25/2014  14:11:00       35.699      -26.032       -3.621       23.435       14.809       22.559      549.200      219.317      508.902        0.162        0.064       44.183       16.147        0.134      340.955       15.334      872.126
11/25/2014  14:12:00       22.484       30.994       20.610       14.331       17.935       17.642      205.381      321.680      311.230        0.136        0.042       38.290       12.870        0.113      341.014       15.433      872.122
11/25/2014  14:13:00       38.983       23.294       10.048       24.201       17.857       15.701      585.703      318.873      246.511        0.166        0.058       45.412       10.216        0.051      340.945       15.315      872.096
11/25/2014  14:14:00       11.863       56.920      -10.769       23.283       18.868       13.642      542.092      355.998      186.100        0.229        0.054       58.143       10.457        0.032      340.870       15.190      872.069
11/25/2014  14:15:00       -8.525       33.946       -7.227       39.217       17.770       18.307     1537.937      315.756      335.143        0.173        0.109       35.000       20.054        0.328      340.919       15.272      872.043
11/25/2014  14:16:00        0.810       26.834        3.984       36.637       17.984       16.737     1342.290      323.437      280.118        0.134        0.097       26.846       14.807        0.304      341.163       15.684      872.015
11/25/2014  14:17:00       13.800        0.802       -3.497       12.694       21.339       12.144      161.133      455.357      147.465        0.048        0.038       13.823       10.344        0.560      341.103       15.584      871.996
11/25/2014  14:18:00       11.452        5.861       18.227       17.983       20.198       17.871      323.375      407.966      319.366        0.077        0.053       12.865       15.928        1.533      341.411       16.104      871.977
11/25/2014  14:19:00        3.703       20.209       36.276       25.857       28.726       23.484      668.605      825.204      551.500        0.189        0.102       20.546       22.284        1.176      341.432       16.140      871.963
11/25/2014  14:20:00       -2.815       -1.552       12.817       11.164       13.491       16.197      124.639      182.020      262.345        0.037        0.028        3.215        8.920        7.700      341.772       16.717      871.952
11/25/2014  14:21:00       -4.565       13.460       19.644       25.172       22.218       16.017      633.647      493.650      256.536        0.099        0.069       14.213       20.356        2.051      341.362       16.021      871.961
11/25/2014  14:22:00        4.290       21.217       29.931       12.012       14.942       20.109      144.295      223.268      404.368        0.107        0.039       21.647       13.556        0.392      341.441       16.155      871.967
11/25/2014  14:23:00       51.851       49.574       17.664       36.274       28.949       26.571     1315.817      838.066      706.024        0.416        0.143       71.737       24.006        0.112      341.239       15.814      871.958
11/25/2014  14:24:00       97.673       51.625       -0.485       34.769       29.346       28.453     1208.874      861.214      809.581        0.754        0.144      110.477        9.312        0.007      341.076       15.538      871.938
11/25/2014  14:25:00       76.187       58.808       21.199       42.395       33.037       32.503     1797.325     1091.465     1056.467        0.683        0.197       96.244       22.282        0.054      341.067       15.523      871.901
11/25/2014  14:26:00       77.168       61.959        8.083       43.560       20.135       22.694     1897.509      405.411      515.014        0.634        0.141       98.964       13.870        0.020      341.109       15.594      871.882
11/25/2014  14:27:00       56.684       32.073        9.232       34.848       28.860       24.498     1214.390      832.918      600.138        0.349        0.132       65.128       16.354        0.063      341.157       15.675      871.879
11/25/2014  14:28:00       34.901       48.961       -2.986       24.881       25.750       18.860      619.063      663.070      355.707        0.263        0.082       60.127       12.644        0.044      341.141       15.646      871.895
11/25/2014  14:29:00       15.558       60.510      -13.550       20.753       26.781       19.255      430.707      717.209      370.768        0.280        0.076       62.478        9.901        0.025      341.130       15.630      871.892
11/25/2014  14:30:00       51.178       37.503       -0.029       32.848       30.540       25.003     1078.987      932.670      625.135        0.333        0.132       63.448       18.655        0.086      341.152       15.666      871.883
11/25/2014  14:31:00       71.245       35.435        5.578       24.826       19.939       19.449      616.348      397.569      378.255        0.388        0.070       79.571        6.647        0.007      341.126       15.623      871.883
11/25/2014  14:32:00       84.583       24.324        8.852       30.184       26.212       28.895      911.074      687.056      834.914        0.513        0.122       88.011       13.503        0.024      341.183       15.720      871.882
11/25/2014  14:33:00       32.070       25.945       16.572       39.981       29.616       25.166     1598.507      877.095      633.336        0.254        0.155       41.250       17.952        0.189      341.345       15.994      871.886
11/25/2014  14:34:00       53.734       54.866       10.693       35.040       20.133       21.594     1227.826      405.343      466.322        0.406        0.105       76.796       10.686        0.019      341.172       15.701      871.889
11/25/2014  14:35:00       29.125       46.031       -6.998       26.909       23.457       19.199      724.079      550.227      368.613        0.233        0.082       54.471       12.234        0.050      341.219       15.782      871.893
11/25/2014  14:36:00       32.634       24.834       -0.030       16.648       21.702       17.518      277.167      470.971      306.866        0.137        0.053       41.008       11.182        0.074      341.306       15.927      871.898
11/25/2014  14:37:00       83.793       43.726       16.595       23.482       19.639       24.065      551.410      385.672      579.145        0.536        0.076       94.515        9.656        0.010      341.242       15.820      871.897
11/25/2014  14:38:00       55.772       44.816       -0.205       23.287       18.042       13.711      542.299      325.510      188.004        0.309        0.053       71.547       12.464        0.030      341.225       15.790      871.896
11/25/2014  14:39:00       32.932       33.544       -1.608       22.756       26.400       19.586      517.849      696.984      383.594        0.191        0.080       47.007       13.389        0.081      341.316       15.945      871.901
11/25/2014  14:40:00       29.976       -8.249       11.147       21.869       25.424       18.003      478.248      646.391      324.107        0.127        0.072       31.091       12.888        0.172      341.377       16.049      871.911
11/25/2014  14:41:00       48.731       40.852        1.600       40.782       31.094       20.363     1663.156      966.857      414.646        0.354        0.152       63.589       10.397        0.027      341.277       15.876      871.910
11/25/2014  14:42:00       27.284       49.311       -2.593       15.804       17.300       16.553      249.759      299.277      274.007        0.200        0.041       56.356       11.740        0.043      341.248       15.827      871.911
11/25/2014  14:43:00       23.816       33.544       -3.680       15.663       14.630       11.621      245.341      214.034      135.041        0.115        0.030       41.139        9.961        0.059      341.307       15.930      871.913
11/25/2014  14:44:00       24.562       25.116        9.517       20.972       13.508       12.370      439.825      182.459      153.018        0.105        0.039       35.130       10.610        0.091      341.356       16.012      871.904
11/25/2014  14:45:00       26.528       52.573       46.158       23.368       23.331       17.392      546.052      544.339      302.481        0.350        0.070       58.887       10.430        0.031      341.445       16.163      871.897
11/25/2014  14:46:00       39.668      -21.631       28.060       42.258       53.058       38.571     1785.745     2815.132     1487.703        0.446        0.304       45.182       40.938        0.821      341.503       16.260      871.892
11/25/2014  14:47:00        8.591       10.762       25.658       21.574       27.250       15.913      465.417      742.589      253.222        0.115        0.073       13.770       17.737        1.659      341.589       16.407      871.897
11/25/2014  14:48:00        7.759      -60.442        1.493       23.973       30.796       13.030      574.724      948.401      169.790        0.270        0.085       60.938       14.467        0.056      341.463       16.194      871.892
11/25/2014  14:49:00       32.259      -33.731        8.730       26.354       38.725       21.651      694.549     1499.598      468.755        0.246        0.133       46.674       25.795        0.305      341.680       16.561      871.882
11/25/2014  14:50:00       23.375       20.029        5.285       22.133       13.638       18.983      489.860      185.997      360.363        0.101        0.052       30.782        8.672        0.079      341.480       16.222      871.886
11/25/2014  14:51:00       -0.426      -19.023        9.170       17.524       34.076       16.418      307.092     1161.148      269.552        0.109        0.087       19.027       20.498        1.161      341.709       16.611      871.897
11/25/2014  14:52:00       21.988      -60.442        2.074       26.320       25.713       22.195      692.749      661.156      492.636        0.299        0.092       64.317       14.806        0.053      341.614       16.449      871.888
11/25/2014  14:53:00       16.975      -27.892       15.062       24.850       42.001       20.717      617.522     1764.107      429.193        0.205        0.141       32.651       23.362        0.512      341.699       16.593      871.881
11/25/2014  14:54:00       37.108       29.370       16.947       32.292       23.126       24.981     1042.772      534.797      624.062        0.236        0.110       47.324       18.151        0.147      341.502       16.259      871.861
11/25/2014  14:55:00       37.204       10.102        5.451       35.385       31.240       22.100     1252.119      975.957      488.428        0.212        0.136       38.551       14.118        0.134      341.617       16.453      871.850
11/25/2014  14:56:00       98.974       51.731       18.204       29.810       25.149       24.881      888.630      632.491      619.079        0.747        0.107      111.678       18.601        0.028      341.515       16.280      871.852
11/25/2014  14:57:00       84.677       51.889       15.295       27.755       14.230       16.934      770.335      202.497      286.776        0.568        0.063       99.311        4.484        0.002      341.442       16.157      871.851
11/25/2014  14:58:00       29.364       48.427       -3.249       20.971       17.471       14.623      439.781      305.220      213.823        0.209        0.048       56.634       11.127        0.039      341.533       16.312      871.848
11/25/2014  14:59:00       46.082       19.306       11.396       25.106       33.256       19.727      630.317     1105.991      389.152        0.238        0.106       49.963        9.305        0.035      341.555       16.349      871.850
11/25/2014  15:00:00       39.694       24.349       14.960       30.094       19.665       18.210      905.624      386.712      331.617        0.201        0.081       46.567        9.392        0.041      341.582       16.394      871.853
11/25/2014  15:01:00       51.163       30.310       10.310       23.031       28.627       24.546      530.416      819.525      602.500        0.280        0.098       59.467       13.319        0.050      341.567       16.370      871.859
11/25/2014  15:02:00       60.077      -26.647       13.945       24.111       27.727       19.954      581.346      768.769      398.173        0.313        0.087       65.721        9.867        0.023      341.490       16.238      871.865
11/25/2014  15:03:00       23.735       13.724        7.736       22.388       10.202       11.942      501.221      104.082      142.611        0.078        0.037       27.417        9.197        0.113      341.583       16.396      871.870
11/25/2014  15:04:00       31.664       45.985       28.081       34.072       24.629       21.726     1160.901      606.598      472.031        0.307        0.112       55.832       23.827        0.182      341.696       16.589      871.868
11/25/2014  15:05:00        8.146        9.092        9.614       18.053       21.667       16.367      325.893      469.456      267.885        0.065        0.053       12.207       11.339        0.863      341.807       16.777      871.864
11/25/2014  15:06:00       28.225       26.495       -2.700       40.689       30.933       19.073     1655.620      956.829      363.783        0.224        0.149       38.712       17.020        0.193      341.629       16.474      871.855
11/25/2014  15:07:00       34.467       37.732       -4.075       25.532       35.706       19.987      651.905     1274.919      399.481        0.248        0.116       51.105       19.028        0.139      341.548       16.337      871.866
11/25/2014  15:08:00       37.864       36.647        1.490       30.141       29.534       21.062      908.483      872.248      443.590        0.250        0.111       52.695       19.896        0.143      341.551       16.341      871.865
11/25/2014  15:09:00       38.711       34.248       -5.178       38.216       16.333       15.991     1460.478      266.777      255.704        0.234        0.099       51.686       15.500        0.090      341.519       16.287      871.871
11/25/2014  15:10:00       77.056       44.017        5.634       28.021       26.163       18.189      785.203      684.500      330.855        0.485        0.090       88.742        8.538        0.009      341.570       16.375      871.866
11/25/2014  15:11:00       56.664       41.847        3.254       27.798       19.139       14.499      772.736      366.293      210.226        0.316        0.067       70.441        6.324        0.008      341.593       16.414      871.871
11/25/2014  15:12:00       42.018       18.981       13.990       36.158       25.275       17.868     1307.420      638.834      319.253        0.229        0.113       46.107       16.186        0.123      341.578       16.388      871.871
11/25/2014  15:13:00       33.838       54.262       48.612       35.781       23.181       21.993     1280.277      537.363      483.688        0.438        0.115       63.948       23.048        0.130      341.546       16.334      871.861
11/25/2014  15:14:00       14.277       79.105       83.100       29.584       25.849       23.862      875.227      668.182      569.412        0.774        0.106       80.383       22.380        0.078      341.631       16.478      871.849
11/25/2014  15:15:00       21.745       -6.254       21.809       21.590       41.733       25.197      466.128     1741.644      634.885        0.191        0.142       22.627       29.083        1.652      341.658       16.524      871.849
11/25/2014  15:16:00        9.655      -23.345       -6.627       11.623       16.365        9.316      135.089      267.826       86.789        0.059        0.024       25.263        9.631        0.145      341.683       16.566      871.860
11/25/2014  15:17:00       42.041       -4.795        2.311       29.337       16.551       10.411      860.671      273.942      108.389        0.152        0.062       42.314        6.290        0.022      341.740       16.664      871.866
11/25/2014  15:18:00       48.992       -3.624       -6.315       20.643       18.844       11.848      426.124      355.094      140.374        0.169        0.046       49.126       11.483        0.055      341.667       16.540      871.874
11/25/2014  15:19:00       24.826       25.039       20.530       21.720       22.469       32.024      471.758      504.867     1025.526        0.183        0.100       35.260       22.152        0.395      341.738       16.658      871.877
11/25/2014  15:20:00       13.608       47.803       58.614       35.504       43.788       28.456     1260.535     1917.347      809.716        0.495        0.199       49.702       30.739        0.383      341.695       16.585      871.891
11/25/2014  15:21:00       47.438       38.543       31.306       48.547       25.888       21.492     2356.834      670.174      461.921        0.410        0.174       61.122       21.302        0.121      341.645       16.501      871.896
11/25/2014  15:22:00       42.552       23.474       15.096       38.073       30.946       18.510     1449.587      957.633      342.628        0.267        0.137       48.598       18.558        0.146      341.612       16.444      871.895
11/25/2014  15:23:00       13.694        5.651       -0.931       18.557       13.189       11.153      344.347      173.941      124.378        0.043        0.032       14.814       12.029        0.659      341.695       16.586      871.886
11/25/2014  15:24:00        6.822      -24.149        8.372       20.968       33.069       18.453      439.661     1093.563      340.516        0.129        0.094       25.094       14.200        0.320      341.745       16.672      871.889
11/25/2014  15:25:00       27.814      -52.916        5.542       40.339       39.139       23.560     1627.260     1531.900      555.091        0.366        0.186       59.781       26.102        0.191      341.840       16.830      871.885
11/25/2014  15:26:00       31.927      -37.971       -6.270       31.169       24.297       21.027      971.478      590.355      442.138        0.225        0.100       49.610       12.285        0.061      341.731       16.647      871.892
11/25/2014  15:27:00        6.570        1.426       -6.355        9.206        9.331        8.433       84.756       87.072       71.117        0.016        0.012        6.723        2.480        0.136      341.843       16.838      871.897
11/25/2014  15:28:00        4.481       10.615        3.061        5.407        9.486       11.071       29.232       89.981      122.563        0.019        0.012       11.522        5.702        0.245      341.881       16.901      871.916
11/25/2014  15:29:00        3.616       -0.283       -1.172       17.253        8.740        7.841      297.669       76.383       61.479        0.022        0.022        3.627        4.449        1.505      341.912       16.954      871.938
11/25/2014  15:30:00       29.981      -20.571       -4.145       18.002       17.996        9.803      324.077      323.840       96.107        0.104        0.037       36.360        4.059        0.012      341.762       16.701      871.953
11/25/2014  15:31:00       15.071       -9.286        4.882       21.576       21.659       14.371      465.515      469.114      206.519        0.074        0.057       17.702       12.365        0.488      341.800       16.764      871.949
11/25/2014  15:32:00       13.634      -13.290       16.763       25.565       29.233       17.874      653.546      854.577      319.468        0.124        0.091       19.040       19.942        1.097      341.806       16.775      871.943
11/25/2014  15:33:00       37.540      -59.507        1.477       20.453       19.008       17.157      418.307      361.293      294.362        0.301        0.054       70.359       13.350        0.036      341.825       16.807      871.932
11/25/2014  15:34:00       34.575      -38.569       -4.225       28.107       26.596       21.940      789.999      707.322      481.380        0.234        0.099       51.798       20.436        0.156      341.822       16.801      871.921
11/25/2014  15:35:00       85.219      -80.100      -12.638       29.459       37.174       22.642      867.808     1381.932      512.639        0.830        0.138      116.954       19.136        0.027      341.690       16.578      871.912
11/25/2014  15:36:00       92.014      -67.077       -9.912       22.341       29.402       14.229      499.134      864.485      202.452        0.731        0.078      113.868       12.443        0.012      341.682       16.565      871.908
11/25/2014  15:37:00       93.540      -90.086       -7.332       23.236       28.898       20.742      539.924      835.093      430.250        0.936        0.090      129.866       13.412        0.011      341.698       16.593      871.898
11/25/2014  15:38:00       48.067      -30.564        8.815       29.943       42.857       21.215      896.611     1836.740      450.067        0.325        0.159       56.962       26.918        0.223      341.658       16.524      871.890
11/25/2014  15:39:00       15.951        0.783        8.701       16.122       25.048       16.841      259.930      627.398      283.633        0.075        0.059       15.970       14.066        0.776      341.676       16.554      871.893
11/25/2014  15:40:00        5.715       -2.113        9.936        8.058       12.879       10.679       64.939      165.876      114.044        0.024        0.017        6.093        6.149        1.018      341.818       16.795      871.901
11/25/2014  15:41:00       10.068       15.600       11.134       18.928       19.029       15.664      358.258      362.092      245.349        0.072        0.048       18.567       15.196        0.670      341.705       16.603      871.914
11/25/2014  15:42:00        8.874       -4.078       17.360       20.191       17.679       17.033      407.678      312.563      290.131        0.070        0.051        9.766       12.387        1.609      341.859       16.864      871.918
11/25/2014  15:43:00        7.412       -0.478       14.594       20.366       30.907       16.788      414.758      955.262      281.851        0.096        0.083        7.427       19.523        6.909      341.733       16.651      871.919
11/25/2014  15:44:00      -28.914      -28.085        5.347       16.489       18.063       11.773      271.892      326.258      138.595        0.119        0.037       40.309        9.400        0.054      341.964       17.042      871.925
11/25/2014  15:45:00       -1.479       -6.834        1.713        9.885       11.705       11.527       97.716      137.007      132.876        0.021        0.018        6.992        4.996        0.511      341.908       16.947      871.927
11/25/2014  15:46:00        0.690       -6.654       17.981       19.561       28.136       21.343      382.623      791.631      455.521        0.100        0.081        6.689       10.654        2.537      341.860       16.866      871.925
11/25/2014  15:47:00       43.374      -14.580        3.088       29.739       23.193       22.586      884.418      537.913      510.120        0.202        0.097       45.759       19.222        0.176      341.627       16.471      871.914
11/25/2014  15:48:00       51.574      -22.784       -0.695       27.399       21.155       18.248      750.708      447.522      332.979        0.236        0.077       56.382       17.326        0.094      341.649       16.508      871.909
11/25/2014  15:49:00        2.040       -2.870        6.873       15.429       14.364       10.488      238.044      206.333      110.003        0.031        0.028        3.521        9.877        7.868      341.744       16.670      871.895
11/25/2014  15:50:00       28.729      -10.925        1.012       12.487       17.023       14.341      155.922      289.773      205.654        0.080        0.033       30.736       11.908        0.150      341.721       16.630      871.883
11/25/2014  15:51:00       34.496      -32.059        4.301       37.834       24.749       13.417     1431.417      612.512      180.006        0.223        0.111       47.093       19.310        0.168      341.827       16.810      871.875
11/25/2014  15:52:00       73.403      -63.833      -12.659       18.547       19.627       12.849      343.983      385.231      165.094        0.526        0.045       97.276        9.372        0.009      341.707       16.606      871.861
11/25/2014  15:53:00       49.164      -75.444       -8.555       26.086       28.291       16.117      680.458      800.358      259.759        0.496        0.087       90.050       16.164        0.032      341.771       16.715      871.848
11/25/2014  15:54:00       35.151      -61.341       -5.873       17.896       26.476       17.303      320.265      700.956      299.398        0.318        0.066       70.699       10.817        0.023      341.738       16.659      871.840
11/25/2014  15:55:00       39.655      -42.380        2.343       22.337       32.923       21.034      498.920     1083.947      442.411        0.270        0.101       58.040       19.915        0.118      341.673       16.549      871.836
11/25/2014  15:56:00       23.676       -3.772       10.691       17.178       20.030       15.589      295.099      401.183      243.031        0.081        0.047       23.975       12.653        0.279      341.536       16.316      871.837
11/25/2014  15:57:00       63.709      -61.259       -3.065       36.881       34.809       15.765     1360.176     1211.647      248.543        0.532        0.141       88.383       17.863        0.041      341.666       16.537      871.835
11/25/2014  15:58:00       14.492       13.414       25.033       26.316       25.358       16.976      692.549      643.007      288.174        0.132        0.081       19.747       19.791        1.004      341.539       16.322      871.837
11/25/2014  15:59:00        7.065       -0.093       16.861       16.212       21.831       16.803      262.819      476.587      282.357        0.068        0.051        7.065       15.876        5.049      341.690       16.578      871.841
11/25/2014  16:00:00        0.857        0.441        4.526       25.909       11.479        9.238      671.290      131.760       85.335        0.045        0.044        0.964        4.971       26.609      341.745       16.670      871.841
11/25/2014  16:01:00       37.835       11.181       12.500       34.358       18.050       17.484     1180.466      325.799      305.678        0.176        0.091       39.453       20.427        0.268      341.589       16.408      871.840
11/25/2014  16:02:00       45.348      -27.963        5.098       27.809       28.153       16.485      773.327      792.597      271.743        0.235        0.092       53.277       18.838        0.125      341.654       16.517      871.837
11/25/2014  16:03:00       30.987       -2.133       10.594       29.185       19.963       20.538      851.786      398.522      421.826        0.137        0.084       31.060       18.170        0.342      341.611       16.444      871.837
11/25/2014  16:04:00        8.856      -11.888       11.633       32.385       18.689       18.077     1048.784      349.286      326.768        0.104        0.086       14.824       20.935        1.994      341.717       16.624      871.838
11/25/2014  16:05:00       -4.135        8.594       30.514       10.782       20.592       12.077      116.249      424.034      145.865        0.085        0.034        9.537        6.873        0.519      341.700       16.595      871.828
11/25/2014  16:06:00        6.201       11.682        7.185       13.850       17.531       18.022      191.832      307.336      324.808        0.053        0.041       13.226       12.329        0.869      341.586       16.399      871.823
11/25/2014  16:07:00       18.785      -12.574       11.137       21.663       24.895       13.397      469.273      619.769      179.466        0.095        0.063       22.605       11.850        0.275      341.579       16.389      871.813
11/25/2014  16:08:00       37.944      -16.043       12.321       27.570       28.236       13.510      760.123      797.291      182.525        0.179        0.087       41.196       19.161        0.216      341.511       16.274      871.809
11/25/2014  16:09:00       32.616      -16.838        1.911       22.912       24.427       14.652      524.940      596.677      214.670        0.134        0.067       36.706       17.050        0.216      341.542       16.326      871.802
11/25/2014  16:10:00       20.905        5.932        5.942       13.012       12.981       11.114      169.302      168.512      123.530        0.048        0.023       21.730       10.335        0.226      341.408       16.101      871.803
11/25/2014  16:11:00       32.999      -24.747        0.451       15.355       12.760        8.151      235.787      162.811       66.447        0.108        0.023       41.247        6.305        0.023      341.598       16.423      871.808
11/25/2014  16:12:00       39.002      -38.819        4.760       21.038       28.202       15.151      442.616      795.336      229.550        0.226        0.073       55.028       16.391        0.089      341.656       16.520      871.798
11/25/2014  16:13:00       36.174      -32.069        6.786       24.760       25.712       15.259      613.047      661.115      232.845        0.194        0.075       48.342       13.222        0.075      341.523       16.293      871.783
11/25/2014  16:14:00       24.471       -5.486       -0.877       16.191       20.944       11.837      262.163      438.669      140.104        0.074        0.042       25.078        8.266        0.109      341.406       16.096      871.764
11/25/2014  16:15:00       27.920       12.465        5.039       11.005       10.407        9.092      121.116      108.303       82.660        0.064        0.016       30.576        6.469        0.045      341.376       16.045      871.757
11/25/2014  16:16:00       35.380        4.647        4.120       12.156        9.866        8.329      147.764       97.347       69.376        0.080        0.016       35.684        6.598        0.034      341.458       16.185      871.760
11/25/2014  16:17:00       29.113       -9.300       -2.559       12.348       10.239        5.465      152.464      104.831       29.861        0.061        0.014       30.562        4.494        0.022      341.466       16.199      871.763
11/25/2014  16:18:00       15.259        1.765        3.721       10.657       14.549        6.337      113.576      211.662       40.156        0.031        0.018       15.361        4.476        0.085      341.442       16.158      871.772
11/25/2014  16:19:00        2.604       -6.141        1.755       14.113       12.171        6.386      199.182      148.131       40.778        0.022        0.019        6.670        8.186        1.506      341.377       16.046      871.788
11/25/2014  16:20:00      -21.253      -21.524       -9.820       13.171        5.898        5.393      173.485       34.785       29.085        0.062        0.012       30.249        3.059        0.010      341.376       16.045      871.810
11/25/2014  16:21:00      -25.265      -31.580       -1.534       14.603       15.232       11.927      213.257      232.015      142.251        0.111        0.029       40.443        7.684        0.036      341.441       16.156      871.824
11/25/2014  16:22:00      -18.612      -29.774        6.834       16.396        9.857        6.775      268.844       97.164       45.895        0.085        0.021       35.113        4.049        0.013      341.336       15.977      871.826
11/25/2014  16:23:00       -7.816      -20.156       -6.718       16.735        7.541        8.506      280.068       56.864       72.345        0.046        0.020       21.618        3.316        0.024      341.435       16.143      871.824
11/25/2014  16:24:00       15.617       -5.071       -1.112        9.678        8.774        8.417       93.665       76.987       70.849        0.026        0.012       16.420        7.057        0.185      341.469       16.202      871.816
11/25/2014  16:25:00        7.683       15.878        5.343       12.458        6.701        9.916      155.199       44.904       98.323        0.032        0.015       17.639        4.445        0.064      341.051       15.494      871.817
11/25/2014  16:26:00       -2.895        3.251      -10.156       10.675       10.442        6.139      113.966      109.037       37.685        0.019        0.013        4.353        4.990        1.314      341.016       15.437      871.832
11/25/2014  16:27:00      -12.950      -21.151       -5.452       14.546       11.004        7.360      211.599      121.091       54.173        0.052        0.019       24.801        8.679        0.122      341.174       15.704      871.848
11/25/2014  16:28:00      -13.519      -33.841       -0.633       17.922       11.751       12.456      321.215      138.086      155.154        0.097        0.031       36.442        8.654        0.056      341.132       15.634      871.857
11/25/2014  16:29:00      -19.530        7.506        1.417       25.612       13.700       21.127      655.999      187.680      446.332        0.086        0.065       20.923       12.709        0.369      341.401       16.085      871.857
11/25/2014  16:30:00       19.646      -13.646       -0.442       22.036       16.940       13.994      485.606      286.974      195.840        0.077        0.048       23.920        6.513        0.074      341.260       15.849      871.834
11/25/2014  16:31:00       64.779      -48.638       -2.092       13.811       11.812       10.277      190.733      139.517      105.614        0.350        0.022       81.006        6.389        0.006      341.433       16.142      871.826
11/25/2014  16:32:00       49.409      -51.007        0.324       26.060       15.909       11.129      679.143      253.082      123.858        0.305        0.053       71.014        9.939        0.020      341.397       16.081      871.816
11/25/2014  16:33:00       36.121      -44.643       -0.289       20.826       22.057       14.081      433.716      486.493      198.288        0.221        0.056       57.426        9.720        0.029      341.398       16.081      871.823
11/25/2014  16:34:00       -5.000      -19.581        4.610       20.098       14.283        9.934      403.948      204.006       98.681        0.057        0.035       20.209        8.657        0.183      341.137       15.642      871.829
11/25/2014  16:35:00      -27.301      -17.203       -8.424       11.050       14.178        6.722      122.108      201.004       45.180        0.074        0.018       32.269        5.927        0.034      340.853       15.159      871.831
11/25/2014  16:36:00      -16.362       -0.796       -0.849       10.132        9.531        3.780      102.653       90.846       14.285        0.024        0.010       16.381        3.190        0.038      341.047       15.488      871.824
11/25/2014  16:37:00       19.937       -4.198        0.008        7.262        9.432        6.441       52.735       88.971       41.489        0.030        0.009       20.374        5.346        0.069      341.103       15.584      871.820
11/25/2014  16:38:00        2.742        9.550        2.083       12.282        5.388        3.028      150.852       29.027        9.168        0.015        0.009        9.936        2.216        0.050      340.966       15.348      871.840
11/25/2014  16:39:00      -43.052      -25.684      -13.395       10.718        8.035        8.362      114.880       64.562       69.918        0.147        0.012       50.131        7.683        0.023      340.365       14.335      871.861
11/25/2014  16:40:00      -66.255      -20.001      -14.769        8.203       11.523        6.525       67.292      132.777       42.572        0.263        0.012       69.208        4.738        0.005      340.498       14.561      871.874
11/25/2014  16:41:00      -91.959       -1.737       -9.700       13.954       13.770       13.123      194.717      189.616      172.222        0.455        0.028       91.976        9.195        0.010      340.576       14.693      871.869
11/25/2014  16:42:00      -85.082       -8.468      -23.084       21.228       15.531       11.244      450.644      241.216      126.428        0.433        0.041       85.503        8.404        0.010      340.539       14.630      871.876
11/25/2014  16:43:00      -87.713      -16.313      -17.199       16.080       12.592       12.017      258.579      158.562      144.404        0.441        0.028       89.217        5.167        0.003      340.349       14.307      871.880
11/25/2014  16:44:00      -89.125      -18.373      -17.197       13.386       11.663       10.262      179.187      136.016      105.307        0.450        0.021       90.999        7.273        0.006      340.162       13.992      871.871
11/25/2014  16:45:00      -93.030      -22.382      -19.817       16.746       17.615       13.649      280.414      310.290      186.292        0.516        0.039       95.684        8.858        0.009      340.379       14.359      871.867
11/25/2014  16:46:00     -125.237      -29.937      -17.666       30.705       29.368       17.666      942.804      862.486      312.099        0.950        0.106      128.766       13.534        0.011      339.938       13.614      871.881
11/25/2014  16:47:00     -102.101      -30.515      -15.099       37.854       27.704       23.099     1432.962      767.505      533.584        0.716        0.137      106.563       15.960        0.022      339.674       13.168      871.873
11/25/2014  16:48:00     -101.548      -34.197      -13.222       23.518       23.924       15.482      553.083      572.369      239.697        0.651        0.068      107.152       11.261        0.011      339.692       13.200      871.856
11/25/2014  16:49:00      -61.071      -21.371      -11.077       48.659       25.744       21.630     2367.742      662.763      467.868        0.390        0.175       64.703       22.826        0.124      339.810       13.399      871.847
11/25/2014  16:50:00      -19.272      -11.314        4.687       38.088       32.509       21.516     1450.711     1056.861      462.928        0.175        0.149       22.348       17.231        0.595      340.031       13.770      871.841
11/25/2014  16:51:00      -31.306       -4.866        4.098       48.225       28.796       25.756     2325.656      829.217      663.388        0.242        0.191       31.682       24.534        0.600      339.920       13.585      871.835
11/25/2014  16:52:00     -107.879      -55.924       -4.328       53.307       53.971       35.024     2841.617     2912.820     1226.657        1.088        0.349      121.513       27.589        0.052      339.664       13.152      871.852
11/25/2014  16:53:00     -113.506      -36.155      -11.675       48.082       42.915       23.445     2311.836     1841.698      549.668        0.951        0.235      119.125       14.582        0.015      339.980       13.685      871.864
11/25/2014  16:54:00      -64.817      -54.736        3.363       56.452       42.121       26.520     3186.846     1774.141      703.313        0.644        0.283       84.837       23.895        0.079      339.672       13.166      871.862
11/25/2014  16:55:00      -82.996      -34.905      -12.712       41.936       25.550       30.691     1758.600      652.818      941.967        0.581        0.168       90.038       21.752        0.058      339.463       12.813      871.871
11/25/2014  16:56:00      -63.273      -20.637      -14.059       37.422       25.938       31.939     1400.433      672.797     1020.129        0.386        0.155       66.554       21.582        0.105      339.379       12.672      871.881
11/25/2014  16:57:00      -80.372      -40.641       -9.161       51.176       26.918       29.557     2618.981      724.578      873.618        0.621        0.211       90.063       23.753        0.070      339.338       12.602      871.880
11/25/2014  16:58:00      -60.111      -23.787       -7.117       39.194       21.723       22.581     1536.135      471.892      509.892        0.337        0.126       64.646       23.954        0.137      339.254       12.461      871.882
11/25/2014  16:59:00      -76.310      -24.555      -21.628       24.625       20.261       15.804      606.369      410.496      249.756        0.408        0.063       80.164        7.147        0.008      339.264       12.476      871.882
11/25/2014  17:00:00     -107.943      -34.872      -19.273       23.107       25.066       17.419      533.910      628.286      303.438        0.735        0.073      113.436       13.746        0.015      339.249       12.454      871.883
11/25/2014  17:01:00     -150.768      -39.158      -22.739       49.558       35.807       25.091     2456.000     1282.126      629.550        1.457        0.218      155.770       20.268        0.017      339.238       12.433      871.890
11/25/2014  17:02:00     -115.140      -42.407      -10.565       33.647       35.542       25.310     1132.103     1263.211      640.572        0.910        0.152      122.701       11.390        0.009      339.224       12.411      871.893
11/25/2014  17:03:00      -98.477      -33.106       -9.655       32.882       36.821       22.100     1081.234     1355.767      488.405        0.691        0.146      103.893       13.097        0.016      339.243       12.443      871.882
11/25/2014  17:04:00      -80.176      -21.215      -14.306       35.244       20.763       18.995     1242.146      431.113      360.809        0.456        0.102       82.935       12.672        0.023      339.368       12.653      871.890
11/25/2014  17:05:00      -70.890      -26.892      -17.782       31.719       25.166       19.956     1006.122      633.341      398.248        0.405        0.102       75.819       13.552        0.032      339.364       12.648      871.885
11/25/2014  17:06:00      -95.782      -29.057      -19.435       29.180       17.004       17.608      851.447      289.145      310.038        0.592        0.073      100.093       12.314        0.015      339.397       12.702      871.882
11/25/2014  17:07:00     -131.709      -45.177      -25.064       19.618       26.032       20.302      384.859      677.643      412.185        1.075        0.074      139.242       13.476        0.009      339.067       12.146      871.882
11/25/2014  17:08:00      -77.339      -79.429       -9.763       37.577       34.843       24.560     1412.049     1214.064      603.214        0.781        0.161      110.862       20.404        0.034      338.978       11.996      871.898
11/25/2014  17:09:00      -61.343      -61.117       -8.241       32.877       25.312       19.115     1080.906      640.702      365.392        0.483        0.104       86.593       14.894        0.030      339.018       12.064      871.913
11/25/2014  17:10:00     -112.597      -56.114      -19.027       19.666       18.583       13.924      386.732      345.312      193.872        0.856        0.046      125.805        8.658        0.005      339.026       12.078      871.925
11/25/2014  17:11:00     -137.795      -43.926      -25.637       20.659       19.297       12.650      426.774      372.387      160.022        1.127        0.048      144.627        9.331        0.004      339.157       12.297      871.935
11/25/2014  17:12:00     -115.198      -63.127      -20.057       17.855       24.521       13.653      318.816      601.301      186.403        0.938        0.055      131.360       11.746        0.008      339.098       12.199      871.951
11/25/2014  17:13:00     -132.575      -41.618      -16.157       22.221       18.320       13.040      493.781      335.624      170.041        1.028        0.050      138.954        6.312        0.002      339.049       12.116      871.967
11/25/2014  17:14:00     -142.536      -35.775      -21.543       10.779       17.765       11.808      116.181      315.596      139.437        1.132        0.029      146.956        8.442        0.003      339.087       12.180      871.968
11/25/2014  17:15:00     -117.354      -41.241      -21.499       16.252       12.552       12.010      264.140      157.546      144.244        0.825        0.028      124.390        8.625        0.005      339.222       12.408      871.961
11/25/2014  17:16:00      -96.081      -49.471      -12.546       12.061       13.543       13.991      145.474      183.415      195.761        0.618        0.026      108.070        8.015        0.006      339.221       12.405      871.952
11/25/2014  17:17:00      -91.660      -64.044      -10.420       13.608       17.977       11.943      185.176      323.177      142.643        0.663        0.033      111.817        7.477        0.004      339.120       12.235      871.949
11/25/2014  17:18:00     -129.450      -64.398      -16.295       30.135       18.037       12.116      908.118      325.331      146.794        1.127        0.069      144.584       10.380        0.005      339.042       12.104      871.955
11/25/2014  17:19:00     -150.431      -44.285      -19.250       14.250       23.811        9.874      203.052      566.963       97.490        1.291        0.043      156.814        4.555        0.001      339.011       12.051      871.962
11/25/2014  17:20:00     -144.490      -63.778      -17.684       13.363       16.949       12.197      178.583      287.258      148.776        1.294        0.031      157.940        9.557        0.004      339.089       12.184      871.987
11/25/2014  17:21:00     -141.004      -60.580       -4.877       33.474       17.122       17.568     1120.482      293.157      308.629        1.265        0.086      153.467       18.088        0.014      338.920       11.898      872.006
11/25/2014  17:22:00     -141.983      -53.273       -7.618       25.313       19.894       19.118      640.743      395.779      365.497        1.223        0.070      151.648       18.469        0.015      338.875       11.823      872.026
11/25/2014  17:23:00     -165.062      -14.435      -21.191       19.358       18.345       19.717      374.741      336.557      388.776        1.450        0.055      165.692       13.655        0.007      339.104       12.210      872.017
11/25/2014  17:24:00     -161.139      -30.066      -25.955       17.964       19.522       14.020      322.700      381.100      196.572        1.422        0.045      163.920        9.544        0.003      338.912       11.887      872.006
11/25/2014  17:25:00     -144.607      -61.966      -22.826       29.946       27.432       18.444      896.773      752.493      340.165        1.363        0.099      157.324       15.214        0.009      338.753       11.619      871.994
11/25/2014  17:26:00     -143.382      -39.995       -8.211       60.193       36.542       20.523     3623.219     1335.304      421.174        1.380        0.269      148.856       18.377        0.015      338.635       11.421      871.994
11/25/2014  17:27:00     -129.807      -52.871      -14.934       49.230       32.504       18.338     2423.601     1056.535      336.270        1.184        0.191      140.161       17.407        0.015      338.617       11.391      871.983
11/25/2014  17:28:00      -82.201      -71.721      -10.694       34.612       28.914       24.667     1198.024      836.002      608.481        0.733        0.132      109.091       22.970        0.044      338.586       11.338      871.977
11/25/2014  17:29:00     -170.570      -63.609      -22.151       36.559       23.112       20.460     1336.528      534.185      418.624        1.796        0.114      182.045       20.944        0.013      338.698       11.525      871.964
11/25/2014  17:30:00     -161.974      -79.065      -25.211       41.048       40.684       15.412     1684.930     1655.159      237.540        1.835        0.179      180.242       11.101        0.004      338.804       11.705      871.953
11/25/2014  17:31:00     -192.293      -47.485      -23.963       22.599       28.840       17.016      510.719      831.765      289.528        2.072        0.082      198.069       10.713        0.003      338.851       11.784      871.961
11/25/2014  17:32:00     -198.020      -65.916      -22.973       19.563       23.068       14.736      382.693      532.148      217.144        2.261        0.057      208.703        4.631        0.000      338.670       11.479      871.961
11/25/2014  17:33:00     -208.245      -74.667       -8.673       40.513       41.541       24.942     1641.331     1725.619      622.120        2.650        0.199      221.227       14.841        0.005      338.687       11.505      871.972
11/25/2014  17:34:00     -166.675      -65.785       -4.110       48.814       31.007       25.383     2382.788      961.418      644.312        1.806        0.199      179.188       15.007        0.007      338.898       11.862      871.958
11/25/2014  17:35:00     -169.723      -34.684      -16.320       20.787       22.711       18.894      432.110      515.769      356.979        1.579        0.065      173.231       11.241        0.004      339.085       12.177      871.943
11/25/2014  17:36:00     -178.533      -72.090       -5.635       39.617       27.577       21.201     1569.508      760.467      449.493        1.994        0.139      192.539       18.796        0.010      339.010       12.049      871.927
11/25/2014  17:37:00     -193.904      -39.517      -18.757       33.110       30.594       22.014     1096.290      935.979      484.595        2.101        0.126      197.890       20.115        0.010      338.973       11.987      871.941
11/25/2014  17:38:00     -164.409      -60.930      -21.127       24.025       25.191       16.758      577.178      634.564      280.844        1.634        0.075      175.336       10.257        0.003      338.654       11.451      871.941
11/25/2014  17:39:00     -100.773      -44.504       -7.765       36.689       28.927       23.188     1346.094      836.768      537.663        0.746        0.136      110.163       17.249        0.025      338.515       11.218      871.939
11/25/2014  17:40:00      -56.360      -42.691       -7.206       38.222       37.809       24.740     1460.897     1429.487      612.058        0.428        0.175       70.703       23.127        0.107      338.505       11.201      871.938
11/25/2014  17:41:00     -141.052      -82.543      -15.206       29.918       29.272       22.516      895.099      856.845      506.986        1.460        0.113      163.429       17.630        0.012      338.406       11.035      871.944
11/25/2014  17:42:00     -132.407      -80.005       -6.308       32.641       36.800       27.486     1065.426     1354.243      755.467        1.357        0.159      154.701       21.497        0.019      338.486       11.169      871.938
11/25/2014  17:43:00      -34.686      -11.624       22.387       63.970       49.331       37.782     4092.138     2433.526     1427.510        0.489        0.398       36.582       40.591        1.231      338.501       11.196      871.941
11/25/2014  17:44:00      -43.825        1.915        8.234       66.446       37.621       31.576     4415.134     1415.315      997.017        0.441        0.341       43.867       36.954        0.710      338.563       11.298      871.933
11/25/2014  17:45:00      -72.342      -11.107        6.973       62.982       51.799       39.557     3966.723     2683.146     1564.758        0.681        0.411       73.190       34.420        0.221      338.481       11.161      871.937
11/25/2014  17:46:00     -129.778      -41.874       -4.909       46.329       45.243       28.878     2146.373     2046.890      833.913        1.182        0.251      136.366       20.812        0.023      338.302       10.860      871.932
11/25/2014  17:47:00     -111.818      -45.248      -14.166       33.900       31.713       26.582     1149.187     1005.712      706.579        0.881        0.143      120.626       17.310        0.021      338.208       10.703      871.937
11/25/2014  17:48:00      -86.906      -35.460        0.224       49.162       27.663       26.768     2416.910      765.214      716.524        0.635        0.195       93.862       29.235        0.097      338.188       10.669      871.933
11/25/2014  17:49:00     -134.782      -46.691      -12.475       56.744       38.335       25.246     3219.936     1469.583      637.344        1.291        0.266      142.640       14.717        0.011      338.336       10.918      871.944
11/25/2014  17:50:00      -54.497      -44.909        1.373       54.507       52.746       30.847     2971.012     2782.115      951.522        0.585        0.335       70.617       23.918        0.115      338.441       11.094      871.943
11/25/2014  17:51:00      -24.556      -29.070       -2.335       72.880       53.362       28.412     5311.519     2847.515      807.219        0.521        0.448       38.054       29.344        0.595      338.746       11.607      871.950
11/25/2014  17:52:00      -62.946      -29.177       -0.354       42.265       41.795       31.561     1786.314     1746.787      996.073        0.467        0.226       69.380       26.418        0.145      338.474       11.149      871.947
11/25/2014  17:53:00        8.205        3.275       13.088       13.781       18.111       15.120      189.920      328.008      228.620        0.050        0.037        8.834        9.753        1.219      338.357       10.953      871.952
11/25/2014  17:54:00      -35.958      -26.565       -7.418       19.582       17.644       14.590      383.464      311.307      212.879        0.148        0.045       44.706       11.020        0.061      338.433       11.081      871.933
11/25/2014  17:55:00      -29.745       -2.998       -7.361       21.274       30.945       16.851      452.589      957.591      283.953        0.132        0.085       29.896       14.371        0.231      338.423       11.063      871.937
11/25/2014  17:56:00      -50.257       42.688      -15.329       13.107       22.775       15.784      171.793      518.681      249.136        0.276        0.047       65.940       12.046        0.033      338.681       11.497      871.936
11/25/2014  17:57:00      -21.903       -4.716        1.388       12.350       12.991       12.468      152.523      168.755      155.441        0.049        0.024       22.405        7.172        0.102      338.461       11.129      871.938
11/25/2014  17:58:00      -58.550      -45.290      -17.268       19.348       16.106       14.233      374.338      259.388      202.566        0.331        0.042       74.022        7.282        0.010      338.286       10.834      871.917
11/25/2014  17:59:00      -33.879      -43.143       -5.875       19.285       20.240       23.232      371.921      409.653      539.720        0.218        0.066       54.855       19.001        0.120      338.231       10.741      871.909
11/25/2014  18:00:00      -70.967      -53.410      -18.935       13.522       14.625       11.067      182.839      213.889      122.483        0.438        0.026       88.819        4.358        0.002      338.319       10.889      871.892
11/25/2014  18:01:00     -105.874      -22.555      -21.617       18.940       15.266        9.609      358.723      233.042       92.340        0.643        0.034      108.250        9.240        0.007      338.335       10.917      871.880
11/25/2014  18:02:00     -131.990      -32.041      -28.610       30.118       24.129       16.404      907.121      582.190      269.079        1.051        0.088      135.823       17.018        0.016      338.268       10.804      871.872
11/25/2014  18:03:00      -92.677      -46.887      -14.346       32.932       35.871       20.493     1084.518     1286.737      419.983        0.689        0.140      103.862       26.332        0.064      338.251       10.775      871.869
11/25/2014  18:04:00     -105.907      -29.526      -21.881       20.019       18.584       14.590      400.775      345.355      212.872        0.676        0.048      109.946        6.997        0.004      338.246       10.767      871.872
11/25/2014  18:05:00     -122.568      -42.608      -27.592       25.228       25.744       15.950      636.475      662.754      254.403        0.958        0.078      129.763        2.268        0.000      338.123       10.559      871.881
11/25/2014  18:06:00     -131.321      -77.397      -17.431       38.346       29.631       21.613     1470.390      878.010      467.131        1.318        0.141      152.432       19.063        0.016      338.002       10.359      871.905
11/25/2014  18:07:00      -52.725      -54.276        2.375       53.660       34.111       30.045     2879.369     1163.542      902.719        0.534        0.247       75.669       32.574        0.185      337.992       10.341      871.913
11/25/2014  18:08:00      -75.837      -55.693       -2.760       31.092       39.928       21.684      966.687     1594.276      470.207        0.595        0.152       94.090       19.190        0.042      338.019       10.385      871.919
11/25/2014  18:09:00      -86.648      -56.806       -6.954       47.451       33.215       28.224     2251.616     1103.242      796.577        0.747        0.208      103.609       21.001        0.041      338.028       10.399      871.927
11/25/2014  18:10:00      -49.931      -45.188        3.238       67.191       35.077       28.830     4514.591     1230.402      831.196        0.556        0.329       67.343       31.155        0.214      338.012       10.373      871.927
11/25/2014  18:11:00     -130.975      -42.928      -20.073       40.783       23.065       20.471     1663.239      532.011      419.047        1.101        0.131      137.831       21.959        0.025      338.062       10.458      871.939
11/25/2014  18:12:00     -114.785      -59.818      -16.175       26.736       24.479       19.894      714.793      599.223      395.763        0.936        0.085      129.436       11.811        0.008      338.057       10.450      871.943
11/25/2014  18:13:00     -131.678      -63.876      -11.956       47.857       27.222       18.057     2290.320      741.051      326.072        1.246        0.168      146.354        7.917        0.003      338.070       10.472      871.956
11/25/2014  18:14:00     -145.461      -68.679      -12.651       40.008       26.118       20.216     1600.638      682.124      408.694        1.436        0.135      160.859        9.027        0.003      338.115       10.549      871.967
11/25/2014  18:15:00     -110.089      -59.328       -6.875       33.247       31.875       23.129     1105.384     1016.025      534.966        0.917        0.133      125.057       15.483        0.015      338.086       10.498      871.987
11/25/2014  18:16:00     -100.221      -61.739      -10.714       18.316       22.804       11.838      335.486      520.035      140.136        0.748        0.050      117.711        6.427        0.003      338.155       10.614      871.989
11/25/2014  18:17:00     -109.363      -56.834       -8.523       12.336       14.030       10.506      152.187      196.831      110.380        0.786        0.023      123.249        4.384        0.001      338.248       10.771      871.989
11/25/2014  18:18:00      -82.266      -54.732      -11.767       28.996       14.008       12.033      840.786      196.217      144.782        0.554        0.059       98.809        8.732        0.008      338.208       10.703      872.004
11/25/2014  18:19:00     -103.566      -59.725      -10.906       19.766       15.119       15.064      390.705      228.576      226.917        0.763        0.042      119.553        4.500        0.001      338.207       10.700      872.010
11/25/2014  18:20:00      -99.779      -57.372       -9.730       16.796       12.368       14.139      282.107      152.960      199.899        0.699        0.032      115.098        7.947        0.005      338.311       10.875      872.030
11/25/2014  18:21:00      -92.206      -51.367      -10.235       14.313       12.512       12.490      204.857      156.556      156.011        0.588        0.026      105.548        4.596        0.002      338.310       10.875      872.031
11/25/2014  18:22:00     -100.038      -47.485      -16.574       12.242       12.651       11.393      149.878      160.048      129.811        0.649        0.022      110.736        6.902        0.004      338.443       11.098      872.038
11/25/2014  18:23:00      -98.197      -29.835      -15.325       20.201       20.186       13.890      408.100      407.459      192.942        0.589        0.050      102.629        6.338        0.004      338.592       11.348      872.048
11/25/2014  18:24:00      -40.903      -20.987        3.560       41.444       26.404       17.538     1717.630      697.176      307.564        0.242        0.136       45.973       17.006        0.137      338.417       11.053      872.053
11/25/2014  18:25:00       -8.958       37.316       -3.696       19.687       10.293       15.312      387.569      105.943      234.464        0.111        0.036       38.376        8.552        0.050      338.761       11.633      872.066
11/25/2014  18:26:00       -2.018       71.377      -12.825       16.424       14.813        6.866      269.748      219.424       47.138        0.290        0.027       71.405        5.776        0.007      338.969       11.982      872.061
11/25/2014  18:27:00       24.658       70.275       -5.053       18.273       17.216       12.839      333.884      296.387      164.852        0.318        0.040       74.476        9.114        0.015      338.758       11.629      872.059
11/25/2014  18:28:00       14.627       80.356      -13.004       13.675       16.692        9.695      187.006      278.613       93.988        0.370        0.028       81.676        6.089        0.006      338.529       11.243      872.057
11/25/2014  18:29:00        3.115       75.268      -11.372       12.629       11.380        6.419      159.501      129.505       41.205        0.307        0.017       75.333        4.180        0.003      338.748       11.610      872.064
11/25/2014  18:30:00      -11.538       57.395      -11.928       17.579       11.372        9.450      309.012      129.322       89.294        0.205        0.026       58.543        5.267        0.008      339.003       12.040      872.084
11/25/2014  18:31:00       -1.936       41.220       -6.590       22.114       18.557       11.635      489.022      344.351      135.370        0.136        0.048       41.265       10.736        0.068      339.074       12.158      872.098
11/25/2014  18:32:00       -8.540       17.922        1.881       19.742       25.147       11.912      389.763      632.357      141.907        0.078        0.058       19.852       11.712        0.348      338.877       11.827      872.098
11/25/2014  18:33:00      -26.057       -9.931       -1.053       22.740       16.154       18.429      517.110      260.942      339.636        0.095        0.056       27.886       15.196        0.297      338.258       10.787      872.093
11/25/2014  18:34:00      -47.735      -21.364       -7.700       12.185        9.168        8.429      148.464       84.048       71.041        0.155        0.015       52.298        4.134        0.006      338.064       10.461      872.087
11/25/2014  18:35:00      -38.982      -26.739       -9.094        9.762        9.740        6.393       95.302       94.864       40.870        0.127        0.012       47.271        4.409        0.009      338.296       10.850      872.073
11/25/2014  18:36:00      -65.718      -20.832      -11.615       11.806        9.623        6.855      139.382       92.595       46.988        0.258        0.014       68.941        6.566        0.009      338.139       10.588      872.065
11/25/2014  18:37:00      -83.171      -37.391      -15.174       11.881       14.130        8.646      141.161      199.647       74.754        0.448        0.021       91.189        5.285        0.003      337.854       10.110      872.087
11/25/2014  18:38:00     -117.124      -43.647      -16.991       16.276       13.006        9.788      264.917      169.154       95.807        0.822        0.026      124.993        9.879        0.006      337.715        9.877      872.100
11/25/2014  18:39:00     -132.696      -14.590      -19.135       10.142       11.608        8.113      102.861      134.738       65.816        0.925        0.015      133.495        3.214        0.001      337.845       10.095      872.097
11/25/2014  18:40:00      -94.972      -41.353      -22.944       18.577       16.774       10.283      345.106      281.383      105.746        0.599        0.037      103.584        8.266        0.006      338.032       10.409      872.103
11/25/2014  18:41:00      -68.453      -49.134      -15.241       12.271        8.544        9.493      150.587       72.999       90.119        0.382        0.016       84.261        4.487        0.003      338.136       10.582      872.106
11/25/2014  18:42:00      -71.423      -46.813      -14.081       10.608       10.916       12.704      112.532      119.169      161.397        0.394        0.020       85.397        3.848        0.002      338.197       10.686      872.111
11/25/2014  18:43:00      -58.316      -46.694      -12.625       13.730        9.915        8.164      188.523       98.302       66.656        0.305        0.018       74.706        4.276        0.003      338.055       10.447      872.108
11/25/2014  18:44:00      -32.916       -1.749       -6.506       21.971       27.061       12.368      482.704      732.317      152.956        0.125        0.068       32.963       12.001        0.133      338.429       11.075      872.120
11/25/2014  18:45:00      -23.692       28.105       -5.821       37.939       33.428       12.165     1439.355     1117.406      147.986        0.204        0.135       36.759        6.138        0.028      338.608       11.374      872.121
11/25/2014  18:46:00       -1.273       25.740       -4.636       11.486       16.404       11.559      131.927      269.089      133.613        0.061        0.027       25.771        6.542        0.064      338.886       11.844      872.112
11/25/2014  18:47:00       -3.189       26.623        1.483       15.001       12.235       14.358      225.035      149.697      206.140        0.065        0.029       26.814       11.109        0.172      338.754       11.621      872.105
11/25/2014  18:48:00       18.354       25.443        0.474       14.148       15.360       11.697      200.166      235.918      136.814        0.078        0.029       31.373       10.134        0.104      338.782       11.666      872.103
11/25/2014  18:49:00      -10.582        5.983       -0.758       20.746        9.280        7.820      430.391       86.126       61.147        0.036        0.029       12.157        5.392        0.197      338.584       11.336      872.087
11/25/2014  18:50:00       18.403       33.318      -16.220       16.702       18.696       10.163      278.957      349.532      103.295        0.122        0.037       38.063        9.664        0.064      338.856       11.792      872.072
11/25/2014  18:51:00       -1.210       10.764       -9.240       10.311       11.212        7.073      106.310      125.706       50.022        0.024        0.014       10.832        5.224        0.233      338.784       11.670      872.072
11/25/2014  18:52:00       -6.084        3.268       -0.070       15.210       14.076        8.675      231.333      198.124       75.262        0.028        0.025        6.906       10.187        2.176      338.700       11.528      872.070
11/25/2014  18:53:00      -32.243      -11.135       -5.022        9.937        8.309        6.175       98.741       69.034       38.128        0.070        0.010       34.111        2.695        0.006      338.174       10.647      872.066
11/25/2014  18:54:00      -32.084      -10.250      -12.851       26.550       17.277        7.531      704.891      298.495       56.713        0.118        0.053       33.681       10.717        0.101      337.992       10.341      872.073
11/25/2014  18:55:00       -5.543       -6.839       -5.396       12.754       21.994       10.242      162.657      483.714      104.897        0.043        0.038        8.803        7.929        0.811      338.492       11.179      872.088
11/25/2014  18:56:00       -6.872      -15.050       -1.105       10.447       10.221        7.975      109.146      104.461       63.605        0.028        0.014       16.545        6.844        0.171      338.509       11.208      872.111
11/25/2014  18:57:00      -30.643      -17.649       -2.324       16.811       12.080        8.504      282.619      145.928       72.314        0.088        0.025       35.362        8.570        0.059      338.225       10.733      872.127
11/25/2014  18:58:00        3.467       -0.038      -12.087       18.983       18.089       10.329      360.346      327.221      106.687        0.048        0.040        3.468        9.414        7.371      338.693       11.519      872.138
11/25/2014  18:59:00       -5.094       12.768       -2.895       13.434       17.345        9.738      180.463      300.836       94.825        0.039        0.029       13.747        6.953        0.256      338.811       11.715      872.152
11/25/2014  19:00:00       -8.678       25.358       -5.219       14.298       20.352       11.862      204.432      414.221      140.711        0.075        0.038       26.802       13.429        0.251      338.594       11.351      872.168
11/25/2014  19:01:00      -19.919       -3.155        1.465       20.662       21.563        9.737      426.938      464.968       94.813        0.070        0.049       20.168       11.766        0.340      338.235       10.749      872.180
11/25/2014  19:02:00      -79.520      -32.010      -12.899       16.210       10.480        7.730      262.750      109.825       59.756        0.397        0.022       85.721        5.169        0.004      337.611        9.702      872.183
11/25/2014  19:03:00      -94.235      -17.879      -16.430       20.248       18.144       10.765      409.984      329.219      115.881        0.516        0.043       95.916        8.473        0.008      337.630        9.735      872.175
11/25/2014  19:04:00     -107.259      -23.451      -18.142       22.648       22.878       13.817      512.943      523.418      190.904        0.681        0.061      109.793       14.236        0.017      337.594        9.673      872.177
11/25/2014  19:05:00     -132.703      -15.769      -19.240       18.941       16.548       11.647      358.766      273.841      135.656        0.950        0.038      133.637       10.738        0.006      337.704        9.859      872.177
11/25/2014  19:06:00     -123.531      -28.098      -25.282       27.115       17.371       11.118      735.230      301.738      123.606        0.892        0.058      126.686        2.931        0.001      337.608        9.697      872.191
11/25/2014  19:07:00     -139.126      -15.090      -25.988       14.191       18.420       10.303      201.375      339.313      106.150        1.045        0.032      139.942        5.042        0.001      337.840       10.087      872.209
11/25/2014  19:08:00     -118.984      -19.530      -19.731       21.445       20.418       15.186      459.891      416.889      230.605        0.802        0.055      120.576        8.332        0.005      337.913       10.208      872.228
11/25/2014  19:09:00     -117.831      -31.416      -16.345       22.294       15.946       17.575      497.004      254.270      308.877        0.810        0.053      121.948       12.334        0.010      337.847       10.099      872.239
11/25/2014  19:10:00     -125.998      -17.694      -28.839       15.009       12.069       13.194      225.262      145.671      174.070        0.878        0.027      127.235        6.819        0.003      337.865       10.127      872.256
11/25/2014  19:11:00      -93.500      -52.516      -19.002       20.743       22.229       15.482      430.291      494.117      239.683        0.651        0.058      107.239        7.714        0.005      337.506        9.524      872.266
11/25/2014  19:12:00     -138.028      -37.253      -15.692       17.411       14.306       11.947      303.130      204.663      142.742        1.067        0.033      142.967        9.772        0.005      337.531        9.568      872.273
11/25/2014  19:13:00     -123.724      -41.617      -18.474       12.519       12.897       11.913      156.718      166.320      141.925        0.892        0.023      130.536        5.531        0.002      337.578        9.646      872.287
11/25/2014  19:14:00     -107.874      -42.761      -25.337       17.524        9.830        7.700      307.103       96.630       59.290        0.729        0.023      116.040        3.086        0.001      337.648        9.765      872.287
11/25/2014  19:15:00     -106.934      -42.377      -21.975       19.940       12.321       11.757      397.591      151.805      138.236        0.720        0.034      115.024        4.011        0.001      337.921       10.221      872.291
11/25/2014  19:16:00      -99.072      -44.055      -13.187       26.134       23.999       21.170      683.009      575.930      448.157        0.682        0.085      108.426       17.983        0.028      338.028       10.401      872.318
11/25/2014  19:17:00      -96.348      -59.999      -19.475       21.430       23.477       15.431      459.244      551.184      238.105        0.726        0.062      113.502       10.635        0.009      337.505        9.525      872.339
11/25/2014  19:18:00     -100.111      -42.580      -19.531       30.591       25.274       16.243      935.838      638.783      263.846        0.703        0.092      108.791       14.923        0.019      337.439        9.413      872.354
11/25/2014  19:19:00     -100.850      -43.044      -10.202       31.414       22.061       18.914      986.838      486.699      357.755        0.698        0.092      109.652       15.341        0.020      337.412        9.369      872.369
11/25/2014  19:20:00      -93.296       -7.744      -18.710       44.787       26.537       19.100     2005.849      704.217      364.815        0.609        0.154       93.617       18.987        0.041      337.783        9.989      872.364
11/25/2014  19:21:00      -14.992       22.759        0.342       18.049       15.590        8.667      325.779      243.052       75.121        0.069        0.032       27.253        4.191        0.024      338.916       11.894      872.348
11/25/2014  19:22:00      -50.385      -10.654       -7.839       12.101       12.452        9.020      146.435      155.059       81.353        0.155        0.019       51.499        4.443        0.007      338.237       10.753      872.342
11/25/2014  19:23:00      -78.402       -4.229      -24.900       19.104       10.739       12.688      364.946      115.324      160.987        0.371        0.032       78.516       10.605        0.018      338.152       10.610      872.353
11/25/2014  19:24:00     -110.128      -20.466      -18.218       24.007       19.423       14.365      576.356      377.265      206.342        0.702        0.058      112.014        9.461        0.007      337.659        9.781      872.349
11/25/2014  19:25:00     -101.844      -60.502      -19.601       24.150       28.037       16.357      583.223      786.099      267.560        0.803        0.082      118.460        9.095        0.006      337.742        9.922      872.351
11/25/2014  19:26:00      -89.632      -40.043      -19.580       29.692       30.737       16.476      881.609      944.733      271.443        0.606        0.105       98.170       13.151        0.018      337.580        9.650      872.363
11/25/2014  19:27:00      -91.115      -38.939       -5.791       43.704       21.356       18.455     1910.030      456.066      340.581        0.628        0.135       99.087       19.468        0.039      337.380        9.314      872.362
11/25/2014  19:28:00      -80.451      -23.903       -7.515       57.273       35.245       23.161     3280.166     1242.222      536.429        0.608        0.253       83.927       19.038        0.051      337.315        9.205      872.370
11/25/2014  19:29:00      -10.174      -16.297        5.231       27.289       21.853       19.864      744.715      477.569      394.591        0.101        0.081       19.211       14.984        0.608      337.424        9.388      872.365
11/25/2014  19:30:00      -74.042      -25.605       -7.935       26.090       20.860       16.997      680.680      435.149      288.898        0.380        0.070       78.344       11.788        0.023      337.536        9.575      872.358
11/25/2014  19:31:00      -72.571      -31.370      -16.983       13.820       14.882        9.802      190.993      221.472       96.080        0.352        0.025       79.061        8.111        0.011      337.673        9.808      872.359
11/25/2014  19:32:00      -73.918      -31.593      -10.590       25.410       23.709       17.608      645.692      562.116      310.053        0.405        0.076       80.387       12.693        0.025      337.527        9.563      872.376
11/25/2014  19:33:00     -112.283      -36.017      -22.352       28.428       25.560       16.847      808.143      653.324      283.819        0.807        0.087      117.918       15.125        0.016      337.547        9.594      872.377
11/25/2014  19:34:00     -110.574      -32.638      -17.165       17.793       25.991       14.013      316.585      675.522      196.353        0.739        0.059      115.290       10.429        0.008      337.248        9.093      872.379
11/25/2014  19:35:00     -123.463      -30.006      -25.571       27.065       21.727       20.790      732.502      472.052      432.227        0.922        0.082      127.057       14.524        0.013      337.275        9.140      872.387
11/25/2014  19:36:00     -146.987      -58.407      -25.063       21.961       28.763       17.631      482.281      827.333      310.839        1.363        0.081      158.166       11.912        0.006      337.147        8.924      872.372
11/25/2014  19:37:00     -138.414      -12.056      -20.566       20.888       19.424       14.289      436.327      377.304      204.166        1.037        0.051      138.939       12.013        0.007      337.171        8.964      872.374
11/25/2014  19:38:00     -127.463      -28.338      -20.026       19.925       17.425       16.491      397.000      303.626      271.962        0.921        0.049      130.575       12.637        0.009      337.324        9.221      872.381
11/25/2014  19:39:00     -127.201      -10.952      -27.428       29.122       19.724       14.704      848.080      389.023      216.213        0.925        0.073      127.671       11.139        0.008      337.676        9.812      872.374
11/25/2014  19:40:00     -110.295      -20.381      -24.135       22.136       24.164       13.727      490.005      583.883      188.432        0.721        0.063      112.162       10.216        0.008      337.557        9.611      872.376
11/25/2014  19:41:00     -104.212      -57.071      -23.894       23.413       24.493       20.397      548.156      599.895      416.056        0.813        0.078      118.816       14.673        0.015      337.376        9.308      872.376
11/25/2014  19:42:00      -67.629      -46.864       -8.085       36.742       34.804       23.391     1349.979     1211.314      547.151        0.497        0.155       82.279       21.852        0.071      337.119        8.876      872.368
11/25/2014  19:43:00      -82.305      -65.817      -10.489       37.738       29.999       22.247     1424.189      899.938      494.939        0.702        0.141      105.385       21.780        0.043      337.008        8.691      872.368
11/25/2014  19:44:00      -95.645      -66.765      -17.074       37.987       20.744       21.727     1442.978      430.316      472.084        0.812        0.117      116.643       15.991        0.019      337.020        8.712      872.367
11/25/2014  19:45:00     -121.894      -37.870      -20.031       23.427       23.391       17.107      548.806      547.117      292.650        0.904        0.069      127.641       15.507        0.015      337.138        8.909      872.351
11/25/2014  19:46:00     -132.087      -22.957      -21.702       24.302       17.732       15.404      590.584      314.414      237.293        0.979        0.057      134.067       14.266        0.011      337.317        9.209      872.362
11/25/2014  19:47:00     -105.681      -27.183      -20.030       16.587       20.051       11.902      275.129      402.060      141.662        0.656        0.041      109.121       11.265        0.011      337.225        9.054      872.384
11/25/2014  19:48:00      -92.696      -12.593      -18.219       28.742       20.917       18.144      826.108      437.506      329.211        0.534        0.080       93.548       16.982        0.033      337.282        9.151      872.400
11/25/2014  19:49:00      -96.474      -15.111      -17.882       22.236       25.039       19.048      494.443      626.952      362.825        0.567        0.074       97.650       18.314        0.035      337.344        9.255      872.430
11/25/2014  19:50:00      -93.868      -24.613      -19.988       18.348       15.862       13.655      336.654      251.597      186.460        0.530        0.039       97.041        9.735        0.010      337.389        9.330      872.439
11/25/2014  19:51:00     -104.109      -22.875      -26.258       19.457       19.567       13.593      378.591      382.887      184.775        0.650        0.047      106.592       10.057        0.009      337.343        9.254      872.440
11/25/2014  19:52:00      -60.610      -52.149      -18.556       24.885       17.158       16.102      619.274      294.390      259.263        0.395        0.059       79.957       10.717        0.018      337.366        9.291      872.444
11/25/2014  19:53:00      -67.681      -26.258      -18.185       15.419       17.971       10.738      237.741      322.971      115.302        0.314        0.034       72.596        6.055        0.007      337.432        9.402      872.434
11/25/2014  19:54:00      -85.802      -27.747      -16.422       22.210       21.827       11.715      493.283      476.401      137.232        0.475        0.055       90.177        8.200        0.008      337.251        9.099      872.449
11/25/2014  19:55:00     -108.743      -38.171      -18.688       20.436       21.539       14.682      417.631      463.945      215.553        0.736        0.055      115.248       10.944        0.009      337.080        8.813      872.448
11/25/2014  19:56:00     -124.059      -27.717      -20.402       21.984       25.414       14.930      483.313      645.891      222.894        0.896        0.068      127.117       12.911        0.010      337.059        8.775      872.458
11/25/2014  19:57:00     -107.482      -54.142      -13.741       19.350       22.018       17.223      374.407      484.780      296.629        0.791        0.058      120.348       11.374        0.009      336.999        8.676      872.484
11/25/2014  19:58:00     -130.181      -30.797      -18.511       24.545       22.105       16.056      602.435      488.626      257.793        0.979        0.067      133.774       13.790        0.011      336.956        8.604      872.500
11/25/2014  19:59:00     -109.390      -46.531      -19.758       32.751       26.285       19.731     1072.601      690.884      389.308        0.834        0.108      118.875       15.495        0.017      336.932        8.563      872.511
11/25/2014  20:00:00     -137.922      -45.142      -23.821       25.270       24.544       17.086      638.592      602.417      291.933        1.158        0.077      145.122       12.976        0.008      336.970        8.628      872.518
11/25/2014  20:01:00      -99.737      -46.840      -13.772       24.215       24.995       16.339      586.374      624.738      266.974        0.690        0.074      110.188       14.561        0.017      336.959        8.609      872.522
11/25/2014  20:02:00     -103.925      -19.118      -14.862       31.086       19.279       18.048      966.315      371.677      325.739        0.652        0.083      105.669       14.525        0.019      337.007        8.690      872.533
11/25/2014  20:03:00     -111.343      -14.030      -18.774       20.827       23.230       16.029      433.782      539.632      256.925        0.709        0.062      112.224       10.476        0.009      336.986        8.656      872.545
11/25/2014  20:04:00     -109.871      -37.767      -22.357       24.306       30.035       15.507      590.766      902.091      240.471        0.787        0.087      116.181       18.694        0.026      337.052        8.765      872.559
11/25/2014  20:05:00      -74.572      -65.335       -9.705       26.852       24.675       23.243      721.039      608.855      540.215        0.590        0.094       99.145       17.434        0.031      337.015        8.702      872.584
11/25/2014  20:06:00      -99.766      -31.255      -13.613       29.977       35.723       19.389      898.594     1276.106      375.920        0.683        0.128      104.547       14.266        0.019      336.964        8.617      872.589
11/25/2014  20:07:00     -102.402      -39.354      -20.784       24.084       24.862       18.678      580.043      618.117      348.879        0.701        0.077      109.704       11.299        0.011      336.887        8.490      872.596
11/25/2014  20:08:00      -82.728      -36.060       -9.419       19.885       23.330       22.830      395.414      544.281      521.187        0.485        0.073       90.246       10.354        0.013      336.889        8.494      872.610
11/25/2014  20:09:00     -130.333      -23.065      -14.708       32.616       28.809       20.559     1063.774      829.982      422.664        1.003        0.116      132.358        7.849        0.004      336.757        8.274      872.640
11/25/2014  20:10:00     -121.313      -14.200      -14.567       72.714       25.050       20.200     5287.352      627.520      408.036        1.073        0.316      122.141       27.554        0.051      336.884        8.484      872.659
11/25/2014  20:11:00      -51.792      -15.112       -1.922       51.764       31.238       25.340     2679.548      975.796      642.124        0.361        0.215       53.951       19.238        0.127      337.027        8.723      872.670
11/25/2014  20:12:00      -31.330      -28.416        1.361       45.112       38.116       22.714     2035.072     1452.860      515.933        0.290        0.200       42.297       18.705        0.196      337.046        8.755      872.687
11/25/2014  20:13:00      -10.373      -21.750       -5.215       22.791       20.530       19.449      519.442      421.489      378.269        0.096        0.066       24.097       12.518        0.270      337.147        8.924      872.689
11/25/2014  20:14:00      -56.618      -23.727      -18.041       16.367       16.547       11.501      267.869      273.818      132.282        0.238        0.034       61.389        8.208        0.018      337.339        9.246      872.687
11/25/2014  20:15:00      -70.742      -20.053      -17.390       21.534       16.301        9.247      463.712      265.730       85.505        0.326        0.041       73.529        6.782        0.009      337.455        9.440      872.687
11/25/2014  20:16:00     -118.296      -11.171      -21.877       23.488       17.378       16.505      551.700      302.003      272.422        0.786        0.056      118.822        8.131        0.005      336.992        8.666      872.678
11/25/2014  20:17:00     -112.805      -70.607      -14.324       25.434       28.655       21.545      646.889      821.090      464.196        0.992        0.097      133.080       10.964        0.007      336.712        8.199      872.681
11/25/2014  20:18:00     -138.629      -38.317      -12.473       40.528       30.149       23.063     1642.502      908.941      531.910        1.196        0.154      143.827       21.247        0.022      336.760        8.279      872.699
11/25/2014  20:19:00     -118.110      -36.680      -10.951       50.146       46.977       18.630     2514.584     2206.835      347.059        1.024        0.253      123.675       18.363        0.022      336.928        8.559      872.708
11/25/2014  20:20:00      -76.816      -35.259       -6.684       41.714       42.449       19.268     1740.064     1801.949      371.271        0.555        0.196       84.521       14.272        0.029      337.084        8.822      872.718
11/25/2014  20:21:00      -33.585        2.535       -7.236       19.234       19.107       15.426      369.948      365.074      237.951        0.108        0.049       33.680        9.902        0.086      337.393        9.337      872.731
11/25/2014  20:22:00      -51.827       -9.533      -10.628       15.605       26.926       11.454      243.523      725.034      131.202        0.199        0.055       52.697       10.210        0.038      337.513        9.539      872.757
11/25/2014  20:23:00      -33.215      -24.301       -7.156       15.357       12.538        8.140      235.834      157.198       66.265        0.110        0.023       41.155        7.332        0.032      337.785        9.995      872.756
11/25/2014  20:24:00      -66.889      -42.965      -15.514       32.036       16.293       10.968     1026.326      265.474      120.289        0.399        0.071       79.499        6.853        0.007      337.199        9.013      872.754
11/25/2014  20:25:00     -111.266      -47.273      -22.038       17.917       26.074       11.602      321.034      679.838      134.614        0.812        0.057      120.892        8.945        0.005      336.696        8.172      872.769
11/25/2014  20:26:00     -133.796      -51.285      -17.430       23.958       33.299       18.242      573.972     1108.834      332.766        1.143        0.101      143.289        8.618        0.004      336.625        8.054      872.784
11/25/2014  20:27:00     -138.422      -38.436      -19.540       40.193       41.679       23.202     1615.453     1737.120      538.317        1.245        0.195      143.659       11.123        0.006      336.594        8.002      872.786
11/25/2014  20:28:00     -147.276      -35.008      -19.754       33.091       28.121       19.023     1095.024      790.800      361.884        1.278        0.112      151.380       15.667        0.011      336.597        8.008      872.787
11/25/2014  20:29:00     -146.797      -36.035      -27.681       24.928       25.266       18.753      621.410      638.374      351.683        1.261        0.081      151.155       13.305        0.008      336.676        8.139      872.790
11/25/2014  20:30:00     -102.458      -34.671      -20.217       42.588       24.295       15.083     1813.741      590.257      227.484        0.737        0.132      108.165       15.041        0.019      336.714        8.202      872.798
11/25/2014  20:31:00      -91.649      -36.681       -9.143       46.049       25.571       20.348     2120.541      653.885      414.057        0.651        0.159       98.717       23.399        0.056      336.669        8.127      872.806
11/25/2014  20:32:00     -120.724      -42.645      -12.644       41.013       30.970       17.903     1682.052      959.111      320.513        0.976        0.148      128.035       20.178        0.025      336.628        8.058      872.815
11/25/2014  20:33:00     -106.065      -58.357       -8.361       36.734       35.086       23.592     1349.370     1231.018      556.582        0.893        0.157      121.059       17.770        0.022      336.617        8.040      872.837
11/25/2014  20:34:00      -76.387      -34.843       -4.604       35.265       33.759       22.191     1243.586     1139.646      492.428        0.497        0.144       83.959       13.845        0.027      336.580        7.978      872.845
11/25/2014  20:35:00      -89.425      -32.478      -13.423       36.526       20.400       18.926     1334.141      416.160      358.189        0.567        0.105       95.140       11.923        0.016      336.567        7.957      872.852
11/25/2014  20:36:00     -111.278      -52.297       -7.246       31.326       32.182       26.346      981.318     1035.674      694.096        0.894        0.136      122.955       17.501        0.020      336.545        7.918      872.862
11/25/2014  20:37:00     -114.352      -30.754      -11.821       54.302       44.657       24.872     2948.656     1994.249      618.615        0.986        0.278      118.415       23.070        0.038      336.520        7.877      872.875
11/25/2014  20:38:00     -121.822      -37.788      -10.763       55.352       33.990       30.490     3063.870     1155.336      929.656        1.077        0.257      127.548       29.647        0.054      336.441        7.744      872.866
11/25/2014  20:39:00     -113.959      -67.850      -16.384       25.441       32.883       23.035      647.260     1081.320      530.613        1.006        0.113      132.629       14.973        0.013      336.477        7.804      872.854
11/25/2014  20:40:00     -117.507      -51.659      -12.800       28.361       35.018       21.147      804.356     1226.231      447.185        0.956        0.124      128.361        8.682        0.005      336.480        7.810      872.844
11/25/2014  20:41:00      -94.631      -50.545      -18.277       29.256       27.237       16.956      855.916      741.831      287.514        0.686        0.094      107.284       12.600        0.014      336.565        7.952      872.843
11/25/2014  20:42:00     -129.007      -34.473      -22.723       20.054       17.985       13.959      402.161      323.452      194.858        0.963        0.046      133.533       11.820        0.008      336.569        7.959      872.835
11/25/2014  20:43:00     -131.536      -62.643      -22.646       22.965       28.007       15.797      527.405      784.392      249.548        1.165        0.078      145.691       15.618        0.011      336.573        7.967      872.835
11/25/2014  20:44:00     -100.548      -61.465      -17.183       36.065       28.532       24.206     1300.652      814.082      585.949        0.844        0.135      117.847       19.123        0.026      336.534        7.901      872.839
11/25/2014  20:45:00     -126.388      -59.429       -1.407       40.425       34.248       21.775     1634.205     1172.937      474.139        1.139        0.164      139.663       19.958        0.020      336.469        7.793      872.840
11/25/2014  20:46:00     -139.175      -18.914      -11.925       53.858       38.527       28.112     2900.635     1484.348      790.304        1.252        0.259      140.455       26.473        0.036      336.586        7.987      872.822
11/25/2014  20:47:00     -151.351      -28.373      -17.643       36.757       41.446       25.126     1351.069     1717.737      631.336        1.386        0.185      153.988       16.328        0.011      336.629        8.060      872.814
11/25/2014  20:48:00      -97.637      -66.017      -13.269       54.355       45.089       29.073     2954.448     2032.997      845.232        0.995        0.292      117.861       33.116        0.079      336.440        7.743      872.819
11/25/2014  20:49:00     -124.735      -61.096       -6.349       48.256       26.505       24.960     2328.681      702.502      622.998        1.149        0.183      138.894       27.677        0.040      336.378        7.640      872.835
11/25/2014  20:50:00     -149.398      -38.561       -7.283       25.170       26.980       16.894      633.549      727.911      285.411        1.275        0.082      154.294       13.530        0.008      336.405        7.683      872.828
11/25/2014  20:51:00     -145.070      -56.515      -10.530       23.858       20.921       14.319      569.200      437.671      205.020        1.278        0.061      155.690       13.870        0.008      336.482        7.814      872.819
11/25/2014  20:52:00     -137.234      -75.245       -7.731       37.830       32.723       25.225     1431.137     1070.783      636.313        1.385        0.157      156.509       18.710        0.014      336.429        7.725      872.819
11/25/2014  20:53:00     -194.121      -61.974      -14.200       42.051       31.684       23.326     1768.267     1003.879      544.098        2.252        0.166      203.773       21.124        0.011      336.402        7.676      872.823
11/25/2014  20:54:00     -165.006      -30.649       -5.370       44.692       34.956       22.736     1997.354     1221.926      516.938        1.597        0.187      167.829       20.014        0.014      336.475        7.800      872.811
11/25/2014  20:55:00     -161.394      -33.388      -12.882       31.412       27.878       19.398      986.694      777.168      376.289        1.473        0.107      164.811       17.797        0.012      336.452        7.762      872.809
11/25/2014  20:56:00     -163.012       -1.830      -14.797       44.489       33.686       30.848     1979.267     1134.717      951.579        1.543        0.203      163.023       28.659        0.031      336.590        7.994      872.805
11/25/2014  20:57:00     -140.107      -28.267       -8.222       58.429       45.139       29.139     3413.949     2037.557      849.100        1.340        0.315      142.930       27.940        0.038      336.666        8.121      872.798
11/25/2014  20:58:00     -151.054      -39.076       -9.789       38.453       42.037       30.172     1478.614     1767.073      910.362        1.430        0.208      156.026       22.424        0.021      336.602        8.015      872.778
11/25/2014  20:59:00     -152.307      -34.774       -3.611       52.183       41.864       27.962     2723.101     1752.562      781.885        1.484        0.263      156.226       28.631        0.034      336.487        7.822      872.770
11/25/2014  21:00:00     -150.099      -16.550      -12.092       66.409       49.500       33.165     4410.138     2450.240     1099.917        1.545        0.398      151.009       36.876        0.060      336.585        7.986      872.769
11/25/2014  21:01:00     -149.453      -12.819      -12.787       63.974       35.491       28.564     4092.620     1259.582      815.926        1.441        0.308      150.002       31.578        0.044      336.737        8.240      872.759
11/25/2014  21:02:00     -169.027       -0.061      -15.740       53.622       39.485       30.059     2875.346     1559.069      903.557        1.708        0.267      169.027       30.970        0.034      336.849        8.426      872.756
11/25/2014  21:03:00     -171.270      -42.358      -14.839       58.210       42.414       30.579     3388.457     1798.982      935.070        1.873        0.306      176.430       31.388        0.032      336.660        8.110      872.761
11/25/2014  21:04:00     -160.505      -38.749      -12.695       37.883       29.627       18.355     1435.086      877.777      336.895        1.504        0.132      165.116       10.532        0.004      336.451        7.760      872.768
11/25/2014  21:05:00     -149.094      -29.692      -12.171       23.181       28.033       16.654      537.356      785.853      277.359        1.243        0.080      152.022       13.586        0.008      336.397        7.671      872.753
11/25/2014  21:06:00     -131.256      -20.003      -12.381       25.303       17.847       18.296      640.224      318.520      334.760        0.954        0.065      132.771       15.046        0.013      336.354        7.599      872.735
11/25/2014  21:07:00     -158.681      -28.712      -18.273       26.243       20.841       21.850      688.686      434.339      477.441        1.397        0.080      161.257       18.151        0.013      336.347        7.588      872.733
11/25/2014  21:08:00     -125.154       12.677       -5.403       58.086       40.798       30.885     3374.010     1664.484      953.897        1.092        0.300      125.795       28.994        0.053      336.723        8.216      872.740
11/25/2014  21:09:00     -190.360       40.720      -13.937       61.802       41.758       34.233     3819.543     1743.728     1171.926        2.241        0.337      194.667       29.542        0.023      337.091        8.830      872.745
11/25/2014  21:10:00     -137.742       12.945      -15.486       77.693       35.688       32.917     6036.269     1273.610     1083.531        1.389        0.420      138.349       35.258        0.065      336.872        8.465      872.749
11/25/2014  21:11:00      -98.343       -4.971        5.075       55.650       52.253       28.595     3096.965     2730.351      817.702        0.818        0.332       98.468       29.281        0.088      336.799        8.344      872.752
11/25/2014  21:12:00     -102.243       13.241        0.164       43.742       41.392       25.796     1913.364     1713.292      665.456        0.746        0.215      103.096       23.017        0.050      337.123        8.884      872.762
11/25/2014  21:13:00      -84.214        1.611       -0.360       42.137       42.011       25.650     1775.555     1764.915      657.942        0.565        0.210       84.229       20.572        0.060      336.834        8.403      872.768
11/25/2014  21:14:00     -125.748       29.068       -6.053       46.908       32.747       26.505     2200.328     1072.387      702.506        1.033        0.199      129.065       20.971        0.026      337.112        8.867      872.770
11/25/2014  21:15:00     -130.641       27.189       -4.796       61.099       48.109       38.439     3733.029     2314.444     1477.591        1.268        0.376      133.441       39.532        0.088      337.043        8.751      872.770
11/25/2014  21:16:00     -134.166        1.497       -9.793       52.571       54.163       31.910     2763.696     2933.641     1018.248        1.241        0.336      134.174       32.451        0.058      336.971        8.631      872.754
11/25/2014  21:17:00      -76.227      -16.987        0.143       41.749       29.717       26.199     1742.954      883.073      686.385        0.471        0.166       78.097       18.990        0.059      336.646        8.089      872.736
11/25/2014  21:18:00      -68.763      -17.045       -2.557       40.799       43.995       21.206     1664.594     1935.553      449.686        0.454        0.202       70.844       13.786        0.038      336.541        7.912      872.726
11/25/2014  21:19:00      -93.473      -57.786       -0.763       32.619       33.018       16.194     1063.968     1090.212      262.254        0.725        0.121      109.893       12.013        0.012      336.404        7.681      872.749
11/25/2014  21:20:00      -95.279      -45.567      -11.453       28.982       22.193       18.294      839.955      492.515      334.674        0.648        0.083      105.615       11.298        0.011      336.366        7.619      872.762
11/25/2014  21:21:00     -101.885      -40.028       -9.327       29.781       20.961       14.578      886.888      439.376      212.511        0.680        0.077      109.466        9.548        0.008      336.360        7.608      872.761
11/25/2014  21:22:00      -60.515      -32.356        3.232       18.605       21.704       15.017      346.154      471.045      225.517        0.288        0.052       68.622        6.983        0.010      336.359        7.607      872.754
11/25/2014  21:23:00      -77.469      -13.249      -12.473       17.998        9.403        9.738      323.928       88.409       94.827        0.342        0.025       78.594        9.125        0.013      336.415        7.701      872.751
11/25/2014  21:24:00     -102.997      -25.306       -9.354       14.105       11.313        7.617      198.947      127.988       58.020        0.586        0.019      106.060        3.670        0.001      336.483        7.816      872.750
11/25/2014  21:25:00     -106.459      -25.288      -17.171       10.283       13.006        9.233      105.731      169.160       85.244        0.631        0.018      109.421        6.740        0.004      336.475        7.802      872.759
11/25/2014  21:26:00      -82.219      -10.912       -4.556       40.867       29.146       19.069     1670.081      849.484      363.642        0.489        0.144       82.940       17.338        0.044      336.647        8.089      872.756
11/25/2014  21:27:00     -114.505      -23.222      -14.196       18.030       20.528       12.699      325.081      421.407      161.256        0.738        0.045      116.836        8.606        0.005      336.450        7.759      872.745
11/25/2014  21:28:00     -108.347      -31.691      -15.567       19.137       23.135       14.512      366.224      535.214      210.597        0.705        0.056      112.887        6.726        0.004      336.307        7.521      872.736
11/25/2014  21:29:00      -54.145      -51.441      -11.458       24.465       16.899       16.782      598.555      285.569      281.652        0.344        0.058       74.685       12.859        0.030      336.299        7.506      872.715
11/25/2014  21:30:00      -55.796      -27.484       -6.471       26.270       20.748       12.637      690.117      430.481      159.695        0.260        0.064       62.198        8.888        0.020      336.228        7.389      872.710
11/25/2014  21:31:00      -76.269      -36.576      -11.545       18.225       20.293       14.608      332.168      411.808      213.404        0.412        0.048       84.586        3.800        0.002      336.106        7.184      872.701
11/25/2014  21:32:00      -86.586      -28.787      -15.456       17.504       21.150       10.040      306.391      447.340      100.796        0.471        0.043       91.246        8.134        0.008      336.144        7.248      872.690
11/25/2014  21:33:00      -81.010      -15.328      -12.508       14.244        7.083        6.786      202.886       50.162       46.047        0.363        0.015       82.447        4.248        0.003      336.236        7.402      872.687
11/25/2014  21:34:00        0.654       11.049       10.161       16.994       12.663        8.031      288.792      160.340       64.499        0.037        0.026       11.069        8.038        0.527      336.444        7.750      872.691
11/25/2014  21:35:00       20.174       19.251        0.332        7.399       12.555        9.493       54.744      157.627       90.119        0.054        0.015       27.886        9.593        0.118      336.425        7.716      872.692
11/25/2014  21:36:00       46.235       22.472        1.828       15.468        8.685        6.505      239.264       75.428       42.318        0.150        0.018       51.407        4.382        0.007      336.311        7.526      872.706
11/25/2014  21:37:00       41.019       15.317        3.313       17.770       16.185        7.966      315.790      261.961       63.460        0.128        0.032       43.785        6.931        0.025      336.267        7.454      872.711
11/25/2014  21:38:00       10.774       -8.134        0.717        9.678        9.578        8.402       93.656       91.744       70.588        0.022        0.013       13.500        5.575        0.171      336.272        7.464      872.712
11/25/2014  21:39:00       19.010        2.384       -5.543        5.766        5.847        3.497       33.245       34.183       12.230        0.024        0.004       19.159        2.274        0.014      336.433        7.734      872.703
11/25/2014  21:40:00       24.782        5.158       -1.643        4.543        6.074        2.713       20.642       36.889        7.361        0.035        0.003       25.314        1.625        0.004      336.501        7.845      872.696
11/25/2014  21:41:00       47.981       17.832        3.871        7.396        6.886        5.143       54.694       47.419       26.452        0.138        0.006       51.187        4.831        0.009      336.426        7.720      872.683
11/25/2014  21:42:00       46.911       20.128        8.179       13.033       10.380       13.800      169.851      107.742      190.441        0.157        0.023       51.047        9.843        0.037      336.212        7.363      872.674
11/25/2014  21:43:00       28.034        8.523        3.983       16.099        7.808        9.148      259.163       60.963       83.680        0.064        0.020       29.301        7.224        0.061      336.100        7.177      872.672
11/25/2014  21:44:00       26.575        5.507        4.560       14.093        7.172        7.849      198.615       51.432       61.611        0.053        0.016       27.140        8.275        0.093      336.112        7.195      872.681
11/25/2014  21:45:00       38.901        0.082       -1.427        7.764        3.456        6.138       60.278       11.942       37.677        0.081        0.005       38.901        2.599        0.004      336.203        7.346      872.683
11/25/2014  21:46:00       39.883       11.402        3.407        5.441        8.373        3.813       29.599       70.114       14.541        0.092        0.006       41.481        2.929        0.005      336.281        7.479      872.686
11/25/2014  21:47:00       45.541       21.854        5.639        5.191        6.255        3.851       26.946       39.120       14.834        0.133        0.004       50.513        3.117        0.004      336.298        7.506      872.687
11/25/2014  21:48:00       36.130        2.387        0.535       18.890       21.336        4.604      356.815      455.245       21.194        0.107        0.042       36.209        6.326        0.031      336.216        7.369      872.699
11/25/2014  21:49:00       -5.772       -9.690        5.317        9.956       10.526       10.303       99.125      110.803      106.155        0.024        0.016       11.279        7.518        0.444      336.281        7.478      872.726
11/25/2014  21:50:00      -16.934        2.895       -1.208       12.295       11.773        8.143      151.166      138.615       66.303        0.033        0.018       17.179        2.824        0.027      335.976        6.968      872.758
11/25/2014  21:51:00       40.507       34.918        1.848       17.752        7.988        9.330      315.121       63.801       87.049        0.166        0.023       53.480        6.865        0.016      336.340        7.577      872.780
11/25/2014  21:52:00       47.470       39.356        5.084        9.649        8.036        7.093       93.107       64.585       50.307        0.202        0.010       61.663        2.116        0.001      336.317        7.539      872.793
11/25/2014  21:53:00       37.436       21.979        7.281        9.639       11.249        8.629       92.910      126.531       74.466        0.112        0.015       43.412        4.577        0.011      336.270        7.457      872.813
11/25/2014  21:54:00       39.602       21.791        2.442       11.805        8.431        8.898      139.357       71.080       79.181        0.117        0.014       45.201        4.975        0.012      336.209        7.357      872.832
11/25/2014  21:55:00       50.637       14.725       10.737       18.747       11.120        9.292      351.456      123.664       86.339        0.173        0.028       52.734        6.002        0.013      336.181        7.310      872.843
11/25/2014  21:56:00       63.862       13.664       19.893       24.140       14.793       16.816      582.734      218.843      282.787        0.287        0.054       65.307       12.736        0.038      336.063        7.113      872.864
11/25/2014  21:57:00       45.925        8.561        6.715       20.221        8.968       11.546      408.908       80.420      133.317        0.142        0.031       46.716        3.284        0.005      336.080        7.142      872.894
11/25/2014  21:58:00       41.162       -2.608        9.418       15.078        9.076       11.070      227.341       82.375      122.556        0.111        0.022       41.245        6.456        0.025      336.174        7.299      872.917
11/25/2014  21:59:00       40.588       15.410       13.931       17.506       13.971       14.153      306.460      195.187      200.316        0.139        0.035       43.415        9.375        0.047      336.132        7.228      872.932
11/25/2014  22:00:00       27.526        8.392       11.865       11.445       12.454       13.682      130.996      155.094      187.208        0.072        0.024       28.777       10.490        0.133      336.044        7.080      872.937
11/25/2014  22:01:00       38.224        8.460       10.558       15.314       15.576       10.903      234.516      242.599      118.866        0.112        0.030       39.149        3.972        0.010      336.037        7.070      872.940
11/25/2014  22:02:00       51.769       11.538       10.493       17.405       12.608       12.283      302.938      158.956      150.877        0.177        0.031       53.040        7.417        0.020      336.049        7.090      872.944
11/25/2014  22:03:00       58.718       -0.800        9.502       19.515       12.163       12.034      380.819      147.930      144.808        0.211        0.034       58.724        7.987        0.019      336.037        7.068      872.952
11/25/2014  22:04:00       27.597       -5.308       12.244       28.081       16.062       11.987      788.518      257.980      143.676        0.106        0.060       28.103       12.634        0.202      336.044        7.080      872.959
11/25/2014  22:05:00       15.497       -6.349       11.285       17.016       13.440       10.386      289.554      180.628      107.872        0.049        0.029       16.747        8.838        0.278      336.061        7.110      872.968
11/25/2014  22:06:00       22.582        4.262        6.626       13.119       12.750       11.783      172.112      162.553      138.840        0.052        0.024       22.980        5.960        0.067      336.092        7.159      872.962
11/25/2014  22:07:00       33.732       27.375       13.747        7.753        7.076        6.605       60.116       50.070       43.625        0.111        0.008       43.443        4.564        0.011      336.043        7.080      872.960
11/25/2014  22:08:00       10.866       20.096       -7.307       13.670       12.270        6.524      186.879      150.552       42.567        0.048        0.019       22.845        1.790        0.006      336.017        7.035      872.961
11/25/2014  22:09:00       -8.131       16.565       -4.660       11.737        6.937        5.890      137.768       48.122       34.693        0.029        0.011       18.453        6.027        0.107      336.124        7.214      872.968
11/25/2014  22:10:00      -45.706        0.189       -3.567       20.827       11.838        6.219      433.778      140.144       38.674        0.136        0.031       45.706        5.628        0.015      335.712        6.529      872.979
11/25/2014  22:11:00      -47.048       -4.014       -1.494       17.603        7.463        4.523      309.867       55.700       20.459        0.131        0.019       47.219        5.287        0.013      335.746        6.585      872.988
11/25/2014  22:12:00      -25.370      -16.067       -6.749       17.452        6.672        6.747      304.575       44.517       45.526        0.067        0.020       30.030        8.793        0.086      335.826        6.718      872.992
11/25/2014  22:13:00      -63.638      -10.963      -12.177       14.908       11.177       10.438      222.241      124.916      108.945        0.239        0.023       64.576        7.197        0.012      335.496        6.169      872.978
11/25/2014  22:14:00     -111.616       -4.737      -19.455       19.367       10.138       10.508      375.084      102.776      110.408        0.672        0.029      111.717        6.769        0.004      335.668        6.456      872.982
11/25/2014  22:15:00     -121.174       -1.171      -22.055       16.283        9.875        8.113      265.131       97.516       65.822        0.780        0.021      121.180        6.363        0.003      335.567        6.286      872.982
11/25/2014  22:16:00     -124.632       -1.910      -24.620       10.903       13.841        9.935      118.881      191.566       98.706        0.828        0.020      124.647        4.052        0.001      335.779        6.640      872.970
11/25/2014  22:17:00      -58.499      -14.536       -5.108       31.764       24.328       20.415     1008.925      591.862      416.766        0.284        0.101       60.278       18.843        0.098      335.491        6.158      872.963
11/25/2014  22:18:00      -47.682        3.447      -14.450       23.234       29.359       16.504      539.799      861.924      272.382        0.208        0.084       47.807       12.233        0.065      335.533        6.230      872.969
11/25/2014  22:19:00      -59.970        7.611       -8.772       32.623       29.954       22.141     1064.243      897.265      490.245        0.309        0.123       60.451       15.954        0.070      335.908        6.855      872.958
11/25/2014  22:20:00      -51.002        0.843      -18.491       36.319       33.022       15.805     1319.039     1090.483      249.790        0.280        0.133       51.009       19.227        0.142      335.913        6.864      872.940
11/25/2014  22:21:00      -43.602      -18.817       -7.698       37.737       25.389       17.193     1424.085      644.593      295.587        0.234        0.118       47.489       12.922        0.074      335.795        6.666      872.919
11/25/2014  22:22:00     -106.348      -47.343      -15.182       17.595       27.988       14.588      309.598      783.330      212.805        0.754        0.065      116.410        5.233        0.002      335.252        5.762      872.909
11/25/2014  22:23:00     -116.063      -46.527       -9.355       38.001       26.864       20.949     1444.044      721.666      438.863        0.916        0.130      125.041       19.415        0.024      335.147        5.588      872.897
11/25/2014  22:24:00     -121.291      -16.330       -9.786       44.658       36.063       24.600     1994.372     1300.528      605.136        0.949        0.195      122.385       11.690        0.009      335.317        5.870      872.889
11/25/2014  22:25:00     -124.290      -35.591       -7.822       41.125       28.035       18.690     1691.245      785.972      349.316        0.980        0.141      129.286       16.086        0.015      335.222        5.711      872.878
11/25/2014  22:26:00     -124.960      -38.623      -13.036       25.434       25.809       14.211      646.895      666.126      201.942        0.940        0.076      130.793       12.125        0.009      335.212        5.695      872.875
11/25/2014  22:27:00      -88.892       -7.295       -1.806       33.700       33.908       18.615     1135.684     1149.721      346.533        0.529        0.132       89.191       11.874        0.018      335.292        5.827      872.863
11/25/2014  22:28:00      -89.493      -14.819       -3.507       27.688       29.799       20.852      766.613      887.973      434.799        0.516        0.104       90.711       16.494        0.033      335.495        6.167      872.852
11/25/2014  22:29:00      -91.068      -50.592       -3.185       29.729       29.442       16.259      883.840      866.807      264.357        0.644        0.101      104.178       11.542        0.012      335.502        6.177      872.861
11/25/2014  22:30:00     -102.146      -38.417      -10.855       34.392       25.804       19.810     1182.831      665.829      392.443        0.713        0.112      109.132       19.410        0.032      335.657        6.437      872.859
11/25/2014  22:31:00      -58.970      -22.634        0.981       46.758       32.818       28.239     2186.354     1076.992      797.446        0.402        0.203       63.164       26.700        0.179      335.916        6.870      872.852
11/25/2014  22:32:00     -118.880      -35.729      -14.133       43.863       36.918       16.597     1923.988     1362.961      275.447        0.958        0.178      124.134       14.823        0.014      335.788        6.655      872.856
11/25/2014  22:33:00     -124.190      -39.703      -13.825       30.965       25.474       17.589      958.826      648.948      309.364        0.955        0.096      130.383       11.361        0.008      335.452        6.094      872.859
11/25/2014  22:34:00      -88.462      -30.762       -5.851       31.936       26.813       16.833     1019.886      718.918      283.362        0.541        0.101       93.657       15.794        0.028      335.463        6.113      872.855
11/25/2014  22:35:00     -100.351      -29.445      -11.949       34.312       30.776       18.664     1177.313      947.146      348.361        0.678        0.124      104.582       17.048        0.027      335.515        6.199      872.845
11/25/2014  22:36:00      -97.470      -38.629      -15.568       28.117       23.586       13.189      790.570      556.288      173.937        0.638        0.076      104.845       12.909        0.015      335.438        6.072      872.835
11/25/2014  22:37:00     -114.103      -62.880       -8.300       22.680       25.408       13.899      514.401      645.549      193.175        0.920        0.068      130.281       12.398        0.009      335.333        5.895      872.835
11/25/2014  22:38:00     -119.588      -47.003      -10.034       23.793       17.553       15.729      566.100      308.101      247.390        0.887        0.056      128.494       15.886        0.015      335.431        6.061      872.836
11/25/2014  22:39:00     -129.386      -20.794      -17.388        9.911        8.996        9.133       98.228       80.936       83.414        0.887        0.013      131.047        3.326        0.001      335.623        6.381      872.841
11/25/2014  22:40:00     -125.020      -34.157      -13.708       17.506       12.172        9.051      306.445      148.147       81.918        0.876        0.027      129.602        5.215        0.002      335.663        6.447      872.843
11/25/2014  22:41:00     -132.286      -25.321      -14.177       17.711       15.889       12.547      313.675      252.469      157.423        0.953        0.036      134.688        9.108        0.005      335.731        6.562      872.861
11/25/2014  22:42:00     -114.488      -32.877       -2.741       25.252       16.720       16.804      637.675      279.575      282.366        0.770        0.060      119.115       16.447        0.019      335.707        6.522      872.862
11/25/2014  22:43:00     -111.179      -32.105      -13.657       12.215       11.403        8.515      149.202      130.034       72.502        0.696        0.018      115.722        1.219        0.000      335.648        6.423      872.845
11/25/2014  22:44:00      -93.566      -37.143      -10.998        8.564        7.868        7.415       73.340       61.898       54.985        0.522        0.010      100.669        4.260        0.002      335.732        6.564      872.847
11/25/2014  22:45:00      -87.679      -34.870       -9.455        7.690       10.741        6.389       59.136      115.360       40.817        0.460        0.011       94.359        4.862        0.003      335.703        6.514      872.856
11/25/2014  22:46:00      -83.324      -23.804      -11.500        7.949        6.838        7.216       63.180       46.752       52.077        0.390        0.008       86.658        2.372        0.001      335.581        6.311      872.852
11/25/2014  22:47:00     -103.017      -27.107      -14.604        9.902        8.191        7.580       98.046       67.096       57.456        0.589        0.011      106.523        4.206        0.002      335.628        6.388      872.852
11/25/2014  22:48:00     -129.985      -37.859      -18.109       21.553       18.898       16.345      464.544      357.133      267.150        0.987        0.054      135.387       13.792        0.010      335.435        6.067      872.868
11/25/2014  22:49:00     -124.397      -37.925      -13.902       23.794       21.412       17.518      566.134      458.490      306.890        0.922        0.067      130.049       12.835        0.010      335.121        5.546      872.878
11/25/2014  22:50:00      -94.740      -30.794       -2.189       48.147       32.895       21.402     2318.146     1082.100      458.065        0.689        0.193       99.619       26.751        0.072      335.262        5.779      872.878
11/25/2014  22:51:00     -122.132      -14.582      -13.689       38.124       29.229       21.473     1453.444      854.357      461.109        0.904        0.138      123.000       18.081        0.022      335.400        6.008      872.868
11/25/2014  22:52:00     -141.217       -2.793      -22.707       37.267       19.909       20.485     1388.838      396.373      419.646        1.133        0.110      141.245       17.579        0.015      335.874        6.800      872.862
11/25/2014  22:53:00     -101.439      -43.573      -11.146       29.108       18.159       16.708      847.274      329.763      279.158        0.688        0.073      110.402       17.311        0.025      335.326        5.884      872.852
11/25/2014  22:54:00     -103.140      -11.187       -6.030       48.430       59.535       30.515     2345.472     3544.383      931.136        0.881        0.341      103.745       26.070        0.063      335.447        6.087      872.837
11/25/2014  22:55:00      -80.419       24.501       -7.290       48.415       47.073       33.052     2343.993     2215.825     1092.460        0.639        0.283       84.068       28.157        0.112      335.862        6.779      872.840
11/25/2014  22:56:00       -8.822       -0.355        4.284       33.297       24.865       21.529     1108.681      618.291      463.519        0.114        0.110        8.829       21.557        5.962      335.715        6.534      872.833
11/25/2014  22:57:00      -68.556      -12.922       -7.850       38.938       26.274       23.938     1516.179      690.321      573.043        0.385        0.139       69.763       22.764        0.106      335.462        6.112      872.832
11/25/2014  22:58:00      -78.349      -29.679       -3.352       35.852       30.729       22.140     1285.389      944.243      490.196        0.487        0.136       83.782       17.159        0.042      335.278        5.806      872.829
11/25/2014  22:59:00      -66.209      -31.963       -3.932       24.316       29.585       17.150      591.283      875.274      294.132        0.359        0.088       73.520       16.998        0.053      335.278        5.803      872.826
11/25/2014  23:00:00     -101.736      -13.350      -19.377       27.119       19.136       12.941      735.458      366.173      167.465        0.609        0.063      102.608       11.418        0.012      335.513        6.197      872.831
11/25/2014  23:01:00      -92.497      -14.983      -10.152       26.821       25.748       18.799      719.340      662.957      353.411        0.531        0.087       93.703       12.995        0.019      335.584        6.316      872.816
11/25/2014  23:02:00      -92.842      -17.383      -13.920       26.703       18.853       12.886      713.038      355.429      166.060        0.517        0.062       94.455       12.094        0.016      335.351        5.925      872.802
11/25/2014  23:03:00      -89.133      -24.254      -16.866       25.331       26.954       21.266      641.661      726.505      452.260        0.532        0.091       92.375       16.235        0.031      335.356        5.934      872.796
11/25/2014  23:04:00      -96.789      -23.153      -19.633       19.574       17.891       15.693      383.150      320.082      246.282        0.562        0.047       99.520       11.729        0.014      335.259        5.773      872.801
11/25/2014  23:05:00      -86.487      -24.867      -18.793       19.369       24.083       12.368      375.149      579.987      152.957        0.478        0.055       89.991       14.323        0.025      335.249        5.755      872.792
11/25/2014  23:06:00     -108.042      -10.445      -20.537       19.311       15.142       12.773      372.916      229.268      163.156        0.648        0.038      108.546        9.814        0.008      335.169        5.625      872.779
11/25/2014  23:07:00     -118.374      -11.426      -20.568       16.807       13.236       12.430      282.480      175.180      154.495        0.759        0.031      118.924        7.912        0.004      335.180        5.643      872.774
11/25/2014  23:08:00      -91.348      -25.029      -14.481       12.171       15.655        8.457      148.126      245.092       71.520        0.482        0.023       94.715        4.693        0.002      335.240        5.743      872.771
11/25/2014  23:09:00      -84.844      -19.154      -18.484       12.855       12.163       10.746      165.262      147.932      115.485        0.417        0.021       86.979        5.283        0.004      335.201        5.677      872.762
11/25/2014  23:10:00      -88.619      -31.932      -19.486       11.046       15.591        9.811      122.013      243.086       96.253        0.486        0.023       94.196        6.819        0.005      335.207        5.686      872.752
11/25/2014  23:11:00      -85.647      -24.576       -8.980       20.165       16.730       13.659      406.609      279.894      186.576        0.445        0.044       89.103       11.070        0.015      335.217        5.703      872.746
11/25/2014  23:12:00     -101.378      -16.525      -14.013       36.144       19.197       18.536     1306.367      368.543      343.586        0.638        0.101      102.716       21.317        0.043      335.274        5.798      872.745
11/25/2014  23:13:00     -133.381       -6.566      -21.845       21.181       13.177       10.335      448.640      173.643      106.820        0.952        0.036      133.543        9.642        0.005      335.344        5.916      872.727
11/25/2014  23:14:00     -108.299       -5.908      -21.658       16.480       11.280       10.861      271.599      127.237      117.951        0.637        0.026      108.460        9.750        0.008      335.345        5.915      872.714
11/25/2014  23:15:00     -103.535      -16.454      -20.001       14.010       15.055       10.163      196.272      226.649      103.294        0.596        0.026      104.834        6.257        0.004      335.359        5.938      872.714
11/25/2014  23:16:00     -106.621      -27.293      -15.086       21.110       14.697       12.267      445.651      216.014      150.478        0.658        0.041      110.059       10.906        0.010      335.222        5.711      872.715
11/25/2014  23:17:00      -82.633      -19.543      -14.319       17.152       22.745       14.649      294.186      517.343      214.608        0.422        0.051       84.913       12.418        0.021      335.204        5.682      872.720
11/25/2014  23:18:00      -96.615       -6.791      -13.861       13.871       19.458       11.691      192.395      378.628      136.685        0.514        0.035       96.853        7.285        0.006      335.422        6.046      872.719
11/25/2014  23:19:00      -74.698      -18.395      -15.565       15.789       19.587        9.698      249.281      383.635       94.045        0.344        0.036       76.929        6.206        0.007      335.417        6.036      872.722
11/25/2014  23:20:00      -84.142      -21.148      -12.922       16.615       17.125       10.570      276.069      293.254      111.724        0.419        0.034       86.759        8.591        0.010      335.298        5.840      872.730
11/25/2014  23:21:00     -103.716      -45.973      -12.909       16.697       19.858       11.779      278.803      394.355      138.751        0.692        0.041      113.449        9.119        0.006      335.128        5.556      872.741
11/25/2014  23:22:00     -120.433      -64.596      -14.096       27.868       20.422       13.345      776.601      417.044      178.091        1.012        0.069      136.663        7.429        0.003      335.060        5.445      872.744
11/25/2014  23:23:00     -109.553      -62.151      -10.399       39.520       21.006       16.724     1561.844      441.256      279.685        0.913        0.114      125.955       14.393        0.013      335.025        5.385      872.741
11/25/2014  23:24:00      -75.297      -46.906        3.309       37.981       25.844       18.959     1442.534      667.888      359.462        0.517        0.123       88.712       20.305        0.052      334.964        5.284      872.735
11/25/2014  23:25:00      -73.381      -57.616        1.423       32.284       22.565       16.477     1042.275      509.188      271.501        0.526        0.091       93.298       15.474        0.028      335.095        5.502      872.724
11/25/2014  23:26:00      -73.783      -48.516       -2.087       26.196       16.128       14.895      686.230      260.097      221.865        0.448        0.058       88.305       14.690        0.028      335.048        5.423      872.719
11/25/2014  23:27:00      -77.490      -29.280       -8.768       14.979       15.719        9.357      224.371      247.081       87.554        0.375        0.028       82.837        7.142        0.007      335.017        5.373      872.699
11/25/2014  23:28:00      -84.569      -29.783      -18.428        7.894        7.217        6.894       62.321       52.086       47.524        0.427        0.008       89.661        3.616        0.002      335.126        5.552      872.679
11/25/2014  23:29:00      -90.022      -20.631      -13.905       13.497        7.194        8.141      182.172       51.753       66.270        0.451        0.015       92.356        4.629        0.003      335.073        5.466      872.667
11/25/2014  23:30:00      -92.865      -31.042      -15.842       10.353        7.804        6.813      107.180       60.895       46.419        0.503        0.011       97.915        3.907        0.002      335.054        5.434      872.679
11/25/2014  23:31:00      -85.621      -36.355      -12.761       14.574       11.628        8.914      212.411      135.217       79.460        0.462        0.021       93.020        4.351        0.002      334.990        5.327      872.683
11/25/2014  23:32:00     -104.318      -28.882       -4.300       24.090       17.896       16.817      580.340      320.267      282.824        0.646        0.059      108.242       16.225        0.022      335.068        5.457      872.689
11/25/2014  23:33:00     -115.495      -38.527       -5.275       17.630       13.424       11.286      310.827      180.210      127.382        0.773        0.031      121.752        7.665        0.004      335.074        5.466      872.692
11/25/2014  23:34:00      -98.392      -31.793       -8.371       11.364        9.839        8.025      129.136       96.797       64.393        0.553        0.015      103.401        5.281        0.003      335.074        5.466      872.688
11/25/2014  23:35:00      -88.381      -46.160       -6.348       14.841       14.097       10.057      220.242      198.724      101.147        0.525        0.026       99.709        8.896        0.008      335.019        5.373      872.681
11/25/2014  23:36:00      -88.571      -43.101       -8.952       10.356       16.150        9.248      107.239      260.819       85.527        0.512        0.023       98.501        6.052        0.004      335.201        5.678      872.685
11/25/2014  23:37:00      -87.116      -14.497      -11.390       11.937       10.577       11.951      142.482      111.877      142.837        0.416        0.020       88.314        9.734        0.012      335.099        5.508      872.678
11/25/2014  23:38:00     -105.038       -7.263      -20.780       11.313        6.038        5.531      127.980       36.455       30.590        0.586        0.010      105.289        3.880        0.001      335.070        5.459      872.675
11/25/2014  23:39:00     -106.720      -13.955      -13.427       17.763       14.646       12.376      315.521      214.515      153.154        0.622        0.034      107.629        9.654        0.008      335.099        5.509      872.673
11/25/2014  23:40:00     -113.339       -5.850      -18.719       14.804       12.566       13.027      219.153      157.915      169.699        0.689        0.027      113.490        9.254        0.007      335.182        5.646      872.669
11/25/2014  23:41:00     -124.712      -13.682      -17.377        9.494       16.622       10.864       90.128      276.299      118.030        0.826        0.024      125.461        5.921        0.002      335.349        5.923      872.666
11/25/2014  23:42:00     -129.270      -36.240      -25.144       14.295       17.788       13.416      204.357      316.430      179.991        0.968        0.035      134.254        7.795        0.003      335.016        5.371      872.659
11/25/2014  23:43:00     -129.142      -38.697      -20.265       26.212       27.885       18.481      687.077      777.595      341.563        1.020        0.090      134.816       18.039        0.018      334.691        4.830      872.652
11/25/2014  23:44:00      -87.046      -31.970       -9.839       27.864       27.621       19.032      776.419      762.920      362.215        0.530        0.095       92.732       13.805        0.022      334.547        4.590      872.643
11/25/2014  23:45:00     -100.444      -13.372      -10.493       29.460       26.341       17.431      867.915      693.834      303.826        0.612        0.093      101.330       14.336        0.020      334.579        4.643      872.627
11/25/2014  23:46:00     -116.493      -27.377      -19.346       17.147       21.872       12.831      294.008      478.379      164.631        0.782        0.047      119.667        8.132        0.005      334.639        4.742      872.611
11/25/2014  23:47:00     -127.067      -28.418      -18.772       22.333       20.405       14.140      498.770      416.375      199.941        0.921        0.056      130.206       12.319        0.009      334.572        4.634      872.595
11/25/2014  23:48:00      -92.372      -36.276      -15.890       37.503       25.095       17.001     1406.445      629.765      289.037        0.621        0.116       99.240       18.515        0.035      334.577        4.643      872.575
11/25/2014  23:49:00      -88.749       -2.990      -16.041       40.822       19.341       15.561     1666.437      374.058      242.154        0.521        0.114       88.799       14.603        0.027      334.729        4.894      872.554
11/25/2014  23:50:00      -95.403      -32.810      -15.154       20.771       27.267       14.377      431.437      743.490      206.685        0.589        0.069      100.887       11.769        0.014      334.694        4.836      872.553
11/25/2014  23:51:00     -115.113      -37.091      -22.293       17.881       14.890       10.274      319.722      221.708      105.564        0.789        0.032      120.941        7.215        0.004      334.603        4.684      872.574
11/25/2014  23:52:00     -114.515      -41.482      -16.242       18.075       20.473       15.095      326.698      419.160      227.863        0.804        0.049      121.797       10.313        0.007      334.613        4.700      872.586
11/25/2014  23:53:00     -115.797      -17.558      -12.829       28.110       21.759       16.056      790.184      473.454      257.785        0.770        0.076      117.120       12.946        0.012      334.640        4.745      872.592
11/25/2014  23:54:00      -98.433      -32.311      -14.249       28.025       18.857       15.783      785.399      355.583      249.104        0.616        0.070      103.601       14.468        0.020      334.660        4.778      872.596
11/25/2014  23:55:00     -100.257      -21.153      -14.699       31.445       22.457       21.970      988.816      504.337      482.691        0.634        0.099      102.464       20.410        0.040      334.697        4.841      872.613
11/25/2014  23:56:00     -116.649      -16.647      -10.484       36.254       25.478       22.748     1314.363      649.151      517.491        0.824        0.124      117.830       23.550        0.040      334.709        4.860      872.607
11/25/2014  23:57:00      -77.126      -12.938       -2.934       52.883       25.583       21.400     2796.644      654.508      457.971        0.502        0.195       78.204       23.647        0.091      334.790        4.994      872.597
11/25/2014  23:58:00      -94.973       -9.572      -16.946       27.803       23.314       14.196      773.011      543.545      201.516        0.546        0.076       95.455       10.794        0.013      334.771        4.963      872.603
11/25/2014  23:59:00      -86.397      -15.533      -15.397       18.588       19.336       13.213      345.500      373.879      174.573        0.442        0.045       87.783       12.121        0.019      334.729        4.893      872.599
